GFSGL_sfc_thetae_000.txt.gz
Theta_e
284 285 285 284 285 285 284 284 284 283 282 281 281 281 280 280 280 280 279 278 278 277 277 277 277 277 276 275 276 275 275 275 272 273 275 275 275 274 275 276 276 276 277
285 285 284 285 284 283 284 284 283 282 281 281 281 280 280 280 280 279 278 278 277 277 277 277 276 276 274 273 273 273 273 273 272 270 272 272 273 273 274 274 275 277 277
288 285 284 284 283 284 285 284 283 283 282 281 281 280 280 280 279 280 279 278 278 277 277 276 275 274 272 272 271 271 271 272 271 270 270 272 272 273 273 274 275 276 278
287 285 285 284 284 286 286 285 283 283 282 281 281 281 280 280 280 279 279 278 277 277 277 276 274 273 272 271 271 270 271 270 270 270 270 270 271 274 274 274 274 276 276
286 286 286 286 284 285 285 285 282 282 282 282 281 280 280 280 279 279 279 278 276 276 275 275 274 274 276 273 271 270 270 268 268 268 269 270 272 273 273 274 273 274 275
285 285 286 286 285 283 284 284 281 281 281 281 280 280 279 279 283 284 280 277 277 275 274 274 273 274 276 278 277 276 272 266 262 264 271 271 273 273 274 273 273 273 272
284 285 284 283 283 284 282 281 281 280 281 280 280 279 279 279 284 285 284 278 276 275 274 273 272 273 273 275 278 277 277 277 274 272 272 273 273 273 274 274 274 274 273
283 283 283 282 281 281 279 280 279 279 279 279 279 279 279 279 284 286 284 277 276 275 274 273 273 272 273 274 275 275 275 275 275 275 274 274 274 275 276 277 275 271 271
283 283 282 281 279 279 277 277 278 279 279 280 280 279 278 278 283 286 283 276 276 274 274 274 273 273 275 277 273 271 272 273 276 278 279 280 280 279 278 271 264 263 265
281 282 281 279 277 276 275 274 276 278 278 278 278 278 278 277 283 285 282 275 273 273 273 273 275 274 277 278 272 270 268 271 273 271 273 274 273 272 274 272 266 259 264
277 277 281 280 277 276 277 273 274 275 274 273 274 275 276 276 279 284 284 275 274 273 272 272 273 278 278 280 277 272 271 273 272 268 267 268 268 269 269 270 271 269 266
275 275 277 279 278 276 275 274 274 274 273 271 271 270 272 274 278 284 285 278 277 273 272 272 273 278 279 280 279 277 278 271 264 261 260 263 266 267 268 270 270 271 271
271 272 273 275 279 276 275 274 273 273 272 269 270 270 270 272 274 282 285 281 279 274 274 274 276 279 279 279 280 279 273 266 263 258 260 264 266 268 269 269 269 269 269
267 267 269 270 273 276 274 275 273 272 272 272 271 271 271 270 272 276 281 281 279 274 275 275 276 278 279 273 275 275 268 267 265 264 264 266 267 266 265 267 265 265 264
264 265 265 268 269 274 274 274 273 275 275 273 273 273 271 270 271 277 281 279 276 273 273 273 274 271 269 267 267 266 266 266 265 264 264 264 264 264 264 265 265 263 262
261 262 263 265 267 270 273 273 277 278 278 279 279 276 274 276 277 279 282 282 279 278 272 271 269 268 267 266 265 264 265 265 265 264 263 263 263 262 262 263 263 261 261
259 260 261 263 265 268 272 271 270 273 279 280 280 280 279 276 278 279 281 283 280 278 270 268 267 266 266 266 265 264 264 264 264 263 263 262 262 261 261 260 261 262 261
259 260 260 262 264 266 269 271 270 270 269 273 279 279 281 279 279 279 281 282 278 275 268 267 266 266 265 264 264 263 263 262 262 261 261 259 258 257 257 258 259 259 260
258 259 261 262 264 266 268 271 270 270 270 271 273 277 279 280 278 280 281 277 275 267 266 266 266 264 263 263 262 261 260 259 258 257 256 254 255 254 256 257 259 260 261
259 259 261 262 262 264 266 269 268 267 269 270 271 273 276 276 274 275 277 277 270 267 266 264 263 262 261 260 259 258 256 255 255 254 253 253 254 254 257 257 258 259 259
259 259 260 261 263 264 267 267 267 267 268 269 270 273 276 274 273 274 276 270 267 265 264 262 260 260 259 257 256 255 254 256 254 252 252 251 253 254 256 258 258 259 261
260 260 260 260 263 265 267 267 267 267 267 268 270 272 278 273 272 267 267 266 265 263 262 260 259 258 256 256 255 254 254 253 251 251 251 251 253 254 255 257 259 261 262
262 263 264 265 265 266 266 266 266 267 267 268 269 271 271 266 265 263 260 260 259 258 259 258 257 255 255 255 254 255 255 253 252 249 249 251 252 253 255 257 259 261 261
261 262 263 263 263 263 263 263 264 265 265 267 263 262 262 262 259 259 258 258 257 256 256 256 255 255 254 252 251 251 249 250 249 249 249 250 253 254 256 258 261 261 260
260 260 260 261 262 262 262 262 263 262 261 260 260 259 259 259 258 257 257 257 256 255 254 254 254 254 253 252 251 250 250 255 253 252 250 253 253 254 257 259 261 261 259
259 259 259 260 260 261 261 260 259 259 259 259 259 259 258 258 257 257 256 256 255 255 254 254 254 253 252 252 252 253 253 255 254 255 254 255 258 262 257 259 260 259 257

GFSGL_sfc_thetae_003.txt.gz
Theta_e
289 289 287 287 287 287 285 285 286 286 285 284 284 284 283 283 283 283 283 282 282 282 281 281 281 281 281 281 281 281 281 280 280 277 279 279 278 278 278 278 279 279 280
289 289 289 288 286 285 286 286 286 285 284 284 284 283 283 283 282 282 282 281 281 280 280 280 280 280 279 280 280 279 279 279 278 277 275 276 276 277 277 277 277 278 279
288 287 288 288 288 287 286 287 285 285 284 284 283 283 282 282 282 282 282 282 281 281 281 280 279 279 278 278 278 277 277 277 277 276 275 275 275 276 277 277 278 279 279
287 286 286 286 287 287 287 287 287 285 285 284 284 283 283 282 282 282 282 281 281 281 281 280 279 278 278 277 276 276 276 275 275 274 273 273 274 276 276 276 276 278 278
286 285 285 286 286 286 286 286 287 285 285 284 284 283 283 282 282 281 281 281 281 280 280 279 279 279 280 278 276 275 274 274 274 273 272 273 274 274 275 277 275 277 279
285 284 285 285 284 284 285 284 284 285 284 284 283 283 282 282 285 286 283 281 281 279 278 278 278 278 280 280 280 278 276 272 271 272 273 272 274 275 276 275 275 276 275
283 284 284 284 283 282 283 283 282 283 284 283 283 282 282 282 287 287 286 281 280 279 279 277 276 277 278 278 281 280 279 279 276 274 274 275 275 276 276 275 276 276 275
281 281 282 280 280 281 281 281 281 282 282 282 282 282 282 282 286 287 286 282 280 280 278 278 276 276 277 277 278 277 277 277 276 276 277 277 277 277 277 278 276 274 273
278 278 278 278 277 279 279 280 280 279 280 281 282 282 281 282 285 287 286 283 279 279 278 278 277 276 278 280 277 276 275 275 279 280 280 279 280 280 280 275 271 270 269
276 276 276 275 276 279 279 279 279 278 279 280 279 280 280 281 284 285 287 283 279 278 277 276 278 276 279 281 277 276 274 275 276 277 277 279 280 277 276 274 272 268 269
274 273 272 273 273 275 276 278 278 277 277 277 277 278 277 279 280 284 286 283 278 277 275 275 275 279 280 281 279 276 275 276 276 275 275 274 273 273 272 273 273 271 269
270 269 269 269 270 272 273 275 277 276 276 275 275 275 276 276 278 282 285 287 281 277 275 275 275 280 280 282 279 277 278 276 275 272 271 270 270 270 271 271 272 272 272
266 265 265 266 267 268 269 271 275 276 274 275 274 274 274 275 276 281 282 286 282 277 277 277 277 280 281 282 281 278 277 273 271 269 268 269 269 270 270 270 270 269 269
262 262 263 263 264 265 267 270 272 275 275 274 274 273 274 273 274 275 279 282 281 279 278 277 277 279 280 280 279 278 274 272 270 270 268 269 269 268 268 268 267 267 266
260 260 260 261 261 263 265 267 270 275 276 275 275 275 274 272 273 276 278 280 279 277 275 275 275 276 276 276 275 271 270 269 269 268 267 266 267 267 266 267 266 265 264
258 258 258 259 260 261 262 264 270 274 278 280 281 279 276 279 279 279 280 282 282 279 273 273 273 275 271 272 270 269 268 267 268 267 266 266 265 265 265 265 265 264 263
257 258 258 259 259 259 260 262 263 269 277 280 281 282 282 279 279 280 281 282 283 279 273 273 273 273 271 271 269 268 266 267 267 266 265 265 264 264 263 263 263 263 263
258 258 258 258 258 259 260 262 264 265 268 272 276 279 282 282 281 280 281 282 278 278 274 273 272 272 270 268 268 267 266 266 266 265 265 264 263 262 261 261 262 261 261
257 258 258 258 258 259 260 261 263 264 266 271 271 275 277 282 283 280 281 279 277 275 272 272 271 270 269 268 267 267 265 264 264 263 262 261 260 260 259 260 260 260 261
258 259 259 259 259 259 260 261 262 264 267 269 270 271 274 277 278 276 277 277 279 275 270 270 269 269 268 266 265 264 263 262 261 260 260 259 259 259 260 259 259 260 260
259 259 259 259 258 259 259 261 263 265 267 268 269 271 275 275 276 275 276 277 273 269 269 267 266 265 264 263 262 261 261 260 259 259 258 258 257 257 258 259 259 259 259
260 260 260 260 260 259 260 262 264 266 267 266 268 270 275 276 275 274 272 269 268 268 266 264 263 262 262 262 261 260 260 259 258 258 258 257 257 257 256 258 258 259 260
259 260 260 261 263 263 262 263 266 266 266 267 268 270 270 268 264 263 262 263 263 263 263 262 260 259 260 260 261 261 260 258 258 258 257 256 256 256 255 256 257 257 259
259 259 260 261 262 262 263 263 264 264 263 261 261 262 261 261 261 260 260 260 260 260 261 261 260 259 257 257 257 258 258 257 257 256 256 256 255 254 255 255 257 258 260
258 259 259 259 260 260 260 260 260 260 260 260 259 260 259 259 259 259 259 259 259 259 258 258 258 257 257 256 255 255 255 257 253 253 253 253 253 254 254 255 258 260 261
257 257 257 258 258 258 258 258 258 258 258 258 258 258 258 258 258 258 258 258 257 257 256 257 256 256 256 255 255 254 254 256 255 255 253 253 255 255 256 258 259 260 261

GFSGL_sfc_thetae_006.txt.gz
Theta_e
290 290 291 292 292 292 291 292 291 291 291 291 291 291 291 290 290 290 290 290 288 288 288 288 288 289 288 288 288 288 287 288 289 283 286 286 285 284 281 282 282 283 284
289 289 289 289 289 289 290 291 291 291 291 290 290 289 289 288 289 288 288 288 287 286 287 286 286 285 287 287 287 286 286 286 287 282 281 281 281 282 282 281 280 281 282
288 288 288 287 287 287 287 289 290 290 289 290 289 288 288 287 287 287 288 287 286 287 286 285 285 284 284 285 285 285 285 283 284 284 280 281 280 280 279 280 281 282 282
286 287 286 287 287 286 285 286 287 288 289 288 288 287 288 287 287 287 286 287 286 286 287 286 284 283 284 284 283 284 284 283 282 281 280 278 278 279 279 279 279 281 281
284 285 285 287 287 286 285 285 286 286 286 287 287 286 286 286 285 286 285 285 285 285 285 285 284 284 285 285 283 283 282 282 281 280 278 278 277 276 277 280 279 280 282
283 283 284 285 285 283 283 283 284 284 285 286 285 286 286 285 287 288 286 284 284 283 284 284 283 283 284 286 286 285 283 281 280 280 278 277 278 278 279 278 278 278 279
282 282 282 283 282 281 281 282 283 282 284 283 284 285 285 286 288 288 288 285 284 284 284 283 282 281 282 282 285 285 283 284 284 281 279 279 278 279 279 278 278 279 279
281 280 281 281 279 279 278 279 282 282 282 282 283 284 284 285 287 288 287 286 285 285 284 283 282 281 281 281 281 281 280 281 281 280 281 280 281 281 280 280 280 280 279
279 279 279 279 277 276 274 276 279 280 281 282 282 283 284 285 286 287 287 286 284 284 284 284 283 282 281 283 281 280 279 279 282 281 281 282 282 282 281 280 277 275 274
277 277 278 277 274 273 274 274 276 278 279 281 281 282 283 283 285 285 285 285 284 284 283 282 283 282 283 283 281 280 277 277 277 277 279 281 281 280 281 279 278 274 274
276 275 274 274 272 272 272 273 273 274 275 276 278 280 281 282 283 284 285 284 284 284 283 282 281 283 283 283 283 280 280 279 278 277 278 278 278 280 279 278 277 275 273
272 270 270 269 269 269 268 269 269 270 271 273 276 278 280 281 281 282 284 285 285 284 283 282 281 281 283 282 283 282 282 280 278 278 277 276 275 276 276 275 275 275 275
267 265 265 265 266 266 265 266 267 268 269 271 274 277 278 280 281 282 283 284 284 284 284 283 281 281 282 282 284 282 281 278 277 276 275 275 275 275 274 273 273 274 273
262 262 262 262 262 263 264 265 265 266 267 269 272 275 277 279 280 280 279 280 282 283 284 281 280 280 281 281 281 282 279 276 276 275 274 274 274 272 272 272 270 270 269
260 261 261 261 261 261 262 263 264 265 267 267 269 273 275 276 279 280 279 278 281 282 280 278 277 277 277 278 279 277 277 274 274 274 273 271 271 271 270 270 270 269 267
260 260 260 260 261 261 261 261 265 267 269 270 272 272 273 277 281 281 281 281 281 283 277 276 276 276 277 278 278 275 274 273 273 272 271 270 269 269 268 268 268 267 267
258 259 259 260 260 260 260 259 259 262 266 268 271 273 275 278 280 282 282 282 281 282 276 276 276 276 277 278 276 272 272 273 272 271 269 269 269 268 267 267 266 266 265
258 258 259 259 259 259 259 259 260 259 259 262 268 271 274 279 282 283 283 282 278 280 277 276 276 277 277 275 274 272 271 270 270 269 268 267 267 267 266 266 265 265 264
259 259 260 260 260 260 260 260 260 260 260 261 264 268 272 277 278 279 283 280 278 278 277 276 276 277 275 275 273 271 270 269 268 267 266 266 265 265 265 265 265 264 264
260 260 260 260 260 260 260 260 261 261 262 262 264 267 273 274 274 277 281 279 279 279 278 276 275 274 273 272 271 269 268 267 266 266 264 264 264 265 264 263 264 264 263
260 261 261 261 261 261 261 261 261 261 261 263 265 271 274 273 274 275 279 279 279 279 274 272 271 271 271 269 268 267 266 265 264 264 263 263 262 262 264 264 264 263 263
261 260 261 261 262 263 264 264 262 262 263 265 268 270 273 272 274 276 277 276 273 273 272 271 269 268 267 267 266 265 264 263 263 263 262 262 262 262 262 263 262 263 263
260 260 261 262 262 263 264 265 265 265 267 268 267 268 268 268 268 268 267 268 268 268 267 266 265 264 265 265 266 265 264 263 263 263 262 261 261 261 262 262 261 261 262
259 260 260 261 261 261 262 262 263 263 263 263 263 263 263 263 262 262 263 264 264 264 264 264 263 263 263 263 264 264 264 263 263 263 263 262 261 261 261 261 261 261 261
258 258 259 259 259 259 260 261 261 261 261 261 261 261 261 261 261 261 262 262 262 262 262 262 262 262 261 261 261 260 262 261 261 261 261 261 261 260 260 260 261 261 262
257 257 258 258 258 258 258 259 259 259 259 260 259 259 259 259 260 260 260 260 260 260 260 261 261 260 260 260 259 260 260 259 257 258 258 259 259 259 259 259 259 261 262

GFSGL_sfc_thetae_009.txt.gz
Theta_e
289 289 289 289 289 289 288 289 290 291 292 291 291 291 291 291 292 292 291 291 290 290 290 290 290 290 290 289 289 289 288 290 291 284 287 288 287 285 283 283 283 282 284
287 288 288 288 288 287 286 286 288 288 290 290 290 289 289 290 290 290 289 288 289 288 288 288 288 287 288 288 288 287 287 287 289 282 284 284 284 284 282 281 280 281 282
287 287 287 287 287 286 285 285 286 286 287 288 289 288 288 288 288 289 289 288 288 288 288 288 287 287 286 287 286 286 286 283 286 284 281 282 282 283 281 280 280 280 280
286 285 285 286 286 286 285 285 284 285 285 286 286 287 287 287 287 287 287 287 287 287 287 288 287 286 286 286 286 285 285 284 284 284 280 279 279 280 280 278 278 280 280
284 285 284 285 285 285 284 283 283 284 285 285 285 285 286 286 286 286 286 286 285 286 286 286 287 286 287 287 285 285 285 284 283 282 280 278 277 277 276 279 279 280 281
283 283 283 283 283 283 282 281 281 281 283 284 283 283 284 285 287 288 287 285 285 284 284 286 286 285 286 288 289 289 287 285 283 282 281 279 278 278 278 278 279 279 277
282 282 282 281 281 281 281 280 279 279 280 281 281 282 282 283 286 287 288 286 285 285 284 284 284 284 285 284 288 289 289 290 289 284 282 281 279 279 279 279 279 279 280
280 280 281 280 279 280 279 278 277 278 278 278 279 280 281 282 285 287 287 286 285 285 285 284 284 284 284 283 283 284 285 285 286 285 284 283 282 281 281 281 280 281 279
278 278 278 278 277 277 276 275 275 275 275 275 276 277 279 280 284 285 286 285 285 285 285 285 285 284 286 287 282 282 283 283 286 288 286 286 285 285 283 281 278 277 275
276 276 276 276 275 274 274 273 274 273 273 274 274 275 276 276 281 283 284 284 283 284 285 285 285 285 286 287 283 282 281 282 281 282 281 283 284 284 284 281 280 276 275
274 273 272 272 271 271 270 271 270 269 270 269 270 271 272 274 276 281 283 282 283 283 283 284 285 287 287 287 286 282 282 283 282 281 279 279 280 280 280 280 280 279 275
269 268 267 266 266 267 265 265 265 265 265 265 266 268 271 273 276 279 282 284 284 283 282 284 285 287 286 287 286 285 285 284 280 279 277 277 277 278 279 278 278 278 278
265 263 263 263 263 263 262 262 262 263 263 264 265 265 267 271 274 278 281 284 284 283 284 285 286 287 286 285 286 286 284 282 278 277 276 277 278 278 278 276 276 276 275
262 262 262 261 262 262 262 262 261 261 261 262 262 263 265 268 271 274 278 280 281 282 283 283 285 286 284 282 282 284 282 281 277 277 277 278 278 276 273 273 272 272 270
261 261 261 261 261 261 262 262 262 263 263 261 262 263 263 263 267 271 275 276 279 280 279 281 281 282 279 279 279 280 281 280 277 278 278 276 273 273 272 272 271 269 268
259 259 259 259 260 260 260 260 265 267 268 269 269 268 267 270 272 273 275 276 278 281 279 278 279 279 277 277 278 278 280 279 277 277 276 273 272 271 270 270 270 269 268
258 258 259 259 259 259 259 259 258 262 266 267 268 269 269 270 272 273 274 276 279 279 278 278 278 277 277 277 278 278 278 276 276 275 272 271 271 270 269 268 268 268 267
258 258 259 259 259 260 260 260 260 259 259 260 264 266 268 269 271 273 275 277 274 277 279 278 277 277 277 277 278 278 276 274 273 272 271 271 270 269 268 267 267 266 266
258 258 259 260 260 261 261 261 261 261 261 261 262 265 266 269 272 274 278 276 276 277 278 278 278 278 277 278 276 275 273 272 272 271 271 270 269 268 267 267 266 266 266
259 259 260 260 261 261 262 262 262 262 261 261 262 262 264 266 269 271 273 274 275 278 278 278 277 278 277 275 273 273 272 271 270 270 269 268 268 267 266 266 265 264 264
259 260 260 260 261 261 262 263 264 264 263 262 262 265 270 270 269 271 272 274 279 278 279 278 277 275 274 274 272 271 270 269 269 268 267 266 266 266 266 266 265 264 264
260 259 260 260 261 262 262 263 264 264 264 264 265 267 270 268 269 269 271 273 274 274 274 273 274 274 273 271 271 269 268 267 266 265 265 265 265 265 265 264 264 263 263
259 259 259 260 261 261 261 262 262 262 262 263 263 263 263 263 263 264 265 267 268 269 270 270 268 268 269 269 269 268 266 265 265 265 264 264 263 263 264 263 263 263 263
259 258 258 259 259 259 260 260 261 261 261 261 260 261 261 261 262 262 263 264 264 264 264 265 265 266 266 266 266 266 266 266 266 265 265 264 263 263 263 262 262 262 263
258 258 258 258 258 258 259 259 260 259 259 260 260 260 260 260 260 261 261 262 262 262 262 263 263 263 263 263 263 264 265 265 264 265 264 263 262 262 262 262 262 262 262
258 258 257 257 257 257 258 258 258 259 259 259 259 259 260 260 260 260 260 260 260 260 261 261 261 261 261 261 261 263 263 263 262 263 263 262 261 261 261 261 260 261 261

GFSGL_sfc_thetae_015.txt.gz
Theta_e
282 282 283 282 283 282 281 281 281 281 281 282 282 282 283 283 283 283 283 284 283 284 284 284 285 285 287 289 285 286 287 283 287 285 281 282 285 286 285 284 283 284 285
282 281 281 282 282 281 281 280 280 279 280 280 281 281 282 282 282 282 283 284 283 284 284 284 284 286 284 286 286 286 287 285 287 286 280 281 283 286 284 283 282 282 282
281 280 280 280 279 279 279 280 280 280 279 279 279 279 280 281 281 282 282 283 283 284 285 285 285 285 284 285 285 285 287 286 284 283 281 279 281 284 280 282 280 280 280
279 279 278 278 278 278 279 278 279 279 278 278 278 279 279 280 280 281 282 282 282 283 284 285 285 284 285 285 285 285 286 286 285 283 279 278 279 280 282 280 278 279 279
279 279 278 278 279 279 278 279 278 278 278 278 277 277 277 277 278 279 280 280 281 282 283 284 284 285 286 287 285 285 286 285 285 285 283 277 277 278 280 280 280 280 280
278 278 278 278 279 279 278 278 278 278 277 277 277 277 276 277 280 281 281 279 279 280 280 282 283 284 285 288 289 290 288 285 285 285 284 282 281 282 282 280 280 277 276
275 274 275 276 276 276 277 276 275 275 275 275 275 275 275 275 279 280 280 278 277 277 278 280 281 283 283 284 286 289 289 290 291 286 285 284 283 283 282 281 281 280 281
274 273 273 274 273 273 273 272 272 272 272 272 272 272 272 273 277 278 278 276 275 276 276 278 279 280 282 283 283 283 284 286 287 288 288 287 287 284 283 284 282 282 280
274 274 273 271 269 269 268 268 268 268 268 268 269 268 268 268 273 273 273 271 272 272 274 275 276 277 281 284 283 282 282 283 287 289 290 291 291 291 285 283 281 279 277
272 271 270 269 266 266 266 265 265 265 265 266 265 265 265 264 269 270 271 269 268 269 270 272 275 276 279 282 280 281 280 281 283 284 285 288 289 289 289 283 283 279 280
269 268 266 266 264 264 263 264 263 262 263 262 262 263 263 264 264 269 270 269 268 268 269 270 273 276 278 280 282 282 282 284 284 283 283 284 285 286 286 285 283 282 281
265 263 263 261 261 263 261 261 261 260 260 260 260 261 262 264 266 268 270 271 271 268 267 269 271 275 277 279 280 283 286 286 284 282 282 282 282 284 285 285 284 284 284
259 258 258 260 261 261 259 259 259 259 259 259 260 260 261 263 264 268 269 270 270 268 268 269 272 273 275 276 280 282 283 283 283 283 281 281 282 284 284 283 283 283 282
254 258 260 260 260 259 260 260 259 258 258 259 259 259 261 263 265 267 267 265 267 268 268 267 269 271 273 275 274 280 281 282 283 283 282 282 282 282 282 281 279 278 278
258 260 260 260 259 259 260 259 260 261 262 262 264 265 264 264 266 271 272 270 270 271 269 267 267 269 269 270 271 279 280 281 281 283 282 281 280 280 279 280 279 277 276
258 259 259 259 259 259 259 259 264 266 268 269 270 269 268 271 272 273 274 275 275 276 271 267 267 267 267 268 270 273 276 278 280 282 281 281 279 278 278 277 278 275 275
255 258 258 259 258 258 258 257 257 261 267 268 269 270 271 272 273 273 274 275 276 275 270 267 266 267 268 269 271 273 276 278 281 281 281 279 278 277 277 276 275 274 274
252 257 257 257 257 258 258 258 259 258 258 260 265 268 270 270 271 273 274 273 269 270 269 268 267 267 268 269 271 273 277 278 279 280 280 279 278 277 276 274 274 272 273
255 257 257 257 257 258 259 259 259 259 260 260 261 264 265 268 270 270 269 264 264 265 267 269 269 268 269 270 272 274 275 276 277 279 277 278 277 275 274 274 273 273 272
253 257 258 257 257 257 258 258 259 259 259 259 259 259 261 264 260 260 261 262 263 263 264 266 271 273 271 271 272 276 276 276 276 277 277 276 275 275 273 272 271 271 270
255 257 256 256 255 256 257 257 257 258 258 258 258 260 267 261 259 260 260 261 261 262 263 265 267 273 275 276 276 276 276 275 275 274 274 273 273 272 272 272 271 271 269
255 254 254 254 255 256 256 256 256 257 257 258 258 260 265 260 259 259 259 260 261 262 263 263 265 266 267 270 273 273 273 272 272 272 271 271 271 270 269 269 269 268 268
254 253 254 253 254 255 255 255 255 256 257 257 258 258 259 259 259 259 259 259 260 260 261 262 262 263 266 267 268 269 269 268 269 270 269 268 268 268 268 267 267 266 266
253 252 252 251 250 253 253 254 254 255 256 256 257 257 258 258 258 259 259 260 260 260 260 261 262 262 263 265 266 266 267 268 268 268 268 268 267 267 266 266 266 266 265
252 251 250 249 248 250 251 252 254 254 255 256 256 256 257 257 258 258 259 260 260 260 260 261 262 263 263 264 264 265 267 267 267 267 267 267 266 266 265 265 264 265 264
252 251 248 248 247 247 248 250 251 252 253 254 255 255 256 256 257 258 258 259 259 259 260 260 261 262 263 264 266 266 267 267 266 266 266 265 264 264 264 264 264 264 263

GFSGL_sfc_thetae_018.txt.gz
Theta_e
281 280 281 281 280 280 280 279 279 279 279 279 280 280 280 280 280 280 280 280 280 281 282 282 282 283 284 284 284 285 286 287 285 288 282 282 282 285 285 287 287 286 289
281 280 280 279 279 279 278 279 279 279 279 279 279 278 278 278 279 279 279 279 279 280 281 281 282 284 282 282 283 284 284 285 286 285 288 281 281 283 285 285 285 285 285
280 279 279 278 278 278 278 278 278 278 278 278 278 277 278 278 278 278 278 278 279 280 280 280 281 281 282 283 284 284 284 285 285 284 284 282 281 281 281 283 284 283 283
279 279 278 277 278 278 278 277 277 277 277 277 277 277 277 277 277 277 277 277 278 279 280 280 281 281 281 282 283 284 285 284 285 284 283 283 279 280 282 282 281 281 280
279 278 278 278 278 277 277 277 277 277 277 276 276 276 276 276 277 277 278 277 277 277 278 279 279 281 284 285 283 282 283 284 284 284 283 284 280 278 280 281 282 281 281
278 276 277 276 276 276 276 276 275 275 274 274 274 274 274 275 278 279 279 276 276 276 276 277 278 278 280 283 285 288 286 283 282 284 284 283 283 281 283 282 281 280 279
274 272 273 274 274 274 273 273 272 271 272 271 271 271 271 272 275 276 277 275 274 274 274 275 276 277 278 278 282 284 285 287 289 285 284 284 284 285 283 282 281 282 282
273 271 271 272 270 270 270 269 269 269 269 268 268 268 268 269 273 273 273 272 271 271 271 272 272 273 274 275 276 277 280 281 283 284 287 286 287 287 285 284 284 283 284
272 272 271 269 267 268 265 266 267 266 266 265 266 266 265 265 270 271 271 269 269 269 270 270 270 270 273 275 274 273 275 277 284 287 288 289 291 292 290 285 282 281 280
271 270 269 268 263 264 265 264 264 264 264 265 264 264 264 262 267 269 270 268 266 267 268 270 272 272 274 276 274 273 272 274 277 280 282 284 288 288 291 288 284 281 280
268 267 266 265 263 263 262 263 262 261 262 261 261 262 262 263 263 268 270 269 267 266 266 268 270 272 273 274 275 273 273 276 277 279 281 282 282 284 285 288 287 284 282
264 263 262 260 261 263 260 260 260 259 259 259 259 260 262 263 266 268 270 271 272 268 267 268 269 272 273 274 274 275 276 276 276 277 279 280 281 282 283 285 286 285 286
259 256 256 258 260 260 258 259 258 259 258 258 259 259 260 262 263 268 270 271 272 269 269 270 273 275 275 274 274 273 273 271 272 273 277 279 282 283 283 283 285 286 285
251 255 258 257 258 258 260 260 259 258 258 259 259 259 262 265 266 267 267 268 270 271 271 269 271 273 274 273 271 272 271 271 271 271 275 280 283 282 282 283 282 283 282
254 258 257 258 256 258 259 259 260 261 262 262 264 265 265 264 266 271 272 271 272 273 273 273 272 266 264 265 266 268 269 269 270 271 276 278 281 281 281 282 282 281 279
256 258 258 258 258 259 258 258 264 266 268 269 271 270 268 271 272 274 274 274 275 276 272 270 270 270 269 268 267 267 268 269 271 272 277 279 280 281 280 281 280 280 276
251 256 257 258 257 257 257 257 256 260 266 267 268 269 270 271 271 272 273 274 273 271 264 265 266 268 269 269 268 267 268 270 272 275 277 279 279 279 279 279 278 278 276
249 255 255 256 256 256 256 257 257 257 257 258 264 266 268 268 269 271 270 269 260 262 263 263 263 264 265 268 267 267 269 270 271 274 276 278 279 279 277 278 276 276 275
251 253 253 254 256 257 257 257 257 257 258 258 259 262 262 266 268 267 267 260 260 260 261 262 263 264 267 269 269 268 269 270 272 275 277 279 279 278 277 277 276 276 275
249 253 255 253 255 255 256 256 256 256 256 257 257 258 259 263 258 259 259 259 259 259 260 261 262 263 266 268 270 270 270 271 273 275 276 276 277 278 277 276 275 274 274
248 249 253 251 252 253 254 255 255 255 255 256 257 259 267 260 258 258 258 259 259 259 259 260 260 262 264 265 267 272 272 273 275 276 277 276 276 275 276 275 274 274 273
248 247 248 249 254 254 253 254 254 254 255 255 256 258 264 258 258 258 259 259 260 260 260 260 260 262 263 264 265 266 268 269 270 271 272 272 273 273 273 272 272 272 270
248 249 250 253 254 253 252 250 251 252 253 254 255 256 256 256 257 257 258 259 260 260 261 261 261 262 263 264 265 266 265 265 267 269 269 268 269 269 270 269 269 268 268
249 250 253 254 253 251 250 251 251 252 252 253 252 254 255 255 256 256 257 258 259 260 260 261 261 262 263 264 265 265 266 267 267 268 268 267 266 267 267 267 268 267 267
251 254 254 253 250 249 248 248 249 247 248 250 251 252 253 253 254 254 255 256 258 259 259 260 261 262 263 265 265 265 266 266 266 267 267 267 266 266 266 266 266 266 266
254 254 254 252 250 249 247 246 246 247 248 250 251 251 252 252 253 253 254 255 256 257 258 259 260 260 262 265 266 269 269 268 266 266 266 266 265 265 265 265 265 264 264

GFSGL_sfc_thetae_021.txt.gz
Theta_e
280 279 279 279 279 279 278 278 278 278 278 278 278 278 277 277 277 277 277 278 277 278 278 278 279 280 280 281 281 282 284 284 283 285 286 284 282 283 284 286 287 288 289
279 278 279 278 278 278 277 278 278 277 278 278 278 278 277 277 277 276 276 276 276 276 277 278 278 280 279 279 280 281 281 283 282 281 285 285 281 282 283 284 285 287 287
279 278 278 278 277 277 277 278 278 277 277 277 277 276 276 276 276 276 276 276 276 277 277 277 278 278 278 279 278 280 281 283 283 282 282 284 284 281 281 282 283 285 285
278 278 277 277 277 277 277 276 276 276 275 275 275 275 275 275 275 276 276 276 277 277 277 277 277 277 277 278 279 279 280 280 281 281 281 282 283 283 281 282 281 283 283
277 277 277 277 277 276 275 275 275 274 274 274 273 273 273 274 275 275 275 275 275 275 275 276 277 277 280 280 279 278 279 279 279 279 280 281 281 278 280 282 282 283 282
277 276 276 275 275 274 274 273 273 272 272 272 271 271 271 272 275 276 276 274 274 273 273 274 274 275 276 279 280 281 281 278 279 280 280 279 280 282 282 283 282 281 279
274 271 271 273 272 272 271 271 270 269 270 269 269 269 268 269 273 274 275 272 271 271 271 271 272 273 273 273 275 277 278 279 281 279 280 281 281 282 283 281 282 283 283
272 270 270 271 269 269 268 268 268 268 267 267 267 266 266 268 272 272 273 271 270 270 269 270 270 270 271 271 271 271 272 273 275 276 277 279 282 283 284 284 283 283 284
272 271 270 268 266 267 264 265 265 265 265 264 265 265 264 264 269 271 271 269 268 268 269 269 269 269 272 274 272 271 271 272 276 278 279 280 282 284 286 284 283 281 280
271 270 269 267 263 262 264 263 264 262 264 264 264 264 263 262 267 269 270 268 266 267 268 269 271 271 273 275 272 270 268 270 271 272 274 276 278 279 283 285 284 282 281
268 267 266 265 262 262 261 262 261 260 262 260 261 261 261 262 263 269 271 269 268 267 267 268 270 273 274 275 275 272 271 272 273 272 272 272 275 277 279 282 283 283 283
265 265 263 259 260 261 255 258 257 258 257 258 258 259 261 263 266 268 270 272 272 269 268 269 270 273 275 276 275 276 277 277 274 272 270 270 272 275 277 280 283 284 285
261 260 256 257 259 259 254 257 258 256 256 258 259 259 260 263 264 268 271 272 273 271 271 272 275 276 277 276 276 276 274 271 270 268 267 268 270 272 276 279 282 283 284
258 259 258 257 257 257 259 260 258 257 257 258 258 259 261 265 267 268 268 268 271 272 273 272 274 276 277 276 273 274 272 272 271 270 269 270 271 271 272 275 279 280 281
258 259 257 256 255 257 258 259 259 260 261 261 264 265 265 264 266 272 272 271 271 272 273 271 268 268 267 268 270 269 269 269 268 268 268 268 269 269 270 273 279 280 279
258 259 257 257 257 258 258 258 263 267 269 270 271 270 268 271 272 273 273 274 275 274 268 263 262 263 264 265 265 266 269 268 268 268 268 268 268 269 271 274 279 280 279
255 256 256 257 256 256 256 256 255 259 266 267 268 269 269 270 271 272 273 272 271 268 259 260 260 261 262 263 264 265 265 269 270 269 269 269 270 271 272 275 276 279 279
251 254 253 254 254 253 254 255 255 255 255 257 262 265 267 268 270 270 269 265 258 259 259 258 259 260 261 262 263 265 268 269 268 269 269 270 272 273 276 276 278 279 279
251 253 252 252 252 254 255 255 255 255 256 256 257 260 261 265 268 266 266 256 257 257 258 258 259 259 260 261 263 265 267 269 268 269 270 271 273 275 277 277 277 276 277
249 252 253 251 251 251 253 253 254 255 255 255 255 256 258 261 257 257 257 258 258 258 258 259 259 260 260 261 262 264 265 268 270 270 271 273 274 275 276 277 278 276 276
249 248 252 250 247 248 250 251 254 255 254 253 254 257 265 259 255 256 256 257 258 258 259 259 260 260 261 262 263 263 264 265 267 269 271 274 276 276 275 275 275 276 276
249 249 245 247 249 250 249 252 254 254 252 253 254 256 263 256 255 255 256 256 257 259 260 260 260 261 262 262 263 263 264 264 265 266 268 268 269 271 272 272 273 274 273
249 248 247 247 248 250 250 251 253 251 250 251 252 253 253 253 253 254 254 255 256 257 259 260 260 260 262 263 265 265 264 264 265 266 266 266 266 266 266 267 267 268 269
247 248 249 248 248 249 251 253 252 252 251 250 249 249 252 252 252 252 253 254 255 255 257 258 259 260 261 262 265 267 266 267 266 266 266 266 265 266 267 266 267 267 268
245 247 249 249 247 251 252 252 251 247 247 248 248 247 249 250 251 251 252 253 254 254 255 257 259 259 260 260 263 266 268 267 266 266 265 265 264 264 265 266 266 267 267
252 250 249 249 250 251 252 250 249 248 248 248 248 247 248 249 250 251 251 252 252 253 253 256 257 257 258 260 262 268 268 270 266 266 265 265 264 264 264 264 264 265 265

GFSGL_sfc_thetae_024.txt.gz
Theta_e
279 278 278 278 277 277 277 277 277 277 277 277 277 277 277 276 276 275 275 276 275 275 276 276 277 277 278 278 279 279 279 279 278 280 283 285 284 284 286 285 285 286 287
278 278 278 277 277 277 276 277 277 277 277 277 277 277 276 276 276 275 275 275 274 275 275 276 276 278 276 277 277 277 278 279 278 277 280 281 282 284 283 283 285 285 285
278 277 277 277 277 276 277 277 277 276 276 276 275 274 274 274 274 274 275 275 275 275 276 276 276 276 276 276 276 276 277 279 278 278 278 281 282 283 282 282 282 284 284
278 277 277 277 276 276 276 276 275 275 274 273 273 273 273 273 273 274 275 274 274 274 275 275 275 275 275 275 276 276 277 277 278 278 278 278 280 281 280 281 281 281 283
277 277 277 277 276 275 274 274 273 273 273 272 272 271 272 272 273 274 274 273 273 273 273 274 274 274 276 276 275 275 276 275 276 276 276 277 278 279 279 281 280 282 282
277 276 276 275 275 273 273 272 272 271 271 270 270 269 269 271 274 275 275 273 272 271 271 271 272 272 273 275 276 277 276 274 273 274 275 276 277 279 281 280 280 280 279
275 273 272 272 272 271 270 270 270 269 269 268 268 268 267 268 273 274 274 272 271 270 270 270 270 271 271 271 272 274 274 275 276 274 272 273 274 276 278 279 281 280 280
273 270 270 270 269 269 268 267 267 267 266 266 266 266 266 267 272 273 273 271 269 269 269 269 269 269 270 270 270 271 271 272 273 274 273 273 273 274 275 276 277 280 282
272 271 270 268 266 266 263 264 265 264 264 263 265 264 263 264 269 271 271 269 269 268 269 269 269 269 271 274 272 271 271 272 275 277 277 278 279 279 279 277 275 275 275
271 271 269 267 263 262 264 263 263 261 264 264 264 263 263 262 267 270 271 269 267 268 268 269 272 272 274 275 273 271 269 270 271 271 272 274 275 275 277 275 274 272 274
269 267 266 265 262 262 261 261 259 258 262 259 260 261 261 262 262 269 271 270 269 268 269 270 271 274 275 276 276 273 272 274 274 273 272 272 273 273 273 274 275 274 273
266 265 264 261 262 261 255 256 255 255 255 256 257 259 261 263 266 269 272 273 274 270 269 270 271 275 276 278 278 278 279 278 274 272 271 270 270 271 272 273 274 275 277
262 262 260 261 261 261 256 258 256 253 254 257 259 259 260 263 264 270 272 273 274 272 272 273 276 276 277 276 275 276 274 273 272 271 270 270 271 272 272 272 272 273 273
257 260 261 260 260 260 261 260 255 254 256 258 258 258 260 263 267 267 268 270 273 272 273 272 273 272 272 271 268 269 269 269 269 269 269 271 272 272 271 271 269 269 269
258 261 260 260 259 259 259 258 259 260 260 258 259 262 265 264 266 272 273 271 271 273 271 266 263 262 262 263 264 265 265 266 266 268 268 268 269 269 269 270 269 269 267
259 260 260 260 260 259 258 258 263 267 269 270 272 271 268 271 272 273 273 274 274 271 264 258 258 259 260 261 261 262 263 264 265 267 267 268 267 268 268 269 269 268 267
256 260 259 259 258 257 256 256 255 259 265 267 268 269 269 270 271 272 272 272 268 265 254 256 257 258 259 260 260 261 261 263 266 267 268 268 269 269 268 269 270 270 269
257 259 257 257 256 254 254 254 254 254 253 255 261 264 267 268 269 270 269 264 256 257 250 255 256 258 258 259 260 260 261 262 264 266 268 268 268 269 269 269 271 274 271
256 256 256 255 254 254 254 254 254 254 254 254 255 259 260 264 266 266 265 250 254 256 257 257 258 258 259 259 260 261 261 262 264 265 266 269 269 269 270 271 274 275 276
254 256 256 252 251 251 253 253 253 253 252 252 253 255 256 256 251 251 250 250 252 256 257 257 258 259 259 260 260 261 262 263 263 264 265 266 268 271 272 273 274 275 276
252 251 253 249 249 249 249 250 252 251 252 251 254 257 264 258 253 253 253 252 252 254 256 257 258 259 259 260 261 261 262 263 264 264 264 265 266 267 269 271 274 275 274
250 249 246 248 249 249 249 251 251 251 251 253 255 256 261 254 254 253 253 252 253 254 255 256 257 258 259 260 261 261 262 264 264 264 264 265 266 266 267 268 270 270 270
252 252 251 249 248 249 248 248 249 249 251 253 253 253 252 250 250 250 251 252 252 253 254 255 255 257 258 260 261 262 262 264 266 265 264 264 265 266 266 267 267 268 267
250 251 252 250 247 248 249 249 250 252 253 253 250 249 250 251 248 248 250 251 252 252 253 254 255 255 256 257 259 261 262 265 267 265 264 264 264 265 265 265 266 267 268
245 248 249 249 248 250 250 251 253 253 252 251 250 248 249 248 248 248 249 249 251 251 252 253 254 254 255 255 256 258 261 265 265 265 264 264 264 264 264 264 265 266 266
252 252 253 252 251 251 251 253 253 253 252 251 249 248 248 248 248 249 249 249 250 251 251 252 253 252 253 255 256 260 262 268 267 265 263 263 263 263 264 264 264 264 264

GFSGL_sfc_thetae_027.txt.gz
Theta_e
281 280 280 279 279 279 279 279 279 279 279 279 278 278 278 277 278 277 277 278 277 277 278 278 278 279 279 279 280 280 279 280 278 280 283 284 284 284 286 288 289 289 290
280 280 280 279 279 279 279 279 279 278 278 278 277 277 276 276 276 276 276 276 276 276 277 277 277 278 277 278 278 277 278 279 278 276 279 281 282 284 285 285 285 287 288
279 279 279 279 278 278 278 278 278 277 277 276 276 275 275 275 275 275 276 275 275 275 275 275 275 275 275 276 276 276 277 277 278 277 276 280 281 283 282 284 285 286 287
279 279 278 278 278 278 278 277 276 276 275 274 274 274 273 273 274 275 275 275 275 275 275 275 274 274 274 274 275 275 276 276 276 276 276 277 278 280 281 281 281 284 284
279 278 278 279 278 277 276 275 274 274 273 273 272 272 272 272 274 275 275 275 274 273 273 273 273 274 275 275 274 274 274 274 274 273 274 275 276 277 277 281 281 282 284
279 279 278 278 276 275 274 274 273 272 271 271 270 270 269 271 273 276 276 274 273 272 271 272 272 272 273 274 275 275 275 273 271 272 272 272 273 274 276 276 277 277 276
277 275 275 275 275 273 272 271 271 270 269 269 269 268 268 268 273 275 275 273 272 271 270 270 270 271 271 271 272 273 274 274 275 274 272 272 272 273 273 273 273 274 274
276 275 273 273 272 270 269 269 268 268 268 267 267 267 267 268 272 273 274 272 271 270 270 270 270 270 270 271 271 272 272 273 273 274 274 274 274 275 275 275 275 275 276
275 274 273 271 269 268 266 267 267 266 266 265 267 265 265 265 269 272 273 271 270 269 270 271 270 270 272 274 273 273 273 273 276 277 278 279 279 279 279 277 274 273 271
274 274 271 269 266 265 266 265 265 264 266 265 265 264 263 263 267 270 272 271 269 270 271 271 273 273 275 276 274 273 271 272 274 274 274 276 277 277 278 277 275 271 271
271 270 268 267 265 265 263 264 262 262 263 260 262 262 262 263 264 270 272 271 271 270 271 271 272 275 276 277 278 276 275 277 277 276 276 276 276 275 275 275 275 274 272
268 267 265 263 265 263 259 260 259 259 259 259 259 261 263 264 267 269 272 274 275 272 271 272 273 276 278 278 276 276 277 276 273 271 271 272 273 274 274 275 276 276 276
265 263 261 261 262 261 258 260 261 259 259 259 261 261 262 265 265 269 272 273 274 273 273 274 276 275 274 272 272 273 272 269 268 267 268 269 271 273 274 275 275 275 275
261 262 261 260 261 260 262 262 260 259 260 260 259 260 261 263 265 268 269 270 273 273 274 270 270 268 268 268 266 267 267 267 266 266 266 268 270 270 270 272 271 272 271
261 262 262 261 260 262 262 262 262 262 261 257 258 260 261 263 267 272 273 272 273 273 269 263 261 261 261 262 263 263 264 265 264 265 266 266 267 268 269 271 271 270 269
261 261 261 261 260 261 261 261 264 267 269 271 272 271 270 272 272 273 274 274 274 271 261 258 258 259 259 260 260 261 262 263 264 264 264 266 266 268 269 270 270 270 269
260 261 261 261 260 259 259 259 258 261 265 267 268 270 271 270 272 272 273 273 268 266 257 257 257 258 259 260 260 261 261 262 263 263 264 265 266 268 269 269 269 270 269
254 259 258 258 258 258 257 257 257 256 254 256 261 264 266 269 269 270 270 265 257 257 255 256 256 258 259 259 260 260 261 262 262 263 264 265 266 267 267 269 269 269 270
255 256 256 256 256 256 257 256 256 255 255 254 255 259 260 264 267 267 265 256 254 255 256 256 257 258 259 259 260 260 261 261 262 263 264 265 265 266 266 268 269 270 272
252 256 255 254 254 254 255 254 255 254 254 253 254 255 255 255 256 256 254 253 253 254 255 255 256 257 258 259 260 260 261 261 262 263 264 265 265 266 265 266 267 268 270
251 251 254 252 253 251 252 254 255 253 253 253 253 256 262 262 257 255 253 253 253 253 254 254 255 256 257 258 259 260 260 261 262 263 265 265 265 264 265 267 267 268 270
248 249 250 250 252 252 252 253 253 252 253 253 254 255 262 257 256 254 254 253 253 253 253 254 254 255 256 257 258 259 259 260 261 263 265 264 264 265 265 266 267 268 269
251 252 250 249 251 251 251 251 251 251 251 251 253 254 254 254 253 253 252 252 252 252 253 252 253 254 255 256 257 258 258 259 261 262 264 264 264 264 265 265 266 267 268
249 248 249 249 250 252 253 253 252 252 252 252 251 251 253 253 252 251 251 251 251 252 252 252 253 253 253 254 256 257 257 259 261 263 265 264 263 264 264 264 265 266 267
244 246 248 249 248 249 249 252 253 253 252 253 253 253 253 251 250 250 250 249 250 251 251 251 252 253 253 253 253 254 256 258 262 266 264 263 263 262 263 264 264 265 265
246 247 249 252 253 253 252 253 253 254 254 254 254 253 252 250 250 250 249 248 249 250 250 251 252 251 252 254 254 257 259 263 268 265 262 262 262 262 262 262 263 264 264

GFSGL_sfc_thetae_030.txt.gz
Theta_e
286 286 285 285 285 285 285 285 284 284 283 283 282 282 281 281 281 281 281 281 280 281 281 281 281 281 281 282 282 282 281 281 279 281 283 284 284 284 286 287 288 288 289
286 285 285 285 285 285 284 284 284 283 282 282 281 280 280 279 279 279 279 279 279 279 279 279 279 279 279 280 280 279 279 280 278 277 280 281 282 283 284 284 285 285 287
285 285 284 284 284 284 284 283 283 282 281 280 279 279 278 278 278 278 278 278 278 278 278 278 278 278 277 278 277 277 278 278 278 277 277 279 280 281 282 282 283 284 286
285 284 284 284 284 284 283 282 281 280 279 278 278 277 277 277 276 277 278 278 278 278 278 277 277 276 276 276 275 276 276 276 276 276 276 276 277 278 279 279 280 283 283
284 284 284 284 284 283 282 281 279 278 278 277 277 276 275 275 276 277 278 278 277 277 277 276 276 276 275 275 275 275 275 274 274 273 273 274 274 275 274 276 276 278 279
284 283 284 283 282 281 280 278 277 277 276 275 275 274 273 274 274 276 277 276 276 275 274 275 275 274 275 275 275 276 275 274 272 273 272 272 273 274 276 275 275 274 273
283 283 282 282 281 280 278 277 276 275 275 274 273 273 272 273 273 275 276 275 275 275 273 273 273 274 274 273 274 275 275 276 276 275 273 273 273 274 275 274 274 274 274
283 282 281 281 280 278 276 275 275 274 273 273 272 272 272 272 272 274 275 275 274 274 273 273 272 273 273 273 273 274 274 275 275 275 275 275 276 277 276 276 276 276 277
281 281 280 280 278 276 274 274 273 273 272 272 271 271 270 270 271 273 273 274 273 273 273 273 273 273 274 276 275 274 275 275 278 279 279 280 280 281 280 278 276 275 274
281 281 280 279 276 274 274 272 273 272 271 271 270 270 268 267 269 271 273 274 272 273 274 274 275 275 276 277 276 275 274 275 277 277 278 278 279 279 279 278 277 273 273
280 278 277 276 274 273 272 271 270 269 269 268 267 268 267 267 268 271 273 273 273 273 274 274 274 276 277 278 279 276 274 276 275 274 275 275 275 276 277 278 278 276 273
277 275 274 272 272 270 269 268 267 267 266 266 267 268 269 268 269 271 273 274 275 274 273 274 275 277 276 276 275 275 275 274 272 271 271 271 272 273 274 275 276 277 278
273 272 270 269 270 268 267 267 267 267 267 268 268 268 269 269 270 271 272 273 275 274 274 275 275 274 272 271 271 272 270 269 268 268 268 269 270 272 272 272 274 275 276
271 270 268 267 267 266 268 268 268 268 268 268 268 268 268 269 270 271 272 273 274 275 275 271 270 269 269 269 267 268 267 267 266 266 267 268 269 270 270 271 271 272 272
271 269 269 269 267 268 268 269 268 269 269 268 267 268 268 269 270 273 274 273 274 275 271 268 266 265 265 266 266 266 266 266 265 266 266 266 267 268 269 271 271 272 270
270 269 270 269 268 268 268 267 269 270 271 272 273 273 272 273 274 273 274 275 275 272 268 264 263 264 263 264 264 264 265 265 265 265 265 266 266 266 267 269 270 271 270
271 270 269 267 268 267 266 266 266 267 268 269 270 271 271 272 272 272 273 273 270 267 264 262 262 262 262 263 263 264 263 265 265 265 265 265 266 266 266 267 268 269 270
267 265 268 268 267 267 266 265 265 264 263 264 265 266 267 269 271 271 271 270 264 263 261 261 261 261 262 262 263 263 263 264 264 264 264 265 265 266 266 266 267 267 268
265 265 265 265 264 264 264 263 263 262 262 261 262 263 263 264 266 268 267 263 261 260 260 260 261 261 261 261 262 262 262 262 263 263 264 265 266 266 266 266 267 266 267
261 260 261 263 262 262 262 261 261 261 260 260 261 261 262 260 261 262 262 260 259 259 259 259 260 260 260 260 261 261 261 262 262 263 264 265 266 267 266 265 266 266 267
261 261 259 260 260 260 260 259 260 260 259 259 260 261 263 261 263 262 261 260 260 259 259 259 259 259 259 259 260 260 260 261 262 262 263 265 265 265 266 266 266 267 267
259 259 258 258 259 259 259 259 259 259 259 258 259 260 263 262 262 261 260 259 259 258 258 257 258 258 258 258 259 259 259 259 260 262 263 263 264 266 266 266 266 266 267
257 258 258 258 257 257 257 257 257 257 257 258 258 258 259 259 259 259 259 258 257 257 257 257 257 257 258 258 259 259 258 258 260 261 260 262 264 265 265 265 265 265 266
258 258 258 258 258 257 257 257 258 257 256 257 257 257 257 258 258 258 257 257 256 256 256 256 256 256 256 256 258 259 259 259 260 260 261 263 265 265 264 264 265 265 266
257 257 257 257 256 256 256 257 257 257 257 257 257 258 258 258 257 257 256 255 254 254 255 255 255 256 255 255 255 256 256 257 258 261 264 266 265 264 264 264 264 264 265
257 256 256 256 256 256 257 257 257 257 257 258 258 258 258 257 256 256 255 254 254 254 254 255 255 254 254 255 256 257 258 261 262 266 266 266 264 264 264 264 263 264 264

GFSGL_sfc_thetae_033.txt.gz
Theta_e
288 287 287 287 287 287 287 286 286 286 285 284 284 284 283 282 282 282 282 281 281 281 282 281 281 282 281 281 281 281 281 280 277 279 281 282 282 282 283 283 284 283 284
287 287 287 286 286 286 286 286 286 285 285 283 283 282 281 281 281 280 280 280 280 279 280 280 279 280 279 279 279 279 278 279 277 275 278 278 279 280 280 280 282 283 283
287 287 286 286 286 286 286 285 285 284 283 282 281 280 280 280 279 279 279 279 279 279 279 279 278 278 277 278 277 277 277 277 277 276 275 277 278 278 277 278 279 280 282
287 286 286 285 286 286 285 284 284 283 282 281 280 279 279 278 278 278 278 279 279 279 279 279 278 277 276 276 275 275 276 275 275 274 274 274 275 276 277 275 275 277 277
286 285 285 286 286 286 284 283 282 281 281 280 279 278 278 277 277 277 278 278 278 278 278 277 277 277 277 276 275 275 275 273 273 272 272 272 273 273 273 275 274 275 276
286 285 285 285 284 283 282 282 280 279 278 278 277 276 276 276 277 276 277 277 277 276 276 276 276 276 276 277 277 277 276 273 271 271 272 271 272 273 274 274 274 273 271
284 284 283 284 282 282 281 280 279 278 278 277 276 275 275 275 276 276 277 276 276 276 275 275 274 275 275 274 275 276 276 277 278 275 273 273 273 274 274 273 273 273 273
284 283 283 282 281 281 280 278 278 278 276 275 275 275 274 274 276 276 276 275 275 275 275 274 274 274 274 274 274 274 275 276 276 276 275 275 276 276 276 275 275 275 276
283 283 282 281 280 280 278 277 277 277 276 275 275 274 273 273 275 275 275 274 274 274 275 275 274 274 275 277 276 274 274 275 279 281 281 281 281 281 280 278 275 273 271
283 283 282 282 280 279 278 276 277 276 275 275 274 273 272 271 273 274 274 274 273 274 275 275 277 277 278 278 276 275 273 273 274 274 275 275 277 277 278 276 275 272 272
282 281 280 280 279 278 277 277 275 274 273 272 271 272 271 270 270 274 275 273 273 273 274 274 275 277 277 278 278 273 272 274 273 271 270 271 272 273 274 275 276 274 272
280 278 277 276 277 276 274 273 272 271 270 269 269 270 271 270 271 272 274 276 276 273 273 274 275 277 277 276 274 274 275 273 268 268 267 268 269 269 271 272 273 273 274
276 275 274 273 274 273 271 271 270 270 270 270 270 270 271 272 271 273 274 275 275 274 274 275 277 275 274 272 272 272 270 268 266 265 265 266 268 269 270 270 271 272 272
274 273 272 271 272 270 271 272 271 271 270 270 271 271 271 271 271 272 272 272 274 275 275 273 272 272 271 270 268 269 268 267 266 265 266 267 268 267 267 268 268 269 269
274 273 273 272 270 270 270 271 271 272 273 271 271 271 270 269 272 273 273 273 273 274 274 269 267 267 266 266 266 266 267 266 265 266 265 264 265 266 266 267 268 267 266
274 273 273 273 271 271 271 270 274 274 274 274 274 271 271 274 275 275 276 276 276 274 268 265 265 264 264 264 264 264 265 265 265 265 264 265 264 264 265 266 267 266 265
275 274 274 271 272 271 270 270 269 272 274 274 275 275 275 275 275 275 275 275 274 268 264 263 263 263 263 263 263 263 263 264 264 264 264 264 264 264 264 264 265 266 265
271 268 272 270 271 270 270 269 269 267 267 268 270 270 271 271 272 272 274 273 268 265 262 261 261 261 262 262 262 262 262 263 262 263 262 262 263 263 263 264 265 264 264
269 268 268 269 268 267 267 266 266 265 264 264 265 266 267 269 269 270 271 266 263 261 260 260 261 261 261 261 261 261 261 261 261 261 261 262 263 263 263 264 264 264 264
264 263 264 265 265 264 264 264 263 263 263 263 262 263 264 260 260 262 264 263 261 260 260 259 259 260 260 259 259 259 259 260 260 260 261 261 262 263 263 263 264 264 264
264 262 262 262 262 262 262 262 262 262 261 261 262 263 266 261 261 262 263 263 262 260 259 259 259 259 259 258 258 258 258 259 259 259 260 261 262 261 262 264 264 264 264
262 262 261 260 261 261 261 261 260 260 260 260 261 262 265 263 263 263 263 263 261 261 258 257 257 258 258 257 257 257 257 257 258 258 259 259 259 260 262 264 264 263 264
260 260 260 259 259 258 258 258 258 258 259 259 259 259 259 259 260 260 260 261 260 259 257 256 257 257 257 256 257 257 257 256 257 258 258 258 258 259 262 263 263 262 263
260 259 259 259 259 259 258 258 259 257 258 257 257 258 258 259 259 259 260 260 259 258 256 255 256 255 255 254 256 256 257 257 257 258 258 258 257 260 264 262 262 262 262
259 258 258 258 258 258 258 258 258 258 258 258 258 258 259 259 259 259 259 259 257 256 254 255 255 254 254 253 253 253 255 256 255 256 257 258 260 263 263 262 261 261 261
258 258 258 258 257 257 257 257 257 258 257 258 258 258 259 259 259 259 258 257 256 255 253 254 254 253 253 253 253 255 256 258 258 260 263 265 265 262 258 258 258 260 259

GFSGL_sfc_thetae_036.txt.gz
Theta_e
285 284 283 283 283 283 282 282 281 281 281 280 280 279 279 278 278 277 277 277 277 277 277 277 277 277 276 276 276 276 276 275 273 275 277 277 277 277 278 279 280 279 279
284 283 282 282 282 282 281 281 281 280 280 279 279 279 278 278 277 277 277 277 276 276 277 276 276 278 275 275 275 274 274 274 273 272 274 275 275 276 276 276 277 279 278
283 282 282 281 281 281 281 281 281 280 279 278 278 277 277 277 277 277 277 277 277 277 277 276 276 275 275 274 273 273 273 275 273 273 273 274 274 275 274 275 276 276 278
283 282 281 280 281 281 280 280 280 279 278 277 277 277 277 276 276 276 276 276 276 277 277 277 276 275 274 274 274 273 274 273 273 272 272 272 272 274 274 273 273 275 275
283 281 281 281 281 281 280 279 279 278 278 277 276 276 276 275 276 275 276 276 276 276 276 276 276 276 278 277 275 274 273 272 271 271 271 271 271 272 272 273 273 273 274
282 281 281 281 281 280 280 279 278 277 277 276 275 275 274 276 278 278 277 276 276 276 275 275 275 276 275 277 278 278 277 273 270 270 271 271 272 273 274 273 273 272 270
281 280 280 281 280 279 279 278 277 276 276 275 274 274 274 274 278 279 278 277 275 275 275 275 275 275 275 274 275 277 277 277 278 276 273 273 272 273 274 273 273 273 273
281 280 279 280 279 277 277 276 275 275 274 274 273 273 273 274 278 279 278 275 274 274 274 274 274 274 274 274 274 273 274 275 276 276 276 276 277 278 277 277 276 276 276
280 280 279 279 277 277 276 275 275 274 273 272 272 271 271 271 278 278 277 273 273 273 275 274 274 273 275 278 276 273 274 275 278 278 278 279 279 279 278 274 271 271 270
280 281 280 278 277 277 276 274 274 272 274 273 273 271 270 267 276 277 277 273 267 272 273 275 277 276 278 279 276 274 271 271 272 272 272 272 273 273 275 273 272 269 269
279 278 277 278 278 277 275 272 272 270 272 269 270 268 267 268 269 276 277 274 271 270 271 272 274 277 278 279 279 274 271 274 269 266 267 268 268 269 270 271 272 271 268
277 276 275 275 277 275 274 269 270 270 267 265 264 264 268 269 271 274 276 277 276 272 270 273 273 276 278 278 277 276 276 273 263 262 264 264 265 267 269 269 270 270 271
274 273 272 272 273 272 271 269 267 266 267 266 267 266 267 270 269 275 276 276 277 275 273 274 277 277 276 273 273 273 271 264 262 259 263 264 267 268 268 268 269 269 270
272 272 270 270 268 268 269 269 268 267 266 267 267 267 264 267 268 268 269 270 273 274 274 272 272 275 274 271 267 268 267 265 265 264 264 266 266 265 265 267 266 266 266
271 270 268 267 268 266 267 266 268 266 268 263 263 264 264 264 266 271 269 266 267 270 271 266 262 261 261 262 261 262 264 263 263 264 264 263 263 265 264 266 265 265 263
269 269 269 269 267 267 266 264 274 274 275 277 277 269 263 272 274 276 277 277 278 278 268 256 257 259 261 260 259 260 261 262 262 263 262 262 263 263 263 264 265 264 263
269 269 269 269 267 267 266 265 263 268 276 277 277 277 277 277 277 277 277 277 278 276 259 255 257 258 260 260 259 259 261 263 261 261 262 261 262 261 262 262 263 263 263
264 267 267 265 265 264 264 264 263 262 261 263 270 273 273 274 274 275 275 275 271 269 254 256 258 257 259 257 258 258 260 261 260 260 260 259 259 260 260 261 262 261 262
264 263 264 265 263 264 265 263 262 261 261 260 260 265 267 270 271 273 274 269 266 262 259 258 260 258 257 257 254 253 257 258 258 257 258 258 259 260 260 261 262 261 262
261 264 263 263 262 262 263 261 261 260 259 259 259 260 258 256 253 253 256 257 255 257 258 258 259 258 255 256 251 252 255 253 253 252 254 256 258 259 260 260 260 260 262
260 260 262 261 261 261 260 259 259 259 259 257 257 259 266 260 258 255 254 255 257 255 257 257 257 256 255 254 250 252 253 255 252 250 251 256 257 258 258 259 259 261 263
261 260 259 258 256 257 257 259 259 257 255 253 255 256 265 259 255 257 259 260 258 257 258 258 256 255 255 253 252 253 252 252 250 249 251 256 257 256 257 258 259 262 262
258 257 255 254 256 257 255 253 253 253 251 250 252 254 251 251 252 253 254 253 255 257 256 257 256 256 256 254 253 254 253 254 251 248 253 255 255 256 256 257 259 261 261
253 254 256 255 254 253 252 251 251 252 250 250 248 249 253 251 250 255 257 259 258 255 257 257 256 256 255 253 252 251 250 253 249 253 250 255 255 256 256 257 262 261 260
252 252 252 252 250 250 250 249 250 248 248 250 250 250 251 253 254 255 257 259 257 257 257 257 256 255 254 253 252 249 250 256 253 252 251 254 254 254 256 260 261 259 257
251 251 250 250 249 248 248 249 249 249 249 250 250 252 252 253 253 255 256 257 257 257 256 256 255 254 253 253 251 252 253 256 255 255 254 255 257 260 263 260 259 255 255

GFSGL_sfc_thetae_039.txt.gz
Theta_e
285 284 283 283 283 283 282 281 280 280 280 280 279 279 278 278 278 277 277 277 277 276 276 276 276 276 275 275 275 275 275 274 272 274 274 276 275 275 276 277 277 277 277
284 283 282 282 282 281 281 280 280 280 280 279 279 278 278 277 277 277 276 276 276 276 276 276 275 277 274 274 274 273 273 273 272 271 273 274 274 275 275 274 276 277 276
283 282 281 281 280 280 280 280 279 279 278 278 278 277 277 277 277 276 277 276 276 276 276 276 275 275 275 274 273 272 272 274 272 272 272 273 273 274 273 274 275 275 277
282 282 281 280 280 280 280 280 279 279 278 277 277 277 277 276 276 276 276 276 276 276 277 276 276 275 274 274 273 273 274 273 273 272 272 272 272 274 274 273 273 275 275
282 281 281 280 280 280 280 279 279 279 277 277 276 276 276 276 276 275 276 276 276 275 276 276 276 276 278 278 275 274 273 271 272 271 271 272 272 272 272 274 273 274 275
282 281 280 280 280 280 280 280 279 278 277 276 275 275 274 276 280 281 277 276 276 276 275 275 275 275 276 278 279 279 278 272 262 264 272 272 273 273 274 274 273 272 271
281 280 280 280 280 280 280 279 278 277 276 275 274 274 274 274 281 281 281 276 276 275 275 275 275 275 274 274 275 277 277 278 278 276 274 273 273 275 275 274 274 273 272
281 281 280 281 280 279 279 277 276 275 275 274 274 274 274 274 280 282 281 276 275 274 274 274 274 274 274 274 273 273 273 274 275 276 276 275 275 276 275 273 272 271 272
281 281 281 281 280 278 277 276 275 275 273 273 273 272 272 272 280 281 280 274 274 273 274 274 274 273 275 278 275 271 274 274 277 278 278 278 277 277 275 271 267 267 266
282 282 281 280 279 278 278 275 272 273 275 274 274 272 271 270 278 280 279 274 267 272 272 274 276 276 278 279 276 271 271 270 272 269 268 270 271 271 273 271 269 265 266
281 279 278 279 278 278 276 273 271 273 272 270 271 270 270 270 270 279 280 275 272 269 270 271 273 277 278 279 279 276 271 274 265 263 264 266 267 268 268 270 270 268 265
278 277 277 276 277 275 274 270 270 271 271 269 268 267 269 270 272 276 278 279 278 269 269 272 273 277 277 278 279 277 277 274 259 258 259 263 264 266 268 268 269 269 269
276 275 274 272 273 273 273 270 270 270 271 270 269 269 267 269 269 276 277 278 279 276 274 274 277 278 278 277 274 275 272 263 260 257 261 264 266 267 268 267 268 268 268
273 271 269 271 268 267 271 271 271 269 269 268 267 268 265 267 268 269 270 271 276 276 276 273 274 276 276 273 268 269 267 264 263 263 263 265 266 265 264 266 264 265 264
270 270 269 269 270 268 268 268 269 266 270 266 267 265 263 265 268 271 270 266 265 269 269 261 262 266 267 265 262 262 263 263 262 262 262 262 263 263 264 264 264 263 262
270 269 269 269 267 267 266 264 275 274 276 277 276 269 264 272 275 276 277 278 278 277 272 269 266 267 265 264 261 261 262 262 262 261 259 260 261 261 261 262 262 262 261
270 268 268 268 267 266 264 265 264 267 277 278 278 278 278 276 277 277 278 279 279 279 275 266 264 264 263 263 262 262 261 263 260 258 258 258 260 260 259 259 260 261 261
265 268 267 267 266 264 264 263 262 262 262 263 270 273 274 275 275 276 276 276 272 271 264 261 262 262 261 262 261 261 260 260 257 256 256 254 253 257 258 258 259 259 260
264 263 263 262 261 262 262 262 261 261 261 262 264 267 267 269 271 271 272 264 260 262 259 259 259 260 260 259 259 258 257 256 255 250 250 250 252 254 257 257 259 259 259
262 263 262 261 260 260 261 260 262 262 261 260 258 258 257 256 254 254 254 253 254 255 255 257 256 256 258 257 256 256 254 254 254 249 251 251 251 253 257 257 258 257 257
259 259 260 258 258 259 261 261 261 259 257 254 254 257 266 257 256 253 251 252 254 255 257 254 252 251 254 256 255 255 255 256 254 248 250 249 248 252 254 257 256 257 258
257 256 256 258 259 260 258 258 257 254 252 252 253 254 264 253 251 249 249 251 252 255 257 257 256 256 257 257 257 257 255 255 253 247 248 249 249 251 251 255 255 256 258
258 258 256 255 256 256 254 251 250 249 249 248 250 252 250 248 250 250 251 251 251 252 252 256 257 256 256 257 257 257 255 255 254 248 248 248 249 249 248 254 254 255 258
256 254 253 251 251 250 249 248 248 250 249 248 246 247 250 250 250 250 251 252 251 251 250 254 256 257 256 257 256 254 254 253 249 248 248 249 252 252 252 254 254 256 259
249 250 250 249 248 248 247 247 248 246 246 248 249 248 249 250 250 251 251 252 253 251 251 252 256 256 256 256 255 254 252 255 252 250 246 246 250 250 252 254 255 256 259
250 250 248 247 247 246 246 247 247 248 248 250 250 249 249 250 251 251 252 251 252 251 250 252 256 256 255 255 254 254 254 255 253 253 251 249 250 252 253 255 259 260 259

GFSGL_sfc_thetae_042.txt.gz
Theta_e
286 285 284 283 283 282 281 281 280 280 279 279 279 279 279 278 278 277 277 277 277 276 276 276 276 276 275 274 275 275 274 274 271 273 274 275 274 274 275 276 276 276 276
285 284 283 283 282 281 281 280 280 280 279 279 279 278 278 278 277 276 276 276 276 276 276 276 275 277 274 274 274 273 273 273 272 271 273 273 273 274 274 274 276 277 276
283 283 282 281 281 281 280 280 280 279 279 279 279 278 277 277 277 277 277 277 276 276 276 276 275 275 274 274 273 273 272 274 272 272 271 273 273 274 274 275 275 276 277
282 282 281 281 281 281 280 279 280 279 279 278 278 278 277 277 277 277 277 276 276 276 277 276 276 275 274 273 273 273 273 272 272 272 271 272 273 274 274 273 273 275 275
282 281 281 281 281 280 280 280 280 279 279 278 277 277 277 276 277 276 276 276 275 275 276 276 276 276 278 277 274 273 273 271 272 271 271 271 272 273 272 274 273 274 275
282 281 281 281 280 280 280 280 279 279 277 277 277 276 275 277 280 282 278 276 276 275 275 275 275 275 277 280 280 280 278 270 260 263 272 272 273 273 274 273 272 272 268
282 281 281 281 281 280 280 280 279 278 278 277 276 275 274 275 282 283 283 276 275 275 275 275 275 275 274 274 276 278 278 278 279 276 274 273 273 274 273 273 271 270 269
282 282 282 281 281 280 279 279 278 278 277 276 275 275 274 275 281 283 283 276 275 275 274 274 274 274 274 273 273 272 273 273 274 275 275 275 275 276 275 273 271 269 269
281 281 282 281 281 279 279 279 278 278 276 275 275 273 274 273 281 283 282 275 275 274 274 274 273 273 276 278 275 271 272 274 278 280 280 279 278 277 275 270 264 264 263
282 282 282 282 282 280 280 279 278 278 277 276 275 274 273 271 279 282 282 275 270 273 273 274 276 275 277 278 275 272 270 272 272 268 269 270 271 270 272 270 268 263 264
283 282 282 282 282 281 281 279 276 276 274 273 273 271 271 271 271 281 283 275 274 271 271 272 273 277 278 279 280 275 273 273 270 264 263 265 267 267 268 269 270 268 264
283 281 280 281 281 280 278 275 274 275 274 271 269 266 269 270 273 278 281 282 279 271 270 272 272 277 278 279 279 279 280 277 260 257 258 262 264 265 267 268 268 268 269
280 280 280 278 278 277 276 273 272 272 273 271 270 271 270 270 270 278 279 281 281 278 275 274 277 278 279 279 280 279 274 264 260 257 259 263 265 267 268 267 267 267 267
280 277 275 276 273 273 274 273 273 271 271 271 270 271 266 267 268 269 270 272 276 278 278 275 277 278 278 276 271 273 269 266 265 262 262 265 266 265 263 265 263 263 262
276 273 273 273 272 270 269 270 271 267 272 269 269 268 264 265 267 272 270 267 268 270 271 260 262 266 269 269 266 266 267 266 264 262 261 262 263 263 263 263 262 261 260
272 271 270 270 268 267 267 264 275 274 277 278 276 269 264 272 275 276 277 278 278 278 273 269 267 266 267 269 268 267 265 264 264 262 260 260 261 261 260 261 261 259 259
271 269 268 267 267 266 264 267 265 268 278 278 278 279 278 274 277 278 279 279 280 280 276 274 271 268 267 267 266 265 263 264 263 262 261 260 260 258 257 257 258 259 258
264 267 267 266 266 265 265 264 263 262 262 263 271 274 275 275 275 275 276 276 266 265 260 260 262 264 265 265 264 263 262 261 261 260 259 257 256 252 254 255 256 256 257
264 263 262 262 263 264 262 261 261 261 260 258 263 267 266 270 270 270 270 255 253 252 253 254 256 258 260 260 259 259 259 258 257 258 256 253 255 249 251 254 256 257 257
261 263 262 262 262 262 262 261 260 260 261 262 261 261 259 255 253 251 250 248 248 248 248 248 251 251 254 253 254 255 255 254 256 256 254 254 253 251 253 253 255 256 255
260 260 260 259 259 258 258 259 261 261 260 256 254 256 265 253 253 250 249 248 247 247 249 249 249 250 254 254 254 254 254 256 256 256 254 253 251 249 248 255 255 255 255
257 256 256 256 257 259 260 260 259 257 253 253 253 254 263 252 249 248 247 246 247 248 249 249 252 251 254 254 255 255 255 255 255 256 253 252 251 247 246 251 253 254 254
256 256 256 257 258 257 255 253 251 251 250 249 249 251 248 247 247 247 247 247 247 249 250 247 251 252 250 251 257 257 256 255 257 255 253 251 248 245 244 247 251 252 253
257 257 256 253 252 251 251 249 250 251 250 248 245 245 248 247 245 247 248 249 249 249 249 249 251 252 251 250 252 255 255 256 255 253 252 250 248 245 245 246 250 252 254
253 253 253 252 250 250 251 248 249 247 247 247 247 246 246 246 246 246 247 248 249 250 251 251 250 251 252 252 253 255 255 257 256 253 250 246 246 245 243 245 250 252 254
251 252 253 253 253 251 249 250 250 248 247 247 246 246 246 248 248 248 249 249 250 251 250 250 250 251 251 251 252 254 256 257 255 254 249 247 247 247 245 248 250 253 256

GFSGL_sfc_thetae_045.txt.gz
Theta_e
286 285 284 283 284 283 282 281 280 280 279 279 279 279 279 279 278 278 277 277 277 277 276 276 276 276 275 274 275 274 274 274 271 273 273 274 273 274 275 275 276 276 276
286 285 284 283 282 281 281 280 280 280 279 279 279 279 279 279 278 277 277 277 276 276 276 276 275 277 274 274 274 273 273 273 272 270 272 272 272 274 274 273 276 277 276
284 284 283 282 281 281 280 280 280 279 279 279 279 279 279 278 278 277 277 277 277 277 276 276 275 275 274 273 273 272 272 274 272 271 271 273 273 274 274 275 275 275 277
284 283 282 281 282 281 280 280 280 279 279 279 279 278 278 278 278 278 277 277 276 277 277 276 275 275 274 274 273 273 273 272 272 271 271 271 272 274 274 273 273 275 274
283 282 282 282 282 281 280 280 280 279 279 279 278 278 278 278 278 278 277 276 276 275 276 276 276 276 278 277 274 273 273 271 271 271 271 271 272 272 272 273 272 273 274
283 283 282 281 281 281 280 280 280 279 279 279 278 278 277 278 282 283 278 276 276 275 274 275 275 275 278 280 281 282 277 270 263 263 271 271 272 273 273 273 272 270 268
282 282 281 281 281 281 280 280 279 279 279 278 278 277 277 277 283 284 283 276 276 275 275 275 275 275 274 274 277 280 280 280 280 275 273 274 273 273 274 273 272 270 268
282 281 281 281 281 280 280 279 279 279 278 278 277 277 277 277 283 284 285 276 275 275 275 275 274 274 274 273 273 272 273 273 274 275 275 274 275 276 276 274 271 266 268
281 281 281 282 281 280 280 279 279 278 278 277 278 277 277 277 282 284 283 277 276 275 275 274 274 274 276 279 275 271 272 273 277 280 281 281 281 279 277 271 258 256 262
282 282 282 282 282 280 280 279 279 279 279 278 278 278 277 277 281 284 283 277 274 275 275 275 277 275 277 279 276 270 269 272 273 271 272 272 273 271 273 270 267 258 263
282 282 281 282 282 281 281 280 279 279 278 277 277 277 276 275 275 283 284 277 277 274 274 273 274 278 280 281 281 275 273 275 272 272 268 267 267 268 268 269 269 268 264
282 281 282 282 282 282 282 280 279 279 278 277 275 274 273 273 275 280 283 284 280 274 273 274 273 278 279 280 279 280 281 281 267 263 259 263 264 265 267 268 269 268 268
283 283 283 283 283 283 282 281 278 278 277 276 274 274 274 272 272 279 280 282 283 280 275 275 278 278 279 279 280 281 279 271 267 264 265 264 265 266 267 267 267 267 267
283 281 281 281 279 279 280 277 277 275 275 275 273 274 271 269 270 270 272 272 277 278 278 276 278 280 279 278 274 276 275 270 268 266 265 265 266 265 263 264 263 263 261
279 276 277 277 276 274 273 274 275 271 276 273 272 270 267 266 268 272 270 265 264 270 270 260 262 267 270 271 272 271 271 269 267 266 265 262 263 263 262 263 262 258 257
274 274 274 273 272 272 271 268 276 276 279 279 277 271 265 273 275 276 278 278 278 278 270 267 269 269 269 269 269 269 266 267 267 266 264 261 261 261 260 259 261 258 257
274 272 271 270 270 269 268 270 268 270 278 279 279 279 277 274 277 278 278 279 279 278 273 266 265 265 266 267 267 266 267 265 266 264 263 261 258 257 257 255 258 258 256
268 268 268 266 266 265 265 266 266 266 266 263 274 276 277 276 275 275 275 269 262 263 260 257 254 255 259 261 263 263 262 262 262 261 261 259 257 257 252 254 256 252 254
266 264 263 263 262 263 263 262 262 262 260 259 261 265 265 271 271 270 267 256 251 250 249 249 249 249 250 251 255 255 257 258 258 256 256 256 255 254 252 255 255 256 256
263 264 262 261 260 261 261 261 260 260 259 260 259 259 259 260 257 256 249 247 246 246 246 245 246 245 246 247 249 251 251 251 252 254 255 255 255 254 254 254 254 254 251
259 259 260 259 258 258 258 259 259 259 258 256 259 261 264 258 253 250 249 247 246 245 246 245 246 245 246 247 247 247 247 249 250 255 255 254 253 252 254 254 254 251 253
256 255 256 256 257 257 256 257 256 257 257 258 257 258 264 253 250 249 247 245 245 244 245 244 246 246 247 248 250 249 249 250 250 255 256 254 253 253 253 252 251 249 251
256 256 255 254 255 255 254 252 253 253 253 253 252 253 250 247 246 246 246 245 244 246 246 244 245 248 247 246 247 252 253 251 252 256 255 254 254 253 251 249 246 244 247
255 255 255 253 252 251 251 250 252 252 250 248 246 246 248 246 244 246 245 245 245 245 244 245 246 247 248 247 245 248 251 252 251 255 254 254 253 252 250 245 244 245 249
252 253 252 251 250 251 251 249 251 247 246 248 246 246 247 245 245 245 245 245 245 244 248 248 247 248 249 250 249 248 248 255 253 254 253 252 252 249 243 242 243 245 248
250 251 250 249 249 248 250 251 248 249 248 247 247 245 247 248 247 246 246 245 247 248 248 248 248 248 249 250 250 252 253 256 255 255 253 251 248 246 243 244 243 246 249

GFSGL_sfc_thetae_048.txt.gz
Theta_e
290 288 286 287 287 286 285 284 283 282 280 280 279 279 279 279 279 278 278 278 278 277 277 277 277 276 275 275 275 274 274 274 271 273 274 273 273 274 275 275 276 276 276
288 286 285 285 285 285 284 283 282 281 280 280 279 279 279 279 279 278 278 278 277 276 277 276 275 277 274 274 274 273 273 273 272 270 272 272 272 273 274 273 276 277 276
286 285 283 283 284 284 283 283 282 280 280 279 279 279 279 279 279 279 279 278 278 278 277 276 275 275 274 273 273 272 273 274 272 271 270 272 273 273 273 274 275 275 277
286 285 283 283 283 284 283 282 281 280 279 279 279 280 279 279 279 279 279 278 278 278 277 276 275 275 275 273 273 273 273 272 272 271 271 271 271 273 273 272 273 275 274
285 284 284 283 283 283 282 281 281 280 280 280 279 279 279 279 279 279 278 278 277 277 276 277 276 276 279 277 274 273 272 271 271 271 270 270 271 271 272 273 272 273 274
285 284 284 282 282 282 281 281 280 279 279 279 278 278 278 279 283 283 279 278 277 276 276 276 276 277 279 281 282 280 276 271 263 265 271 271 272 272 273 272 272 271 269
285 284 283 282 281 281 281 280 280 279 279 278 278 278 278 278 284 285 283 278 277 276 276 276 276 276 275 275 279 282 282 283 281 273 272 273 272 273 273 273 273 271 269
284 283 282 282 282 281 280 280 280 279 279 278 278 278 278 278 284 285 284 278 277 276 276 276 276 275 275 274 274 273 274 274 275 275 275 274 274 275 275 275 271 266 269
282 282 282 282 281 280 280 280 279 279 279 279 279 278 278 278 284 285 284 280 278 276 276 276 275 275 277 280 276 272 272 273 277 280 281 281 282 282 278 270 260 257 263
282 281 281 282 282 281 281 280 280 280 279 279 279 279 279 279 283 285 285 280 278 277 276 276 278 277 279 280 277 272 271 273 273 271 273 276 276 272 274 272 268 259 262
280 280 280 281 282 282 281 280 280 279 279 278 278 278 278 278 279 285 285 280 279 278 277 276 276 280 282 282 282 276 274 275 273 275 271 270 270 269 269 269 269 268 265
279 279 280 281 281 281 281 280 280 279 278 278 277 277 277 277 279 282 285 285 283 278 276 276 275 279 281 281 281 281 282 281 276 267 266 266 266 267 268 268 269 269 269
279 279 281 281 282 282 281 280 279 280 279 278 277 277 276 274 275 281 282 284 285 282 278 277 278 280 281 281 281 281 280 278 271 267 265 266 267 268 268 268 268 267 266
283 283 282 282 282 282 283 282 281 279 278 278 276 277 277 272 272 273 275 277 280 281 279 274 278 280 280 279 274 276 275 274 272 270 270 269 268 266 265 265 262 262 259
282 279 281 281 281 279 278 279 279 276 280 278 278 277 273 271 272 274 273 269 269 271 266 261 264 265 266 266 267 271 272 273 270 270 268 266 265 265 264 264 262 257 255
275 276 276 276 275 275 274 272 278 278 281 280 279 275 269 275 277 279 279 278 277 276 265 262 263 265 268 269 268 268 265 266 265 266 264 265 264 263 262 261 261 255 254
274 273 272 272 272 271 271 271 271 275 281 280 279 278 276 275 278 278 278 279 278 275 268 263 262 260 260 262 262 262 262 263 263 262 263 261 263 261 260 257 257 257 253
269 269 269 268 269 268 269 269 270 271 269 266 278 278 280 279 278 278 277 272 265 264 262 261 260 258 256 256 256 256 256 258 258 258 259 258 258 257 255 253 255 253 254
267 266 266 265 266 266 266 265 265 264 264 263 264 267 268 276 274 271 268 261 260 258 256 253 249 248 249 248 248 249 250 252 252 251 250 252 254 254 253 255 256 257 257
263 264 262 262 261 261 262 261 260 260 260 260 258 256 255 258 257 255 255 254 255 255 253 247 246 243 244 244 245 245 247 246 247 246 247 250 254 254 255 254 255 255 255
259 260 260 259 257 257 257 258 259 258 258 256 255 258 264 260 259 255 252 250 249 246 245 244 244 243 242 242 243 244 244 247 245 246 247 248 251 250 254 255 255 255 255
257 256 256 255 256 257 256 257 256 257 256 258 258 260 265 257 255 254 253 248 245 245 243 243 243 242 244 244 245 245 246 247 245 245 248 248 249 250 252 254 254 254 253
256 256 255 254 255 255 254 254 257 257 256 255 255 256 254 251 252 251 249 245 244 245 243 241 243 245 245 245 246 249 249 249 249 247 249 247 249 251 252 252 253 250 248
255 254 254 252 253 253 252 251 252 253 254 252 250 250 252 250 248 247 246 244 244 243 241 242 244 246 246 246 244 244 246 248 246 249 251 251 250 252 253 251 250 247 245
251 252 251 250 249 249 249 249 250 248 249 251 251 251 250 249 249 248 249 245 244 243 246 245 245 246 248 248 248 246 246 253 249 249 247 248 248 249 246 244 243 242 243
249 249 248 247 247 246 247 249 249 251 252 253 252 250 251 250 251 247 247 245 246 247 247 247 247 248 248 249 249 250 251 254 252 253 250 249 248 246 243 243 241 243 245

GFSGL_sfc_thetae_051.txt.gz
Theta_e
294 293 293 293 291 290 289 289 286 285 283 283 282 282 282 281 281 282 282 281 281 281 281 281 280 280 280 280 280 279 279 279 278 278 279 279 278 278 279 279 279 279 280
293 291 291 290 290 288 289 287 285 284 283 283 281 282 281 281 281 281 280 281 280 280 280 279 279 279 279 278 278 278 278 278 278 275 276 277 276 278 278 277 278 279 279
291 289 288 288 288 288 288 286 284 284 282 282 281 281 281 281 281 281 281 281 281 280 280 279 278 278 277 277 277 277 277 277 277 276 275 276 277 277 277 278 278 278 278
289 289 287 287 287 287 286 285 284 283 282 281 281 281 281 281 281 281 280 280 280 280 279 279 279 278 278 277 276 277 276 276 276 275 274 275 275 276 276 275 276 278 277
289 288 288 287 286 286 285 284 284 282 282 281 281 280 281 280 280 280 280 280 279 279 278 279 279 279 280 279 277 277 276 276 275 275 274 274 275 274 274 276 275 276 277
289 288 288 285 284 285 284 283 282 281 281 280 280 280 280 280 284 284 281 279 279 278 277 278 278 279 280 282 282 281 278 276 274 274 275 274 275 275 275 275 275 273 272
287 287 286 284 283 283 283 282 281 280 280 280 280 279 279 280 285 285 283 279 279 278 278 278 277 277 278 278 282 283 283 282 281 276 276 276 276 276 276 275 275 274 273
286 285 284 283 283 282 281 281 281 280 280 279 279 279 279 280 286 286 284 279 279 278 279 278 277 277 277 276 276 276 277 277 279 280 279 278 278 278 277 277 276 273 272
284 284 283 283 281 281 280 281 281 280 280 280 280 279 279 279 285 286 284 279 279 279 279 277 277 277 279 281 277 275 276 276 278 281 281 282 282 282 282 276 272 269 270
282 282 282 282 281 280 281 280 281 281 280 279 279 279 279 279 285 286 285 282 281 279 278 277 279 278 280 282 280 277 275 276 276 276 276 277 280 277 278 276 273 269 268
280 280 280 281 280 280 280 280 280 279 279 279 279 279 279 280 282 286 287 283 283 281 280 279 278 281 282 282 283 279 277 278 276 277 275 275 275 274 274 273 273 271 269
278 278 278 279 280 281 280 280 280 280 279 278 278 278 278 279 281 284 286 287 285 281 280 279 278 281 283 283 283 283 283 283 281 277 275 273 272 272 272 272 272 271 271
276 276 278 279 280 281 280 280 279 280 279 279 279 279 278 277 278 283 285 286 288 284 281 280 281 282 283 282 283 283 281 280 279 274 272 271 272 273 271 270 270 270 269
281 280 280 280 280 281 281 281 281 281 281 280 279 280 279 276 276 277 280 282 283 284 284 281 281 281 281 280 277 279 277 277 275 274 273 273 271 269 269 269 267 266 264
282 281 282 282 281 281 280 282 282 282 284 282 280 280 279 276 277 279 278 277 277 278 270 270 271 272 273 273 272 273 274 274 273 272 271 270 269 268 268 267 266 264 262
278 279 279 279 279 278 277 275 281 281 283 284 282 280 275 278 280 281 281 279 278 278 269 269 270 270 271 271 270 270 270 269 269 269 268 267 266 266 266 265 264 262 261
273 274 275 275 274 274 274 274 273 277 282 280 280 280 278 278 280 280 281 280 280 279 270 269 268 268 266 266 266 265 265 265 265 265 265 264 264 264 263 262 262 261 260
268 268 268 268 269 269 270 270 272 275 275 275 279 279 279 280 279 280 280 274 268 267 265 265 264 264 263 262 261 261 261 261 261 261 261 260 260 260 260 259 259 258 258
267 265 265 266 266 267 267 267 267 268 267 266 269 271 270 279 275 272 270 265 264 263 262 261 260 259 258 257 256 256 255 257 258 257 257 256 257 257 257 257 258 257 258
265 264 263 263 264 264 264 264 264 264 264 263 263 262 261 263 260 258 258 259 260 259 258 257 255 254 254 254 253 253 254 254 255 255 255 255 256 256 257 256 256 256 257
260 260 261 261 260 260 260 260 261 261 261 260 260 261 264 261 260 259 258 257 258 257 255 255 253 252 251 251 251 252 252 254 253 253 253 254 254 254 255 256 256 256 256
259 257 258 257 258 258 257 258 258 258 258 258 259 263 265 260 258 257 256 255 253 252 251 252 252 251 252 252 253 253 253 253 253 252 252 252 253 254 254 254 254 255 255
259 257 256 255 256 256 256 255 256 257 256 256 257 257 257 256 255 256 255 252 252 252 250 248 251 251 251 249 250 252 253 253 253 252 252 252 252 253 253 254 253 253 253
256 255 255 253 253 253 253 252 253 253 254 253 252 252 254 252 252 254 254 253 252 252 250 250 250 251 251 249 249 249 249 251 251 251 251 252 252 252 253 252 252 252 252
251 252 251 250 249 249 250 249 251 248 249 251 250 251 251 252 253 252 253 251 251 251 252 251 250 250 250 250 250 249 248 253 253 250 250 251 251 251 250 251 251 250 248
249 249 246 247 247 246 247 248 248 249 248 250 250 250 250 250 251 252 253 251 252 252 252 252 251 250 250 250 250 251 251 254 253 252 251 251 250 250 249 248 247 247 248

GFSGL_sfc_thetae_054.txt.gz
Theta_e
303 304 304 304 304 303 301 299 297 294 293 291 287 286 285 286 288 289 289 288 288 286 287 286 285 285 284 283 283 283 283 284 283 282 282 283 282 282 283 284 283 283 283
302 302 302 302 302 301 298 296 294 292 291 290 285 284 284 285 284 288 287 286 286 285 285 284 283 282 282 282 282 282 283 283 282 280 281 281 280 282 282 282 281 281 282
301 300 300 300 300 299 298 295 293 293 290 288 285 284 283 283 283 285 286 286 286 286 285 284 282 282 280 280 281 281 282 279 281 280 280 280 280 281 281 282 282 282 282
300 299 298 298 298 298 297 294 291 291 288 285 285 283 283 282 282 283 284 285 285 284 284 283 282 281 280 280 280 281 280 280 279 279 279 279 280 280 280 279 279 282 281
298 297 297 297 297 297 295 291 289 288 286 285 283 282 282 282 281 282 282 283 283 282 282 281 282 281 282 281 280 281 280 280 279 279 278 278 279 279 278 280 278 280 281
296 296 297 295 293 291 290 288 286 286 284 283 282 281 281 281 284 285 283 281 281 281 280 280 281 281 281 283 283 283 282 281 280 280 279 278 279 279 279 279 278 277 276
294 292 291 290 288 288 288 287 285 284 283 281 281 281 281 281 285 286 284 281 281 281 280 280 280 280 280 281 283 284 283 283 283 280 278 279 279 280 280 278 278 277 276
290 290 289 288 287 287 286 285 285 284 282 281 281 281 281 281 286 286 283 281 282 281 281 282 282 281 279 279 279 280 281 282 282 283 282 282 282 282 281 280 279 278 278
289 289 288 287 286 286 285 285 284 283 282 282 281 281 280 281 286 286 283 281 281 280 282 282 282 281 281 282 279 279 279 279 281 283 284 284 283 283 282 281 278 274 274
287 288 287 286 285 284 285 284 285 284 282 280 280 281 280 282 286 286 284 281 280 281 282 281 281 281 282 282 281 279 277 278 279 279 278 280 281 281 282 280 280 276 275
285 285 285 285 284 285 285 285 283 282 280 279 279 280 280 283 285 286 286 282 282 282 284 282 281 284 284 283 283 281 281 282 281 280 278 278 278 278 278 278 278 276 274
283 283 282 283 284 284 283 283 282 281 280 279 278 279 280 281 284 286 287 285 286 285 284 283 282 283 284 284 284 284 284 284 283 282 279 279 278 277 277 277 276 275 275
281 280 281 283 283 283 282 282 282 281 280 280 279 279 279 280 282 285 287 288 287 285 285 284 283 283 284 284 284 284 283 283 281 280 279 278 277 276 275 274 274 273 273
281 281 281 282 282 282 283 283 283 282 281 281 281 281 281 281 281 283 284 286 286 286 286 284 284 283 283 282 280 282 282 281 279 278 277 276 275 273 273 273 271 271 269
283 282 282 282 283 282 283 283 283 285 285 284 284 284 283 280 280 281 282 282 284 284 279 279 278 278 278 278 278 277 277 277 276 276 274 273 272 272 271 271 270 268 266
282 282 282 283 282 282 281 280 284 285 285 285 285 285 283 283 284 284 284 284 283 283 276 277 277 277 277 277 275 274 274 272 272 271 271 270 269 268 268 268 268 266 264
282 280 279 279 279 279 279 280 278 281 282 281 281 282 281 280 281 282 283 282 281 281 277 276 276 275 274 273 272 270 269 269 267 268 267 267 266 266 265 265 265 264 263
277 277 280 280 280 279 279 279 280 280 278 278 280 279 280 280 281 282 282 278 275 274 274 273 272 271 270 269 267 267 266 266 265 265 265 264 263 263 263 263 263 261 261
275 275 275 275 276 276 276 277 277 277 277 275 276 276 279 277 276 276 275 274 272 270 269 269 268 267 266 265 264 263 263 263 263 262 262 261 262 261 261 261 261 259 259
270 270 273 273 273 273 274 274 274 274 274 274 275 272 271 273 272 268 267 267 268 268 267 266 264 263 262 262 261 261 261 260 261 261 261 261 261 261 260 260 259 259 259
270 269 268 271 271 272 272 272 272 272 272 271 270 268 268 270 268 267 266 265 265 264 263 263 261 260 260 260 259 260 259 261 260 259 260 260 259 259 259 260 259 259 258
267 267 268 267 268 268 268 269 269 269 268 268 267 268 269 267 266 265 264 263 261 261 261 261 260 260 259 259 259 260 259 259 260 259 259 258 258 258 258 258 258 258 258
266 265 265 264 264 263 265 265 266 266 266 267 266 265 264 264 263 263 262 261 260 259 258 258 258 258 258 257 258 259 259 259 259 259 258 258 257 258 257 257 257 256 256
264 264 263 263 262 263 263 263 263 260 263 262 263 262 262 261 261 260 260 260 259 258 257 257 257 257 258 257 257 257 256 257 258 257 256 257 257 257 256 256 256 256 256
261 261 260 260 260 260 261 260 260 260 260 260 260 260 260 259 259 259 259 258 257 257 257 257 256 256 256 255 256 256 256 257 257 255 255 255 255 255 255 255 255 255 254
259 259 259 259 259 259 259 260 260 259 259 260 259 259 259 259 259 259 258 257 256 256 256 257 257 256 256 256 256 256 255 256 255 254 256 256 255 255 255 254 253 253 253

GFSGL_sfc_thetae_057.txt.gz
Theta_e
306 307 307 308 309 309 308 308 307 307 304 299 297 295 292 291 292 293 291 291 290 290 289 288 286 286 285 285 285 284 283 284 283 280 283 284 283 282 282 281 283 283 283
306 305 305 306 307 306 306 306 306 303 300 298 296 293 292 289 289 290 288 288 288 286 287 286 284 284 284 283 283 283 283 283 282 280 281 281 280 282 282 281 281 281 282
305 304 304 304 304 305 305 305 303 300 295 293 291 289 289 287 285 287 287 286 286 285 286 284 283 283 282 282 282 281 282 280 281 281 280 280 280 281 280 281 281 282 282
304 303 302 302 303 303 304 302 300 297 292 291 288 288 288 286 284 285 284 285 285 285 284 284 283 282 281 281 281 281 281 280 280 279 279 279 279 280 280 278 278 281 280
302 301 301 301 302 302 300 299 297 294 292 290 287 286 285 284 283 283 283 283 283 282 282 282 282 283 284 283 281 280 280 280 280 279 278 278 278 278 278 279 278 279 280
301 300 300 298 297 296 296 293 290 289 288 286 285 284 283 282 286 287 284 282 282 281 280 280 282 283 284 285 284 284 282 281 280 280 279 278 278 279 279 279 278 277 275
297 294 293 293 292 292 291 289 288 287 286 284 284 283 283 282 286 287 286 282 281 281 280 281 282 283 282 282 284 284 284 285 284 281 279 279 279 280 280 279 278 277 277
292 290 290 290 289 289 288 287 287 287 284 284 283 282 282 282 286 287 285 282 281 281 281 281 283 281 281 281 281 281 282 282 282 282 281 280 280 282 282 280 279 278 278
290 290 290 289 287 287 286 286 286 285 284 283 283 282 282 281 286 287 283 282 281 280 282 283 284 282 283 284 280 279 279 280 284 285 286 286 286 286 284 281 277 276 275
289 289 289 288 286 285 286 285 285 285 283 282 281 282 281 282 286 286 283 282 280 280 281 283 284 284 285 286 281 279 278 279 279 279 278 280 282 281 283 281 279 276 276
286 286 285 286 285 285 285 285 284 282 281 281 280 280 281 284 285 287 286 282 282 280 280 282 283 286 286 286 285 282 281 281 281 280 279 278 278 278 278 278 279 278 276
284 283 283 283 284 284 283 283 282 281 280 279 279 279 280 283 284 287 287 284 284 281 281 282 283 285 287 287 286 285 285 284 281 280 280 279 279 278 278 278 277 277 276
281 280 282 283 283 283 283 281 282 281 280 279 279 279 279 280 283 287 288 286 285 283 285 286 286 286 287 286 287 286 283 283 282 281 280 279 278 276 275 275 275 273 273
281 281 282 282 282 283 283 283 283 282 281 281 280 280 280 280 281 283 285 286 286 286 286 285 285 285 285 284 282 283 283 282 281 279 278 276 275 274 273 273 270 270 268
282 282 282 283 283 283 283 284 283 284 285 283 284 284 282 280 281 283 284 284 285 286 284 284 283 282 281 281 280 280 280 278 276 276 275 274 273 272 272 271 270 267 264
282 283 283 282 282 281 281 281 286 286 286 286 287 286 284 285 285 285 284 285 285 286 280 280 279 280 279 278 277 275 275 273 274 272 272 271 270 269 268 267 266 263 262
283 282 282 281 281 281 280 280 278 281 283 283 283 283 282 282 283 284 285 285 285 284 278 278 278 278 278 277 274 273 272 271 268 269 268 267 267 266 264 262 262 262 259
282 283 283 282 282 281 281 281 280 279 278 278 280 280 281 281 282 282 283 281 277 278 277 276 275 275 274 272 270 269 268 267 266 266 266 265 262 261 260 259 260 257 257
279 278 279 279 280 279 280 280 281 279 278 276 276 277 278 280 279 279 278 276 274 272 271 270 270 269 268 268 267 266 266 265 265 263 262 259 258 258 257 257 258 258 257
273 274 276 276 276 276 276 276 276 277 276 277 277 273 272 273 273 269 269 269 269 269 268 267 266 265 265 264 263 262 261 259 259 259 259 258 258 257 257 255 255 255 255
272 271 273 274 273 274 275 274 274 275 274 274 271 270 271 271 269 268 266 266 265 265 263 263 262 261 261 261 260 260 260 261 259 258 258 257 255 254 255 257 255 254 254
270 270 269 269 270 268 269 270 270 270 270 269 268 269 269 268 267 266 265 263 261 261 261 260 259 259 258 258 258 260 259 258 258 257 257 255 254 254 253 254 254 254 254
269 268 267 267 267 267 267 266 266 267 267 267 267 265 265 263 263 263 262 260 259 258 257 257 257 256 256 255 257 258 258 258 258 257 257 255 253 253 253 253 253 252 251
266 266 265 264 263 263 264 263 264 261 262 263 263 262 262 261 260 259 258 259 258 257 256 254 254 254 254 254 255 254 254 255 257 255 254 254 252 252 251 252 252 252 252
263 262 261 261 261 262 262 262 261 261 260 261 260 260 260 259 259 258 258 257 255 255 255 254 254 254 254 252 253 254 256 259 255 255 253 252 251 250 249 249 250 250 250
262 261 261 261 261 260 260 260 260 260 259 260 259 259 259 258 258 258 257 256 255 254 254 255 255 254 253 254 254 255 256 258 256 256 254 254 253 251 250 249 248 248 248

GFSGL_sfc_thetae_060.txt.gz
Theta_e
301 301 301 302 303 304 304 303 303 302 301 300 300 300 297 296 296 298 295 295 295 293 290 289 286 286 285 284 282 282 282 282 279 279 281 282 282 281 281 280 280 280 281
301 301 301 301 301 302 302 302 301 300 297 296 293 291 290 290 292 294 292 294 292 290 288 286 285 285 283 283 282 281 281 282 282 278 279 279 280 281 281 279 280 281 280
300 299 299 299 299 300 300 300 300 298 295 292 291 290 287 289 288 292 291 291 291 290 288 286 285 284 282 282 281 281 281 281 281 280 278 279 279 280 278 279 279 279 281
299 299 297 297 299 299 299 299 298 296 291 289 288 289 287 287 286 288 287 288 288 287 286 286 284 283 282 281 281 280 280 280 279 279 278 278 278 279 279 277 277 279 279
298 298 299 296 297 297 296 294 293 291 290 288 286 285 285 285 285 285 286 285 285 284 283 283 282 282 284 283 281 280 280 279 279 278 278 278 278 278 277 278 277 278 278
297 297 298 294 292 291 291 291 289 288 287 285 284 285 284 284 288 289 286 284 284 283 281 281 282 283 285 286 285 285 283 281 279 279 278 278 278 278 279 278 278 276 274
292 288 287 288 288 289 289 288 286 285 284 283 283 284 283 283 287 288 287 283 283 283 281 282 282 283 283 283 286 286 285 287 285 282 280 279 279 280 279 278 278 277 276
286 285 284 287 285 284 285 285 284 284 282 281 281 283 282 282 287 288 286 282 282 282 282 282 282 282 282 282 282 282 282 283 284 283 281 281 281 281 281 280 278 274 275
287 286 285 283 282 283 281 281 281 281 279 278 283 282 282 282 287 288 284 282 281 281 282 282 283 283 284 285 282 281 281 281 285 286 285 285 286 285 284 279 273 270 274
285 286 285 282 280 280 281 280 279 278 282 282 282 282 282 282 286 287 284 282 280 280 281 282 284 284 286 287 281 280 278 279 280 280 281 283 285 283 285 281 274 275 276
281 281 280 280 279 280 279 278 277 277 281 280 280 280 281 282 285 287 285 282 281 280 280 281 283 287 288 288 285 281 281 282 281 279 279 278 278 278 277 277 277 275 273
278 278 277 276 279 279 277 276 275 275 278 279 279 279 280 281 284 287 286 284 285 281 280 281 282 287 288 288 287 285 286 285 280 278 277 276 276 276 276 276 276 276 276
277 277 277 277 278 277 277 275 276 274 276 278 278 277 278 280 281 286 287 286 286 282 282 283 284 286 287 288 288 288 285 283 280 278 277 278 278 276 275 274 274 273 273
276 276 280 281 277 275 277 278 277 277 276 277 278 278 278 279 279 282 284 285 285 284 284 284 285 285 286 286 283 285 283 282 281 280 278 275 274 272 271 272 267 266 262
276 279 281 281 281 278 279 278 281 281 280 277 277 278 276 275 277 282 284 284 285 285 284 284 283 282 281 280 278 279 279 277 277 275 273 272 272 272 272 271 267 261 259
280 278 280 280 280 280 281 283 286 286 287 287 287 285 283 283 284 285 285 286 286 286 281 279 279 277 277 277 276 273 273 273 272 271 270 270 270 269 268 266 265 258 257
281 280 280 280 279 278 279 279 278 281 284 284 284 284 284 284 285 285 285 285 286 284 276 275 273 272 272 273 273 271 269 268 267 268 267 266 266 266 263 264 262 260 255
282 281 281 280 280 280 280 279 278 276 275 275 281 281 282 282 283 283 284 282 274 276 276 275 275 274 270 269 266 265 264 263 264 266 265 263 262 260 258 257 257 253 252
277 278 278 278 279 279 278 279 278 277 275 274 274 275 277 281 280 279 279 270 266 262 262 263 261 260 260 260 260 260 263 263 262 262 260 258 258 256 254 255 256 256 253
273 275 275 274 273 273 273 274 274 273 274 275 270 269 268 268 264 263 265 264 263 259 258 257 256 256 255 255 256 257 256 256 256 257 256 257 255 255 254 253 251 251 249
271 271 272 271 270 271 271 271 271 271 271 268 267 270 274 266 263 260 259 259 258 257 257 256 255 255 255 255 254 253 252 253 252 253 252 252 253 251 251 254 250 249 249
269 268 268 267 267 267 267 268 268 267 266 265 265 266 269 264 262 260 256 253 252 252 252 254 254 252 251 250 250 250 250 250 249 250 250 250 250 251 251 251 250 252 249
267 266 266 266 266 265 264 263 264 264 263 262 261 260 259 256 255 254 253 251 251 251 250 249 249 249 249 248 249 250 250 250 250 250 250 249 248 248 250 252 251 249 248
265 264 263 263 262 262 262 261 260 259 259 258 257 255 256 253 252 252 251 250 250 248 248 248 248 249 248 248 248 248 249 248 248 250 250 250 250 252 251 251 252 252 252
262 262 261 261 260 260 260 259 257 256 253 254 252 253 252 252 251 250 250 250 249 249 249 249 249 250 251 251 250 250 251 258 252 252 248 248 248 250 251 251 251 250 250
261 260 260 259 258 257 256 256 253 253 253 253 252 251 251 251 251 250 250 249 249 249 249 249 251 253 253 254 254 255 256 259 257 256 252 251 250 250 250 250 250 250 249

GFSGL_sfc_thetae_063.txt.gz
Theta_e
299 300 300 301 302 303 304 304 302 301 303 301 300 302 302 301 301 301 301 300 297 298 297 296 295 296 292 288 286 284 284 284 280 279 281 282 282 282 282 282 282 282 281
299 299 299 299 300 300 301 301 300 301 299 301 299 298 299 300 299 300 298 298 296 295 295 293 293 288 287 286 285 284 284 283 281 279 279 280 280 280 280 280 280 280 280
298 298 298 298 298 299 300 299 299 298 297 294 294 294 292 293 294 297 298 295 295 295 294 292 291 286 285 284 284 284 283 283 282 280 278 279 279 279 279 279 279 279 280
297 297 297 297 298 299 298 298 297 296 295 292 291 291 289 288 290 291 292 293 292 293 292 291 288 286 286 283 283 283 282 281 281 279 278 278 278 279 279 278 277 279 279
296 296 297 296 296 296 294 293 293 292 293 290 288 287 287 286 288 288 288 289 289 289 287 287 286 286 286 285 283 282 281 280 280 279 278 278 278 278 277 278 277 278 278
295 295 296 293 291 291 290 290 290 289 288 287 286 285 284 287 290 290 288 286 286 285 284 283 283 284 285 287 286 286 284 281 279 279 279 279 279 280 279 279 278 277 274
290 288 287 288 288 289 289 288 288 287 285 285 284 284 283 284 289 290 289 284 284 284 283 282 282 283 284 284 286 286 285 286 285 283 281 280 280 280 280 279 278 278 276
286 286 286 285 284 283 283 285 286 284 283 282 281 281 281 282 288 289 288 283 283 283 283 283 283 282 284 283 283 283 283 284 285 284 283 282 282 281 282 281 280 278 277
286 286 286 284 281 281 280 280 281 279 278 278 279 280 283 282 288 288 287 282 282 281 282 283 283 282 285 286 282 281 281 282 286 286 285 285 285 285 284 281 275 275 272
284 285 285 281 278 278 280 278 278 277 279 281 282 283 282 282 287 288 285 282 280 280 281 282 283 283 286 286 283 282 280 281 281 282 283 285 286 285 287 282 279 275 276
280 280 279 279 277 278 276 276 275 278 281 281 280 280 281 282 284 288 285 282 281 280 280 281 283 287 288 288 286 283 283 282 283 280 280 279 279 279 279 279 279 277 271
276 276 275 274 278 276 276 272 273 277 280 279 279 279 280 281 284 288 285 284 284 280 280 281 283 288 288 288 285 286 287 284 280 279 277 277 277 277 278 278 278 277 276
275 277 276 275 276 275 276 275 274 275 279 278 278 278 278 280 282 287 286 286 286 282 282 283 285 287 288 288 288 288 285 284 279 277 276 277 277 278 277 275 275 274 273
279 279 280 279 276 273 276 275 275 274 277 278 277 277 277 277 278 282 284 285 284 283 284 284 284 285 286 285 284 286 285 284 281 279 277 275 275 274 272 272 270 269 266
279 280 280 280 276 275 278 280 280 279 279 276 274 275 274 274 275 283 284 283 283 283 283 283 283 282 282 282 282 281 279 276 278 274 273 272 273 272 271 270 269 265 265
278 280 280 280 279 279 282 283 287 287 286 286 285 281 280 281 283 285 286 286 286 286 283 281 281 281 280 280 279 274 273 273 273 272 271 271 271 270 268 268 267 264 262
281 280 279 279 279 279 279 279 278 281 285 285 285 285 285 286 285 285 286 286 286 286 279 279 278 278 277 276 273 270 269 269 268 269 269 268 267 268 266 265 265 263 259
281 280 280 279 279 279 278 277 276 274 275 276 282 282 284 284 284 285 285 281 275 276 276 276 275 275 274 269 268 265 264 265 265 264 265 265 264 263 262 261 261 256 255
279 279 279 279 279 279 279 278 275 273 274 272 274 275 274 279 278 278 276 270 268 266 265 266 265 263 261 262 262 261 261 262 262 262 261 260 260 258 256 257 258 258 255
276 276 277 276 276 276 276 275 273 274 272 269 268 267 266 266 264 263 263 261 260 257 254 255 255 255 255 257 258 260 259 260 262 261 259 257 254 254 254 252 252 253 251
272 272 272 272 271 272 272 271 271 271 268 267 266 272 271 263 261 259 257 257 257 255 254 252 252 253 252 252 253 254 255 256 253 250 249 249 248 249 248 253 250 250 251
269 269 269 269 269 269 268 268 267 266 266 265 263 267 269 262 259 258 254 251 249 250 249 250 250 249 249 250 249 248 248 248 246 248 249 248 249 249 249 251 250 250 251
268 268 267 266 266 265 265 265 264 263 262 261 261 260 258 256 255 254 252 250 249 249 247 247 248 248 246 246 246 248 249 249 250 251 251 250 249 250 249 252 251 249 248
266 266 265 263 264 263 262 261 261 261 260 258 257 255 256 252 251 252 250 249 248 246 245 246 247 247 246 246 245 245 246 247 247 251 253 252 251 252 252 251 249 249 251
264 263 263 262 261 261 260 260 259 258 257 257 254 254 252 251 251 249 248 248 247 247 248 247 246 247 247 248 247 247 248 256 250 251 251 252 253 253 253 253 253 252 250
262 261 261 260 260 259 259 258 257 257 254 253 253 250 250 250 249 248 248 247 248 247 247 246 246 248 249 250 250 252 254 258 257 257 253 253 253 252 252 252 253 252 249

GFSGL_sfc_thetae_066.txt.gz
Theta_e
298 298 298 299 300 301 302 303 302 301 301 302 301 304 304 305 305 305 305 304 300 300 300 298 297 298 297 294 293 291 289 288 288 281 282 284 284 284 283 285 284 283 283
299 298 298 298 298 299 300 301 299 300 298 301 298 301 302 302 302 302 301 301 298 297 297 297 296 296 295 295 292 288 288 286 284 280 280 281 282 283 282 283 281 282 281
297 297 297 297 297 298 299 298 297 298 297 296 295 297 298 299 299 299 301 300 298 298 298 296 296 295 292 291 288 288 286 284 283 282 279 280 280 281 280 280 280 280 281
296 296 295 296 298 298 297 296 296 296 295 294 292 295 294 295 295 296 296 295 295 295 295 295 294 291 292 288 286 286 284 283 282 283 280 279 279 279 280 279 278 280 279
294 294 295 296 295 295 294 293 292 292 293 293 291 289 289 288 290 289 290 291 292 292 290 290 290 289 289 288 286 285 284 284 283 281 279 278 278 278 278 279 278 279 279
292 291 292 290 290 290 289 289 289 289 289 288 288 288 287 289 291 292 290 288 288 288 288 286 286 285 287 289 289 288 286 284 282 279 279 278 279 280 280 280 279 277 277
287 287 286 285 285 287 288 288 288 288 287 286 286 285 285 285 290 292 291 286 286 286 286 284 284 284 285 285 288 287 287 288 285 282 280 281 280 282 281 279 279 279 278
285 285 285 287 286 284 284 284 286 285 283 283 281 281 281 282 289 290 290 285 284 284 284 284 284 283 283 284 284 283 283 284 285 284 285 284 284 283 283 282 281 280 278
286 285 284 283 285 282 282 281 280 279 278 277 279 280 283 283 287 289 288 283 283 283 283 283 283 282 285 286 283 282 282 283 287 288 286 287 287 286 284 281 277 276 275
285 284 283 282 282 280 280 278 277 276 278 281 283 283 283 283 286 288 286 282 281 281 281 282 283 283 287 287 282 282 281 282 282 283 283 285 286 285 286 282 280 277 276
280 279 279 279 278 277 276 276 274 276 281 281 281 281 281 282 284 288 285 282 281 280 281 281 283 286 287 287 285 282 283 283 284 282 281 281 281 281 280 280 281 279 275
277 276 275 273 275 276 272 271 271 277 280 279 279 279 280 281 284 288 285 283 283 280 280 281 283 287 287 288 286 286 287 283 282 279 278 278 278 278 278 279 278 278 278
272 278 279 272 274 274 272 271 272 272 278 278 278 279 279 280 282 287 286 286 285 281 282 283 285 287 287 287 286 287 285 282 279 278 277 276 277 277 277 276 275 274 273
276 279 276 273 277 275 275 276 276 276 278 278 278 278 278 279 280 283 284 284 284 282 283 283 284 285 287 285 284 286 284 283 281 280 278 274 275 274 272 272 270 270 268
271 274 275 279 279 278 275 278 278 278 280 279 279 278 278 277 279 284 284 283 282 282 282 282 281 281 280 281 281 281 281 281 281 279 275 272 272 272 271 271 269 267 265
277 278 279 279 278 279 278 281 285 284 285 284 283 280 278 280 284 285 286 285 285 285 283 281 280 280 279 279 279 278 277 275 274 273 271 271 270 270 269 268 268 266 265
279 279 278 278 278 278 278 279 279 283 286 286 286 286 285 284 285 286 286 287 287 285 280 279 279 278 277 276 276 274 271 269 269 270 269 268 268 268 268 267 266 264 263
281 280 279 278 278 278 277 277 277 277 276 275 282 283 284 284 285 286 285 280 275 275 275 275 274 273 273 272 270 267 266 266 265 266 265 263 265 264 262 262 263 260 257
281 280 280 280 279 279 278 275 275 275 273 272 273 274 274 279 279 278 278 272 270 268 268 265 261 260 259 260 261 259 259 259 260 259 259 260 260 260 259 261 260 258 252
279 279 279 279 278 277 276 274 273 271 270 269 269 268 267 267 266 264 264 263 263 260 257 260 255 253 253 253 254 253 254 254 256 256 255 256 258 256 253 250 251 250 249
275 275 275 275 274 275 274 273 272 270 269 268 268 270 271 265 262 260 259 259 259 257 254 252 251 250 250 249 250 251 251 253 252 250 248 247 246 248 248 252 249 248 249
272 272 272 271 271 271 270 269 269 268 267 266 265 269 269 263 261 259 257 255 252 252 250 251 249 248 248 248 247 248 248 247 245 245 246 246 246 247 248 251 251 251 250
270 269 269 268 268 267 267 267 266 265 263 263 262 261 260 259 258 257 255 251 251 252 250 249 249 249 247 245 245 247 248 247 247 246 248 247 247 248 248 250 251 251 251
268 268 267 266 266 265 264 263 263 263 262 260 259 258 259 256 254 254 252 250 251 248 248 248 247 247 246 244 242 242 243 244 243 245 247 247 249 250 248 250 251 252 253
266 265 265 264 263 262 261 261 261 260 259 259 257 257 255 253 253 251 251 250 249 248 248 247 246 246 246 246 245 244 244 253 247 247 246 248 249 249 249 252 252 253 253
263 262 262 262 261 261 260 260 259 259 258 257 256 253 253 254 253 250 248 248 249 248 246 245 245 245 245 247 248 250 251 255 252 253 247 248 248 249 251 252 253 253 253

GFSGL_sfc_thetae_069.txt.gz
Theta_e
297 297 297 297 298 299 299 301 301 300 300 301 301 301 301 301 302 305 306 306 304 303 303 301 300 301 300 298 296 295 293 294 293 290 283 284 284 284 284 286 287 286 285
297 297 297 297 297 297 297 299 299 299 298 300 299 299 300 302 304 303 303 303 303 300 301 299 299 299 297 298 295 293 292 292 292 291 281 282 283 284 284 284 284 285 284
295 295 296 296 296 296 297 297 297 297 296 296 295 296 299 302 302 302 303 302 301 300 300 298 298 296 295 296 294 293 292 291 289 286 280 282 281 283 281 283 282 282 282
294 294 294 294 295 295 295 295 295 295 294 293 293 295 294 298 299 299 299 298 298 298 298 297 296 296 295 294 290 290 288 286 285 285 281 280 281 281 282 280 279 280 279
291 291 291 292 292 292 291 290 290 289 291 292 291 289 290 291 295 294 293 294 294 294 291 291 292 291 291 293 289 287 286 285 284 284 281 279 279 278 278 279 279 279 279
289 288 288 286 286 286 287 287 287 288 288 288 288 287 287 289 292 294 293 290 289 289 289 288 288 286 288 291 292 291 288 286 284 284 281 280 279 279 280 279 279 278 277
285 286 285 285 285 286 285 285 286 287 286 286 286 286 285 286 291 293 292 288 287 287 287 287 285 285 285 286 290 290 289 290 289 284 281 280 279 281 280 280 280 280 279
286 284 282 284 283 283 284 284 284 285 283 282 282 282 281 282 289 291 291 286 285 285 285 285 285 284 284 284 285 284 284 285 284 284 283 283 283 283 283 283 281 281 279
285 285 284 282 282 282 281 281 281 279 278 277 279 276 277 284 287 289 289 285 284 283 284 284 284 283 285 287 284 282 282 283 286 287 287 287 288 287 285 282 279 278 276
284 284 282 281 281 283 282 280 278 275 278 278 280 283 283 284 286 288 287 283 282 281 282 282 283 283 286 287 283 282 281 282 283 283 284 286 286 285 286 283 280 278 276
281 280 278 278 277 278 277 275 273 273 276 275 278 280 281 282 283 288 286 283 282 281 281 281 282 286 287 287 285 283 283 283 285 282 282 282 282 282 283 283 281 280 275
278 277 276 278 275 277 269 271 269 270 272 277 279 279 279 281 284 287 286 284 283 281 280 281 282 286 287 287 284 286 287 284 282 281 279 279 279 279 278 278 279 279 278
276 276 279 280 274 272 269 270 270 268 270 275 278 278 277 279 283 287 286 286 284 281 282 283 285 286 287 287 287 287 283 281 280 278 278 277 276 276 277 275 274 274 273
273 275 279 279 274 270 272 272 275 275 278 278 278 279 279 279 281 283 284 284 283 282 283 283 285 286 287 285 284 285 284 282 281 280 279 277 277 275 274 273 270 270 268
274 274 276 275 272 272 275 275 275 276 280 279 279 279 278 278 281 285 284 282 281 282 282 282 282 281 281 281 281 281 281 281 280 278 276 273 272 271 271 270 269 268 266
277 278 279 279 274 275 279 279 284 284 284 284 283 281 279 282 286 286 285 285 285 285 282 280 280 280 278 277 277 277 276 273 271 271 270 270 269 270 269 268 267 264 264
276 279 279 278 275 274 276 277 280 283 286 286 286 285 284 285 286 286 286 286 286 284 280 279 277 277 276 274 273 271 268 267 267 269 268 267 268 267 265 265 265 265 263
270 275 279 277 273 273 277 277 277 277 275 275 281 283 286 286 286 286 284 281 276 276 275 274 272 271 268 267 263 263 263 263 263 263 263 261 260 261 262 263 263 260 261
269 273 278 277 278 277 277 276 275 274 273 272 273 275 274 280 280 279 279 274 272 269 265 263 261 260 259 259 258 258 258 258 257 256 256 256 258 259 259 260 262 261 257
269 273 278 279 279 278 276 274 273 272 271 271 270 269 269 270 267 265 265 265 263 260 261 261 257 255 253 254 254 253 255 254 253 253 253 255 256 257 258 255 254 254 252
270 274 278 279 278 276 275 274 272 271 270 269 269 271 271 266 263 262 261 260 259 257 257 257 255 253 248 248 249 250 250 250 248 249 247 246 246 248 246 251 249 250 252
271 273 274 276 275 275 273 272 271 270 269 268 267 270 270 264 262 260 258 256 253 252 250 252 250 249 248 250 248 248 248 247 244 245 245 245 244 245 246 249 251 252 250
269 270 271 271 271 271 270 270 269 267 266 264 264 263 261 260 259 258 256 253 254 253 250 250 251 250 248 247 245 248 248 247 246 244 245 244 244 245 245 247 248 249 250
269 269 269 268 269 268 268 266 265 265 263 262 261 260 260 258 258 257 255 254 254 250 250 251 250 248 245 244 242 241 241 243 241 244 245 245 245 246 245 246 248 249 250
266 266 266 266 266 265 265 264 263 262 261 261 259 258 258 257 256 254 253 252 251 252 250 248 246 246 245 245 244 242 243 252 244 244 242 245 245 244 244 245 247 248 249
264 264 263 264 263 263 263 262 261 260 260 259 258 256 256 256 255 253 252 252 250 248 246 245 244 244 245 245 246 248 250 254 250 251 245 245 245 245 244 245 247 248 250

GFSGL_sfc_thetae_072.txt.gz
Theta_e
295 295 295 296 296 297 297 298 298 298 298 298 299 299 299 300 299 302 305 307 307 306 306 303 302 303 303 302 300 299 297 296 294 298 288 286 286 286 286 287 288 288 289
294 294 295 295 295 295 296 297 297 297 297 298 297 297 298 299 299 299 301 303 303 303 303 303 301 301 300 301 300 297 296 296 294 293 288 283 283 285 285 284 285 287 286
293 293 293 294 293 293 294 294 295 295 294 294 294 294 295 297 298 300 303 302 302 303 302 300 301 298 297 297 297 296 295 294 293 292 291 282 282 283 282 283 283 284 285
291 291 291 291 291 291 291 292 291 292 291 292 292 292 292 294 295 299 300 299 299 300 300 300 298 297 296 295 294 294 293 291 289 288 282 281 281 282 282 281 280 281 281
289 289 289 289 289 288 288 288 288 288 289 289 289 288 288 289 292 295 295 296 295 296 294 293 293 293 292 294 292 291 289 288 286 286 284 280 279 279 279 280 280 279 280
287 286 287 286 285 285 285 285 285 286 286 287 287 286 286 289 292 294 294 291 290 290 291 290 289 287 289 292 294 294 290 288 286 285 285 282 280 280 280 280 279 278 276
285 284 283 284 283 284 284 284 284 284 285 285 285 285 284 285 291 292 292 290 289 289 288 287 287 286 286 287 289 292 292 292 290 286 283 282 280 281 281 279 280 280 279
285 283 281 282 282 281 281 281 283 283 283 283 282 282 281 283 289 291 291 288 287 286 286 286 286 285 285 285 285 285 285 285 286 285 284 283 283 283 283 282 281 280 279
285 284 284 282 281 281 281 281 280 280 279 279 279 279 276 280 288 289 289 286 285 284 284 284 284 284 285 287 284 283 283 283 286 287 287 287 287 286 285 282 280 279 277
284 283 282 280 279 279 280 280 277 275 279 279 279 275 276 282 286 287 288 284 283 282 282 282 283 284 285 287 283 283 281 282 283 284 284 286 287 286 287 284 281 279 277
280 279 279 278 277 277 277 276 276 275 276 275 275 274 275 280 282 286 289 283 282 281 281 281 282 286 286 287 285 283 282 284 285 283 282 282 282 283 282 282 282 280 277
277 276 277 275 278 278 272 273 271 270 271 273 273 276 275 276 282 287 286 284 284 281 281 281 282 286 287 287 284 287 287 284 282 281 280 279 279 279 280 279 280 278 278
274 275 275 276 279 274 270 272 271 267 270 272 273 272 277 279 282 287 286 286 284 281 282 283 284 286 287 286 287 287 283 282 280 279 278 277 277 278 277 275 274 273 273
279 278 276 277 279 277 274 273 272 272 272 274 274 274 278 278 281 282 283 282 283 283 284 283 285 286 286 285 284 284 282 281 280 280 279 278 277 275 273 273 271 270 267
275 279 280 280 279 277 276 276 275 275 276 272 273 273 274 276 281 284 282 281 281 283 282 283 282 281 281 280 280 280 280 279 279 277 276 274 273 273 271 271 269 266 264
273 277 279 280 280 280 277 276 281 285 285 284 285 279 278 282 286 286 286 286 285 285 279 279 279 279 278 278 278 275 273 273 272 272 271 271 270 269 268 267 266 263 264
267 271 274 276 279 279 275 274 278 280 285 286 284 284 284 285 287 286 286 286 286 283 277 276 275 275 274 273 272 270 269 269 268 269 268 268 268 266 262 262 264 265 262
263 266 269 271 275 278 277 275 272 271 272 274 279 284 286 287 287 286 285 281 275 275 273 271 270 269 268 267 267 266 266 265 265 265 264 262 262 260 260 262 262 259 259
263 266 268 272 275 277 277 277 275 274 274 273 274 275 276 282 281 281 280 274 271 267 266 264 263 263 262 261 262 262 261 261 260 257 256 255 254 255 255 257 259 258 256
263 265 267 270 273 277 277 276 274 274 273 273 272 271 268 273 269 267 267 267 265 263 262 261 260 259 259 259 258 257 257 256 255 254 252 252 252 254 253 251 251 250 249
264 265 268 270 273 278 276 275 274 273 272 271 270 270 272 268 265 264 263 261 260 259 258 258 255 254 252 254 254 254 254 252 250 250 248 246 245 248 246 250 247 247 247
264 266 268 270 274 276 276 275 273 272 271 270 270 272 271 265 263 261 258 256 253 253 252 254 253 253 253 253 252 252 252 249 245 245 245 244 243 243 245 247 248 247 246
266 267 268 270 273 275 273 272 271 270 269 267 266 264 264 262 260 259 257 255 255 254 252 253 254 252 249 248 248 249 250 248 247 244 245 243 243 243 243 245 245 245 246
265 267 268 269 270 271 271 270 269 268 266 265 264 262 261 259 258 257 255 254 254 251 251 252 253 252 250 247 243 242 242 242 240 242 244 244 243 244 244 244 245 245 247
264 265 265 266 268 267 267 267 266 265 264 263 261 260 258 258 256 256 255 253 250 252 253 253 252 250 249 247 246 243 242 252 242 243 241 244 244 243 242 243 244 246 247
263 263 264 265 265 265 265 264 263 263 262 261 260 259 259 258 257 256 254 254 255 254 253 252 250 248 248 248 245 246 249 253 248 249 244 245 244 242 242 243 243 245 246

GFSGL_sfc_thetae_075.txt.gz
Theta_e
295 296 296 297 297 298 298 298 299 299 299 300 300 301 301 302 303 303 305 308 308 308 308 306 305 306 305 305 303 302 301 299 296 300 296 291 288 288 288 289 290 290 290
294 294 294 294 295 295 295 296 296 297 297 297 297 298 298 299 300 300 301 302 303 303 305 305 304 303 302 304 303 301 299 299 297 295 298 286 286 286 287 286 287 288 288
292 292 293 292 292 292 292 293 293 293 293 294 294 295 295 297 298 299 300 301 302 303 303 302 302 302 299 300 300 299 298 298 297 295 295 284 284 284 283 284 284 285 286
291 291 291 291 290 290 291 291 291 291 291 292 292 292 292 293 294 295 298 299 300 300 301 301 301 298 299 298 296 296 295 294 293 292 292 284 282 283 283 282 281 283 283
289 289 289 289 289 288 288 288 288 288 289 289 289 290 290 290 292 293 293 294 295 295 296 296 297 296 293 296 294 294 292 291 291 289 289 282 281 280 280 282 281 281 282
287 287 287 286 286 286 286 286 286 286 287 287 287 287 288 289 292 292 292 291 291 290 291 292 291 288 290 292 294 295 293 290 288 288 288 285 283 281 282 281 280 279 277
286 285 284 284 283 284 284 284 284 285 285 285 285 286 286 287 289 291 291 289 289 290 289 289 288 288 287 288 290 292 292 293 294 288 286 284 282 282 282 281 281 281 280
284 283 282 283 282 282 281 282 282 283 283 283 283 284 284 284 288 290 290 289 288 289 288 288 287 287 287 285 286 286 286 286 286 286 285 285 285 284 284 283 283 282 281
284 283 283 281 280 280 279 280 281 281 281 280 282 281 281 282 286 288 289 286 286 286 286 286 285 285 286 287 285 284 284 284 286 287 287 287 287 287 285 283 281 281 278
283 282 281 280 278 278 280 279 279 278 279 280 280 280 278 279 283 286 287 285 284 285 284 283 283 285 286 287 285 284 282 283 284 284 285 286 286 286 286 285 283 281 279
279 279 279 278 277 277 278 277 277 276 277 277 278 279 278 279 280 285 287 285 284 283 282 282 283 285 287 287 286 284 284 285 285 284 283 283 283 283 283 283 284 283 280
276 276 276 275 276 278 278 275 274 273 274 275 275 278 279 279 280 285 288 286 285 282 281 282 283 286 287 286 285 287 287 284 283 283 282 281 281 281 280 279 279 278 279
273 276 279 279 275 279 279 276 276 273 274 276 276 277 278 279 280 285 286 285 284 281 282 283 284 287 287 286 287 287 284 283 282 281 280 279 279 279 277 275 275 274 273
272 274 276 278 281 282 281 278 276 276 276 276 276 277 277 277 279 283 284 281 282 283 284 285 286 286 286 284 283 284 283 283 282 281 280 278 278 277 275 275 273 272 270
271 273 275 278 279 280 281 281 278 278 278 279 279 278 278 277 279 283 282 281 282 283 284 284 283 282 282 281 280 280 280 281 280 279 278 276 276 275 273 273 272 271 270
270 272 273 275 276 277 278 279 282 283 284 285 286 285 281 282 284 286 285 285 286 285 282 281 280 280 279 279 276 275 275 275 275 276 275 275 274 273 272 271 270 270 269
265 268 269 270 271 273 275 276 276 279 284 285 285 285 284 283 286 286 286 286 286 283 278 277 276 276 275 274 273 273 271 271 272 272 272 272 271 270 269 269 268 267 266
262 264 265 267 268 270 273 275 277 276 276 277 279 284 285 285 287 287 286 281 276 276 274 273 272 271 271 270 270 269 269 268 268 269 268 268 268 267 267 266 266 264 264
263 264 265 266 267 269 272 274 276 276 275 274 276 278 276 287 286 285 282 277 273 270 268 267 267 267 266 266 266 266 266 265 265 264 264 264 263 265 262 263 263 261 260
261 262 264 265 266 268 270 273 275 276 275 275 275 275 274 275 273 270 269 270 268 266 265 264 263 263 263 264 263 263 262 262 262 262 260 261 261 263 261 260 260 260 259
261 262 263 264 265 267 269 272 276 275 275 275 275 273 275 272 269 267 266 265 265 264 263 262 260 259 259 259 260 260 260 260 259 258 258 257 256 257 256 258 257 256 256
260 261 263 264 266 268 270 273 276 275 274 273 272 274 275 268 265 264 262 260 259 259 260 259 258 257 258 259 259 259 258 257 256 255 255 253 254 254 254 255 255 255 255
262 262 264 265 267 268 270 273 275 274 272 271 269 267 266 264 263 262 259 258 258 257 257 258 257 256 255 255 256 258 258 257 255 253 254 253 253 254 254 255 254 253 254
261 262 263 264 266 268 270 272 272 272 270 268 266 265 264 262 261 259 258 257 257 256 257 256 257 256 255 253 252 251 251 250 250 251 252 253 253 251 252 252 253 253 254
261 262 263 264 266 267 268 268 268 267 266 265 263 262 261 260 259 258 258 257 257 256 256 256 256 255 255 252 252 251 249 254 249 247 248 251 252 250 250 252 252 252 253
260 261 262 263 264 265 266 265 265 264 263 262 262 261 261 260 259 258 257 257 257 257 257 256 255 254 253 253 252 251 250 253 251 249 249 252 251 250 249 251 249 252 253

GFSGL_sfc_thetae_078.txt.gz
Theta_e
302 302 302 301 302 302 302 302 302 303 302 302 303 303 304 305 306 306 307 307 307 309 311 309 308 309 308 308 307 304 304 303 298 302 304 301 295 294 293 291 291 291 292
299 300 299 299 299 299 298 298 299 299 299 299 299 299 300 301 302 302 303 304 304 304 305 304 304 305 305 305 305 303 302 302 300 298 301 300 291 291 290 288 288 289 289
297 298 297 296 296 295 296 296 296 296 296 297 297 296 297 298 298 299 300 300 301 302 302 302 302 301 300 301 301 301 302 301 300 297 297 293 287 285 285 285 285 286 287
296 296 295 294 293 293 294 293 294 294 294 294 295 295 295 295 295 296 297 297 298 299 300 300 300 299 298 299 298 298 297 297 296 295 295 295 285 284 284 283 282 284 284
295 294 293 293 292 292 292 292 292 292 292 292 292 292 293 293 294 294 294 295 294 294 295 296 297 296 293 295 295 296 294 293 293 292 291 291 283 281 281 282 282 282 282
293 292 291 290 289 289 289 289 289 289 289 289 289 290 290 291 292 291 291 292 292 291 291 292 293 289 291 292 293 294 294 291 289 290 291 289 288 283 282 282 281 280 280
291 289 288 287 287 287 287 287 287 287 287 287 287 288 288 289 290 290 290 290 291 291 290 290 290 290 289 290 291 291 291 292 293 290 288 288 285 284 284 282 283 283 283
288 288 287 286 286 285 285 285 286 286 286 285 286 286 287 287 288 289 289 290 291 291 291 290 289 289 290 288 287 287 287 287 287 287 286 285 285 285 285 285 284 283 283
287 286 286 285 284 283 283 284 285 285 285 285 285 285 285 285 287 287 288 288 288 288 289 290 289 287 287 287 286 285 285 285 286 287 286 287 287 287 286 285 283 282 280
284 284 284 284 282 282 283 283 284 283 283 284 284 284 284 283 285 286 287 287 286 287 288 288 285 286 286 287 285 285 284 284 284 285 285 286 286 286 286 285 285 283 280
282 282 282 282 282 282 282 283 282 282 282 282 283 284 284 284 284 285 286 286 286 285 285 285 286 285 286 287 288 285 285 285 285 285 284 284 284 284 284 284 284 284 283
280 279 280 281 282 282 281 283 283 281 281 282 283 284 286 285 284 285 286 286 288 284 283 284 284 285 287 286 285 286 287 285 285 284 284 283 282 280 280 280 279 279 279
276 276 277 279 281 283 282 283 282 281 280 282 283 283 283 284 284 285 285 287 286 283 284 284 284 286 286 286 287 287 284 285 284 283 282 281 280 279 278 277 276 275 274
274 275 277 277 279 281 282 283 283 282 281 281 282 282 282 281 282 284 285 285 283 283 284 286 285 286 286 285 285 285 285 285 284 283 280 280 280 279 277 277 275 275 273
273 275 276 277 278 279 280 281 281 282 282 280 280 281 281 281 283 284 284 284 284 285 285 285 285 284 283 283 282 283 284 284 282 282 281 279 278 277 276 276 275 274 274
271 273 274 273 275 276 276 277 280 281 282 284 284 284 284 286 285 285 286 285 285 285 284 283 283 283 282 281 280 279 279 279 279 280 279 278 277 276 274 274 274 274 272
268 269 270 271 272 273 273 274 274 277 281 283 283 285 285 286 285 285 286 286 286 285 283 282 281 280 279 279 278 277 275 275 276 277 277 276 275 273 274 273 272 272 270
266 266 267 269 270 270 271 272 273 274 274 277 282 283 284 286 285 286 287 284 281 281 281 279 277 277 276 275 275 274 274 273 273 273 272 272 272 273 272 271 271 270 269
265 266 267 267 268 268 269 270 271 272 273 276 279 281 281 284 286 287 286 282 279 276 275 274 274 273 273 272 272 272 271 270 270 270 270 269 270 270 269 269 267 265 266
264 264 264 265 266 267 268 269 270 272 273 276 278 280 280 279 280 278 276 277 276 273 272 271 270 271 270 270 270 269 268 268 268 268 267 267 267 268 266 266 266 266 265
263 264 263 264 265 266 267 268 270 271 273 276 278 281 280 278 276 274 273 273 272 271 270 269 268 267 267 267 267 267 267 266 265 265 265 264 264 263 264 264 263 262 262
262 263 263 264 265 266 267 268 270 271 272 275 278 279 281 275 272 270 268 267 267 268 268 267 265 265 265 266 266 265 264 263 263 262 261 260 261 261 261 262 262 261 261
263 263 263 264 265 265 267 268 270 271 273 277 277 275 272 270 268 266 264 263 263 263 263 263 262 261 261 261 263 264 264 263 262 261 261 260 260 260 261 261 260 259 260
263 263 263 264 265 265 266 268 270 271 274 275 273 270 268 266 265 263 262 262 262 261 262 262 262 261 259 259 259 259 259 258 258 259 260 260 259 258 259 259 259 258 259
262 262 262 263 264 264 266 268 270 271 271 270 268 267 265 264 262 261 261 261 260 260 260 260 260 260 259 258 258 257 257 257 256 255 257 259 258 257 257 258 258 258 258
261 261 261 262 262 263 264 265 267 267 267 266 265 264 263 263 262 261 261 260 260 260 260 260 259 259 258 258 258 257 255 257 254 254 257 258 257 257 257 257 256 258 257

GFSGL_sfc_thetae_081.txt.gz
Theta_e
303 303 303 302 302 302 301 301 301 302 301 301 301 302 302 303 304 304 305 305 305 306 307 307 307 308 307 307 307 307 305 304 300 303 305 305 298 295 295 293 293 292 292
301 300 299 299 299 299 298 298 299 298 299 299 299 299 299 300 300 300 300 301 301 301 303 303 302 303 302 303 304 303 303 303 301 298 301 302 299 294 293 291 290 290 289
299 298 297 297 296 296 296 296 296 296 297 297 297 296 296 297 297 298 298 298 299 299 300 300 301 300 298 299 299 299 300 301 300 298 298 300 296 288 287 286 286 286 287
297 296 295 295 294 294 294 294 294 294 294 294 294 294 295 295 295 296 295 295 296 297 297 297 297 296 295 296 296 296 296 296 296 296 296 296 296 285 284 285 284 284 284
295 294 293 293 292 292 292 292 292 292 292 292 291 291 292 292 293 292 291 291 292 293 293 293 293 292 290 292 293 293 293 292 292 292 292 293 291 283 284 284 283 283 283
292 291 290 290 290 290 289 289 289 289 289 289 289 289 288 290 291 291 290 289 289 290 290 291 291 290 291 292 292 292 292 290 288 289 289 289 289 286 283 283 282 280 280
290 289 288 288 288 288 287 287 287 287 288 287 287 287 287 288 290 290 289 288 288 289 289 289 289 289 289 289 290 291 290 291 291 289 287 287 287 286 284 282 282 282 282
289 289 287 287 286 286 285 285 286 286 286 286 286 286 286 286 289 289 288 287 287 288 288 289 288 288 289 288 287 286 286 287 287 287 286 286 286 285 285 285 284 283 282
287 286 286 285 284 284 282 284 285 285 284 284 285 284 284 285 287 288 287 285 286 286 287 287 287 287 288 288 286 285 285 286 287 288 288 288 287 287 286 284 282 280 279
283 283 284 284 282 282 283 283 284 284 283 284 283 284 284 284 287 287 287 285 284 285 286 286 286 287 287 287 284 285 284 285 284 285 285 285 286 286 286 285 284 282 280
282 281 281 282 281 282 282 283 283 283 283 282 282 283 284 285 285 287 287 285 284 284 285 285 284 286 286 286 288 285 285 285 285 284 284 284 283 282 281 281 281 281 281
279 278 278 278 280 281 281 282 282 283 282 281 282 283 285 285 285 286 286 286 286 284 284 283 283 285 286 288 286 287 287 285 285 284 283 281 279 278 277 277 277 277 277
274 273 275 277 278 280 280 280 282 283 282 282 282 281 283 284 285 286 285 286 286 285 284 284 285 286 287 286 287 286 285 285 284 282 280 278 278 278 278 277 276 275 273
272 274 276 276 278 279 281 281 281 281 281 281 281 281 281 282 283 284 285 284 283 284 284 284 285 286 286 285 285 285 285 284 283 281 279 279 280 278 276 277 275 274 272
272 273 275 277 277 276 277 278 278 279 280 279 279 280 280 280 282 285 286 284 284 285 284 284 284 284 283 283 282 282 282 283 282 282 280 278 277 276 276 276 275 274 272
270 272 273 272 273 274 274 275 278 279 280 281 282 282 281 284 285 286 286 286 286 286 284 283 283 283 282 281 280 279 279 279 279 280 279 278 276 275 274 274 275 273 270
267 268 269 270 270 271 271 271 270 274 277 279 280 281 282 283 285 286 286 286 286 286 283 284 283 282 280 279 278 277 275 275 276 277 277 275 274 274 274 272 272 271 269
265 266 267 269 269 269 269 269 270 269 269 271 276 278 280 282 283 285 286 286 284 284 283 282 280 279 278 277 276 275 274 273 272 273 273 273 273 273 272 271 270 269 267
264 266 266 267 267 267 267 267 268 269 269 270 272 276 279 282 283 284 286 284 282 281 279 278 278 276 275 274 274 273 272 270 271 271 270 269 270 270 268 267 265 265 265
264 265 265 265 265 266 266 266 267 268 268 269 271 272 276 280 279 281 282 282 280 277 276 275 274 274 273 272 271 269 269 269 268 268 267 267 268 268 266 264 263 262 261
264 265 264 264 265 265 265 265 266 267 268 269 270 273 277 277 279 280 277 278 277 274 273 272 271 270 270 269 269 268 268 267 266 265 265 264 265 262 263 263 258 257 257
263 264 265 264 264 264 265 266 266 266 267 268 270 272 277 278 279 275 273 271 271 271 271 270 268 267 267 267 267 266 265 264 263 263 262 261 261 260 258 257 257 256 255
264 264 264 264 265 264 265 265 266 267 268 269 271 272 276 276 273 271 268 266 266 266 266 266 264 263 263 263 264 265 263 262 262 262 261 260 260 259 257 256 254 254 254
264 263 263 263 264 263 264 264 265 266 268 270 272 273 271 270 268 266 265 264 264 263 264 264 263 262 261 261 260 260 260 260 260 260 260 261 258 257 256 253 254 253 253
262 262 262 262 262 262 263 263 264 266 267 268 269 269 267 266 264 263 263 263 262 262 262 262 262 261 261 260 260 259 260 259 258 258 258 258 256 255 252 253 253 253 253
261 261 261 262 261 262 261 262 263 264 264 265 265 265 265 264 263 263 262 262 262 262 261 261 261 261 260 260 259 259 259 258 255 258 257 256 254 252 251 251 250 252 251

GFSGL_sfc_thetae_084.txt.gz
Theta_e
297 297 296 296 296 296 295 295 295 295 296 295 296 296 296 296 296 296 296 297 297 297 298 298 299 299 300 300 302 302 302 302 299 301 303 304 303 297 297 296 296 295 295
295 294 294 294 294 293 292 293 293 293 294 294 294 294 294 294 295 294 294 294 294 294 295 295 297 299 296 297 298 299 298 299 298 295 298 299 299 300 297 294 293 292 290
294 293 292 292 291 291 291 292 292 291 292 292 292 292 292 293 292 293 293 293 292 293 294 294 294 294 292 292 293 295 295 296 296 294 294 296 297 293 290 288 287 287 288
293 292 290 289 290 290 290 290 290 290 290 289 290 290 290 290 290 291 290 289 289 290 291 292 292 291 290 290 291 290 291 292 292 292 292 293 294 292 285 285 287 285 285
290 289 289 289 289 288 287 287 287 286 287 287 287 286 287 288 289 289 287 287 286 287 287 288 289 289 289 291 289 289 289 288 289 289 289 290 290 291 285 286 284 285 283
288 287 287 286 285 284 284 284 284 284 284 284 284 284 284 287 290 290 289 286 285 284 285 286 287 285 287 290 290 290 290 287 286 286 287 286 287 288 287 286 286 281 280
284 284 284 284 283 283 283 283 283 283 283 283 283 283 283 283 288 289 289 286 284 284 284 285 285 286 286 287 288 290 289 289 290 287 285 286 285 286 287 285 283 282 281
284 283 282 283 281 282 282 282 282 282 282 282 282 281 281 282 287 288 288 285 284 283 284 284 285 285 286 286 286 285 285 285 286 286 286 286 286 286 285 284 283 281 282
282 282 282 281 279 279 277 279 280 280 279 278 280 278 277 281 286 287 287 284 283 284 284 285 285 285 287 288 285 283 283 284 287 289 288 289 289 288 286 284 281 279 278
281 281 280 280 276 276 279 278 278 277 281 281 280 279 278 279 284 287 287 283 283 283 284 285 285 287 287 287 284 283 282 284 284 284 284 284 284 283 283 282 284 279 278
280 279 277 277 275 276 276 275 274 276 278 278 279 279 277 278 280 287 288 285 283 283 283 283 285 286 286 286 288 285 283 286 285 281 282 280 279 278 278 278 278 279 278
275 274 271 269 272 275 269 271 272 273 275 277 274 279 280 277 281 286 287 287 286 283 283 284 284 285 286 287 286 287 287 285 283 281 279 277 276 275 275 275 275 275 276
268 267 267 268 270 270 268 271 270 269 272 276 277 277 278 280 279 284 285 286 286 284 284 284 286 286 287 286 287 286 284 283 279 278 277 276 277 277 277 275 275 274 273
265 266 268 268 269 267 271 273 268 268 273 274 275 275 276 277 278 279 281 283 284 285 284 284 284 286 286 285 284 283 282 280 279 278 278 278 278 276 275 275 273 272 270
267 268 267 268 265 269 271 271 273 272 273 274 275 275 275 275 277 281 282 282 283 285 284 280 282 281 280 280 278 277 279 279 279 280 278 274 275 275 274 273 274 272 269
265 267 266 266 265 268 269 269 274 276 278 278 279 278 277 280 281 282 283 284 285 286 284 277 279 282 280 279 277 277 277 277 278 277 276 275 273 272 273 273 272 269 267
259 262 262 265 264 264 266 266 266 269 274 275 276 277 278 279 280 281 282 284 285 286 283 281 281 281 279 278 277 276 274 274 274 275 273 272 273 272 271 270 270 268 266
255 261 259 260 260 260 261 264 264 264 264 266 271 273 276 278 279 280 282 284 281 283 283 281 281 279 278 276 275 274 272 271 269 269 270 270 270 270 268 267 267 265 264
257 257 257 258 258 260 262 263 264 264 265 265 267 270 271 275 277 278 281 279 280 281 276 278 278 277 275 275 274 272 270 268 265 265 267 267 266 267 265 264 265 264 263
255 260 259 257 258 258 261 262 263 263 264 264 265 266 268 270 270 272 275 279 280 276 277 276 275 274 273 272 271 268 267 266 265 265 265 266 264 266 265 263 261 261 258
255 256 259 257 256 257 261 262 263 263 264 264 265 267 273 272 271 272 275 272 275 275 275 273 272 271 271 270 269 268 266 264 263 263 263 262 261 262 261 262 259 258 257
254 254 255 255 258 261 260 262 262 263 263 264 265 267 273 270 271 273 267 268 270 270 271 271 270 269 269 268 267 266 264 262 261 260 261 260 260 260 260 259 258 254 251
256 256 256 255 256 259 259 259 261 263 263 264 265 267 269 270 268 265 264 265 266 266 267 267 266 264 265 264 265 265 263 261 261 260 260 259 259 259 258 258 255 251 251
255 256 255 254 254 255 256 259 260 261 262 263 264 266 266 264 263 259 260 263 264 264 264 264 264 263 262 261 261 261 261 259 260 260 260 260 259 259 257 253 252 251 251
253 254 253 253 253 254 255 256 259 259 261 261 262 263 263 261 260 257 259 261 262 262 262 262 262 262 260 260 260 260 262 261 258 259 259 259 258 257 255 255 253 251 249
252 252 251 252 252 252 252 255 257 258 259 260 261 261 261 259 259 258 259 260 262 262 262 262 261 261 261 260 260 261 259 260 258 259 258 258 257 255 254 253 253 250 248

GFSGL_sfc_thetae_087.txt.gz
Theta_e
296 295 294 293 293 293 293 292 293 293 293 292 293 292 292 292 292 292 292 293 292 292 292 292 293 294 295 296 296 296 296 297 293 295 297 298 298 298 299 298 298 299 298
294 293 292 292 291 291 290 291 291 290 291 291 290 290 290 290 290 290 290 291 290 290 290 291 291 293 292 293 293 292 293 293 292 290 293 294 293 295 297 294 296 295 294
292 291 290 290 290 289 289 289 289 289 289 288 288 288 288 289 288 289 290 288 288 288 289 288 289 289 288 288 289 289 290 290 290 289 289 292 292 293 293 293 290 291 290
290 289 288 288 288 287 287 287 287 287 287 286 286 286 287 287 287 287 288 287 287 287 287 287 287 287 286 287 287 288 288 287 287 286 287 287 289 291 288 287 288 289 288
288 287 287 286 286 286 285 284 284 284 285 285 285 284 284 285 286 286 286 285 284 285 284 284 285 285 287 288 287 287 286 285 285 285 284 285 286 287 287 289 288 289 285
286 286 285 284 283 283 283 283 283 283 283 283 282 282 282 284 287 288 288 284 284 283 283 283 283 283 286 287 288 288 288 285 285 285 284 284 284 285 287 286 285 284 283
283 283 283 283 282 282 282 282 282 281 281 281 281 281 281 281 286 288 288 284 283 283 282 282 283 284 285 285 287 288 287 287 288 285 283 283 283 285 285 283 283 284 281
283 282 282 282 281 281 281 280 280 280 280 280 280 280 280 281 286 287 287 283 282 282 283 284 284 284 285 285 286 285 285 285 285 285 285 285 285 286 285 284 283 281 282
282 281 281 281 279 278 276 277 279 278 278 277 279 277 275 278 284 286 286 282 282 282 282 284 284 284 286 288 285 283 282 283 287 288 288 287 285 286 287 283 280 279 277
281 280 280 279 275 275 277 275 277 276 278 278 279 276 275 275 282 285 286 282 279 281 282 284 285 285 287 287 284 283 283 283 282 283 279 280 280 279 281 279 282 278 278
279 278 277 276 274 275 274 274 273 271 273 269 274 275 273 275 276 285 286 283 281 281 283 283 284 286 286 287 288 285 284 286 282 277 277 277 277 276 276 276 277 279 277
275 274 272 271 274 274 267 269 267 266 266 270 271 274 274 274 279 283 284 284 285 281 283 283 284 286 286 287 286 287 286 285 277 276 276 276 275 275 275 275 275 275 276
273 272 272 270 270 268 265 266 269 265 265 269 271 272 274 275 274 281 282 283 283 282 283 284 287 287 286 286 285 286 284 280 274 275 276 277 277 278 277 275 274 274 273
272 272 271 270 268 265 270 270 265 264 265 268 269 271 273 274 274 274 277 280 281 282 283 284 285 285 286 285 280 280 278 277 277 278 278 277 277 276 274 275 272 272 270
270 271 269 268 266 267 268 267 269 270 269 265 265 268 272 272 274 279 279 279 280 281 281 282 283 275 279 277 275 276 276 276 277 279 277 273 275 274 273 273 273 269 267
269 268 267 266 265 266 265 265 271 274 275 276 277 276 274 277 278 279 280 281 282 283 281 280 281 278 279 279 275 277 276 277 278 278 273 274 272 272 273 271 270 268 267
264 264 264 265 263 262 261 260 262 265 271 273 274 275 276 276 278 278 279 280 281 282 280 281 281 277 279 279 278 277 275 275 276 276 275 271 272 271 271 269 269 267 265
260 263 260 259 258 257 258 258 257 259 261 263 268 271 274 275 275 277 278 279 274 278 279 280 280 279 280 278 277 275 274 273 273 272 270 270 271 270 268 267 267 265 264
259 258 257 257 257 258 257 258 258 259 261 262 263 267 267 272 273 276 277 271 271 275 277 278 281 280 278 277 276 274 273 272 270 268 264 266 268 268 264 265 266 265 262
254 258 258 255 255 256 257 257 258 258 260 261 262 263 264 267 269 269 270 271 272 274 274 275 277 276 276 275 273 272 270 270 268 266 262 263 265 265 264 262 263 264 260
254 255 259 255 255 255 255 256 257 257 260 261 262 264 271 269 267 267 269 269 268 268 269 271 269 272 273 272 271 270 270 269 267 263 262 263 263 261 262 263 260 260 260
255 254 254 254 255 256 255 255 256 257 259 260 262 263 270 266 267 266 265 265 265 265 266 267 269 269 270 270 270 269 268 266 265 264 262 260 260 261 260 260 260 258 257
257 256 255 254 253 254 253 252 253 254 257 259 260 262 262 263 263 262 262 261 261 262 263 264 265 266 266 266 267 267 265 264 264 263 261 260 260 259 260 258 258 256 256
255 255 254 253 253 253 252 252 253 255 256 257 257 259 261 261 261 260 259 258 259 260 262 263 263 263 263 262 262 259 261 262 263 262 261 260 259 259 258 257 257 256 254
253 253 253 253 251 252 251 251 253 251 252 254 256 257 259 260 259 258 257 257 258 260 261 262 262 262 262 261 260 260 262 262 262 262 262 261 260 258 257 257 256 254 252
252 252 251 251 251 250 249 250 251 252 252 253 254 256 257 259 259 257 258 258 260 262 262 262 262 261 261 260 259 260 261 262 261 261 259 259 258 257 256 256 255 255 254

GFSGL_sfc_thetae_090.txt.gz
Theta_e
295 295 294 293 292 292 292 291 291 291 291 290 290 290 289 289 289 289 289 289 287 287 288 288 288 289 290 290 290 291 291 291 288 289 291 292 291 291 292 294 295 295 296
293 292 291 291 290 290 289 289 289 289 289 288 288 287 287 287 287 287 288 286 286 285 286 286 286 288 287 288 288 287 288 289 287 285 287 288 288 290 291 290 291 293 294
291 290 290 289 288 287 287 288 288 287 286 286 286 285 285 286 285 286 286 286 285 285 285 285 285 285 283 284 284 286 287 287 287 285 284 287 287 288 288 289 289 290 290
290 289 287 286 286 286 286 286 286 285 285 284 284 284 284 284 284 285 285 285 284 285 286 285 284 283 282 283 284 285 285 285 284 284 284 284 285 287 287 285 286 288 288
288 287 286 285 285 285 284 283 283 283 283 283 282 282 282 283 284 284 284 283 283 283 283 283 283 283 285 285 285 284 284 284 283 283 282 283 283 283 283 285 284 285 285
286 285 285 284 283 282 282 282 282 281 281 281 281 281 281 283 286 288 286 283 283 282 282 282 283 283 285 286 287 288 287 284 283 282 282 281 281 283 283 283 283 282 280
284 283 283 282 282 282 281 281 281 280 280 280 280 280 280 280 285 287 287 283 282 281 281 282 282 283 284 283 285 287 286 287 287 284 282 281 281 283 283 283 283 282 281
283 282 281 281 280 280 280 280 280 280 280 280 280 279 279 280 284 286 287 283 282 281 281 281 281 282 283 283 285 284 284 282 283 284 284 284 284 283 282 283 282 281 281
282 281 281 280 279 278 277 277 279 278 277 276 279 275 274 277 283 285 285 281 282 281 282 281 281 283 285 286 284 283 282 284 286 287 286 285 284 283 282 280 279 278 277
281 281 280 279 276 276 278 276 277 275 277 278 277 275 274 273 281 284 284 279 277 280 280 282 283 285 286 286 284 284 283 283 284 274 273 277 278 277 279 276 278 277 277
279 278 277 276 276 276 275 275 272 271 273 268 272 273 272 272 274 282 283 280 279 279 279 280 283 285 285 287 287 284 284 286 283 270 270 271 272 275 275 275 276 276 277
276 275 274 272 276 274 272 271 269 266 265 266 266 270 272 272 278 280 282 282 282 277 278 279 280 284 285 287 287 286 287 285 279 268 268 268 271 274 275 275 274 274 274
273 271 270 272 273 273 271 272 269 264 265 268 270 269 271 273 272 279 279 281 281 279 279 281 283 284 285 285 286 285 283 282 276 268 269 273 275 278 275 274 274 274 273
271 271 272 272 272 271 272 272 268 265 266 268 265 265 267 268 270 272 275 276 278 279 280 279 281 283 284 285 282 281 278 280 278 272 272 274 276 275 272 273 272 273 269
273 273 272 271 271 269 270 269 270 269 269 262 262 264 265 268 269 278 278 278 278 279 280 278 278 278 279 278 273 275 275 276 277 273 271 271 274 273 272 274 272 269 267
273 272 271 270 269 268 267 266 271 273 274 275 276 274 268 276 277 278 279 280 280 281 277 276 277 278 278 277 273 274 274 276 277 276 272 273 274 271 271 271 270 266 265
272 269 268 268 267 265 264 262 262 265 270 272 273 274 274 275 276 277 278 279 279 277 273 275 277 278 279 277 276 273 274 276 276 276 276 275 270 270 271 268 267 267 264
267 266 266 264 263 262 262 262 261 260 257 259 266 270 272 273 275 276 278 274 268 270 270 274 273 274 277 279 276 275 275 275 274 275 274 273 269 269 269 267 267 262 262
263 263 263 262 262 262 261 260 259 257 257 257 259 264 265 270 273 274 274 261 266 268 269 269 271 272 274 277 278 276 274 274 274 273 272 270 267 266 266 265 266 264 261
262 262 261 260 259 258 259 258 258 258 257 256 256 257 260 262 263 262 260 261 264 265 265 265 267 269 271 273 275 274 272 272 272 271 270 269 266 265 265 265 265 262 260
260 260 260 258 256 256 256 257 258 256 256 256 258 261 271 263 261 264 263 262 262 262 262 263 264 266 269 271 270 270 269 271 270 269 268 267 265 262 262 266 264 261 259
260 259 258 257 257 257 255 256 256 255 256 256 258 259 267 257 257 259 260 260 261 260 261 262 262 264 266 267 268 269 268 268 268 267 266 264 262 260 260 261 261 260 258
258 257 256 254 255 256 255 254 255 255 254 254 255 256 256 254 255 257 258 258 258 258 259 259 261 262 262 264 264 265 267 267 266 263 265 263 261 261 260 260 258 257 258
256 256 257 257 257 257 257 255 254 254 253 252 250 252 255 256 256 257 256 256 256 256 255 257 261 261 262 262 262 262 263 263 261 262 263 263 262 261 260 258 258 256 258
256 257 257 257 256 256 254 253 253 251 250 251 251 252 253 254 254 254 254 255 255 256 256 258 258 261 262 261 261 261 262 262 262 263 263 263 262 261 260 258 257 256 256
256 256 255 254 253 251 251 253 252 252 251 251 251 251 252 253 254 254 255 255 256 256 256 256 256 258 261 262 261 263 262 264 262 263 262 262 261 260 258 257 257 257 256

GFSGL_sfc_thetae_096.txt.gz
Theta_e
306 306 305 303 302 301 298 296 295 293 291 289 288 287 286 286 286 285 284 284 283 283 283 283 283 283 282 282 283 283 283 283 281 282 284 285 284 285 286 287 287 286 287
301 301 299 298 297 295 294 293 292 290 288 287 286 285 284 284 284 284 283 283 282 282 282 282 281 283 281 281 283 283 282 282 282 280 282 283 284 286 286 285 285 286 285
297 296 295 294 294 293 291 289 288 286 285 285 284 283 283 283 283 283 283 283 283 283 282 282 281 281 280 280 280 280 281 283 284 282 282 284 284 285 284 283 283 283 284
295 294 293 292 291 290 288 286 285 284 284 283 283 282 282 282 283 283 283 283 282 282 283 282 282 281 280 279 280 280 283 283 283 283 282 282 283 284 284 281 280 281 282
292 291 290 288 288 287 285 284 283 283 282 282 281 281 281 282 284 283 283 282 282 281 282 282 282 281 284 284 283 283 283 283 283 281 281 281 281 282 280 281 279 280 278
290 288 287 286 284 284 283 283 282 282 281 281 281 280 280 282 287 287 284 282 282 281 281 281 281 280 282 285 285 286 285 282 282 282 281 281 281 282 280 279 278 278 275
286 285 284 284 283 283 282 282 281 280 280 280 280 280 279 280 286 287 286 282 282 281 281 282 282 282 281 281 284 286 285 286 286 284 282 282 282 281 280 278 274 274 274
284 283 282 283 282 281 280 280 280 279 279 279 279 279 278 281 285 286 285 282 281 281 281 281 280 281 281 281 283 281 281 283 284 284 283 282 282 282 281 279 277 276 273
283 283 282 282 281 280 279 279 279 279 277 277 278 275 276 277 284 285 283 280 281 280 281 281 280 280 282 284 280 275 278 283 285 287 286 285 283 281 281 270 267 267 266
284 283 282 282 281 280 279 279 278 277 277 277 277 274 274 274 282 283 282 280 276 278 279 279 281 281 283 284 279 275 276 282 281 282 280 280 275 274 277 271 274 273 269
283 281 280 279 279 279 278 277 276 276 274 272 274 274 274 275 277 281 282 280 278 276 275 276 278 281 283 284 285 276 278 284 284 281 279 278 269 270 272 271 271 271 268
281 280 279 278 278 278 276 274 274 273 273 273 273 273 274 275 278 279 280 280 281 274 275 277 276 281 283 284 283 284 285 285 282 281 278 277 269 271 273 272 272 272 273
280 279 277 276 276 276 274 273 273 274 274 273 274 273 274 275 274 277 278 280 280 277 277 278 282 282 282 281 282 283 281 282 282 280 279 278 275 276 275 273 271 272 271
279 276 276 275 273 273 275 275 274 274 274 274 274 274 273 272 272 273 275 275 277 278 279 275 278 280 281 281 276 278 277 275 278 279 278 275 276 275 274 273 268 269 265
277 275 275 274 274 273 274 274 274 274 275 274 274 273 271 271 272 277 277 275 274 275 272 268 269 271 273 273 273 275 273 272 272 272 276 274 274 275 274 274 270 267 263
275 275 274 273 273 273 272 271 276 276 277 278 277 274 273 275 277 278 278 280 280 278 266 265 266 268 268 269 270 274 276 275 271 275 274 274 273 274 274 272 270 266 264
276 274 274 273 273 272 272 271 269 271 273 275 275 274 275 275 276 277 278 278 275 272 263 261 261 263 265 267 267 271 272 274 276 275 276 275 274 275 273 271 269 267 265
275 275 274 274 273 272 271 272 272 270 268 267 270 271 273 273 275 276 275 270 263 263 258 258 257 259 262 263 265 267 269 271 273 273 274 274 274 274 270 269 269 265 265
274 274 273 272 272 271 270 268 268 267 267 266 264 267 267 271 273 271 270 260 258 257 256 256 254 256 260 261 262 264 265 267 269 270 272 272 273 272 270 271 270 268 266
273 272 271 270 268 268 267 266 266 265 265 264 264 264 263 262 261 259 258 256 254 254 253 253 255 256 258 259 260 262 263 264 266 267 269 271 272 270 271 270 269 266 264
270 269 269 268 267 267 266 265 265 264 264 263 263 264 267 261 260 259 257 255 255 254 254 254 256 256 257 257 259 259 259 261 263 267 268 269 269 267 270 270 268 265 263
266 266 266 265 265 264 264 264 264 264 263 263 262 261 269 261 259 257 255 254 255 254 255 255 256 256 257 256 257 258 258 258 260 263 264 266 266 267 267 267 266 264 262
265 264 264 263 263 263 262 262 262 262 262 261 261 260 259 257 255 254 254 254 255 255 254 252 253 254 253 253 254 258 258 258 259 261 262 264 265 266 266 265 264 261 261
264 264 263 261 261 261 262 261 261 261 260 260 258 256 257 255 254 255 256 255 254 253 252 252 251 252 253 253 251 252 255 258 260 261 261 263 264 265 265 264 263 260 261
263 263 263 262 262 262 261 261 260 259 258 257 257 256 255 256 255 255 255 252 252 252 252 252 252 252 253 254 254 254 254 259 258 259 260 261 262 262 262 262 262 262 261
259 261 262 262 261 261 260 260 259 258 258 257 256 256 255 256 256 255 253 251 251 252 252 252 252 253 254 254 255 257 259 263 263 263 262 260 261 262 263 262 261 261 261

GFSGL_sfc_thetae_099.txt.gz
Theta_e
312 319 316 313 312 310 308 304 301 297 295 292 292 291 290 289 288 288 288 287 286 287 286 286 286 286 285 285 286 286 286 285 282 284 286 287 287 287 288 289 289 287 288
308 309 308 307 305 304 301 299 297 294 292 290 289 289 288 288 287 287 286 286 286 285 285 285 284 284 284 284 285 285 285 285 283 282 284 286 286 287 287 287 286 286 287
302 303 302 301 301 299 296 294 293 291 289 288 287 287 286 286 286 286 286 286 285 285 285 284 284 284 283 284 284 284 284 285 285 283 283 285 286 287 286 285 285 285 286
299 299 298 298 297 295 293 291 290 289 287 286 286 285 285 285 285 285 285 285 285 285 285 285 284 284 283 283 283 283 284 284 284 284 283 284 285 286 285 282 281 284 283
296 296 295 293 292 291 289 289 287 287 285 285 284 284 284 285 285 285 285 284 284 284 284 284 284 284 284 285 284 284 284 284 284 282 282 283 283 283 281 281 280 281 283
294 293 291 289 288 288 286 285 285 284 283 283 283 282 283 285 288 287 285 284 283 283 283 283 284 282 284 285 285 286 286 284 283 283 283 281 282 283 282 280 280 278 278
290 288 288 287 286 286 285 284 282 282 282 281 281 282 282 284 288 288 286 284 283 283 283 283 283 283 282 283 284 285 285 286 286 285 283 282 282 282 281 280 279 279 279
288 287 286 286 285 283 283 282 281 281 281 281 280 281 281 284 288 287 285 283 283 282 282 282 282 282 282 283 283 283 283 283 284 285 285 285 284 284 282 281 279 278 280
287 286 285 285 284 282 282 280 280 280 280 279 280 279 281 282 286 286 283 282 281 281 282 282 281 281 282 283 282 279 279 282 286 287 288 287 284 283 282 278 277 276 278
285 285 285 285 284 282 281 280 279 280 279 279 278 278 277 280 285 285 283 281 280 280 280 280 280 281 282 283 283 279 276 279 283 284 284 284 280 278 278 276 276 276 277
285 283 282 282 282 282 280 279 279 278 278 277 276 275 276 278 282 284 283 281 280 279 278 278 279 281 282 284 285 280 279 283 284 284 283 282 280 278 277 276 275 276 275
283 282 281 281 281 280 279 278 277 277 275 275 275 275 276 276 279 282 282 281 282 279 278 279 279 281 283 284 283 283 284 284 283 283 282 281 281 279 277 276 275 275 276
282 281 280 280 279 279 278 276 276 276 276 275 275 275 274 275 276 279 279 280 280 279 279 279 282 282 282 281 281 282 279 280 280 280 280 281 281 280 278 276 275 274 273
282 280 278 278 277 277 277 277 276 276 276 275 276 275 275 274 275 275 277 278 278 279 279 278 278 279 280 280 276 277 277 277 277 278 279 281 280 278 277 277 275 274 273
280 278 278 277 277 275 276 276 276 276 278 277 277 277 275 274 275 277 278 277 277 278 277 274 274 274 273 273 273 274 276 277 277 277 277 278 278 277 277 277 275 273 273
278 277 277 276 276 275 275 274 278 278 279 279 279 277 275 277 278 279 279 279 280 278 272 271 270 269 269 269 269 270 272 274 275 276 276 276 277 277 277 276 275 273 272
279 277 276 275 275 274 274 274 272 276 278 280 279 279 277 277 278 278 278 279 276 273 270 267 266 266 266 266 266 267 268 270 272 274 274 275 276 276 276 276 274 273 271
277 276 276 276 275 275 274 274 273 271 271 270 275 274 276 276 276 277 277 273 269 267 265 264 264 263 263 263 264 265 265 267 268 269 270 271 273 275 275 274 274 272 271
275 275 276 275 275 275 274 274 275 274 273 270 267 270 273 273 275 274 272 267 266 264 263 262 261 261 261 261 262 262 263 264 265 265 267 268 271 273 274 274 274 272 271
275 275 275 274 273 272 272 272 271 270 270 269 267 268 266 266 266 265 264 262 261 261 261 260 260 258 259 259 260 260 261 262 262 263 265 267 269 271 272 272 273 271 270
271 270 271 272 272 271 271 270 270 269 268 267 267 267 268 266 266 264 262 261 260 259 259 259 258 258 258 258 258 259 259 260 260 261 263 265 266 267 269 271 272 271 270
269 268 268 267 267 268 267 268 267 267 267 266 265 265 272 265 264 262 261 260 260 259 258 258 257 257 257 257 257 258 258 258 259 259 261 261 263 266 267 268 269 269 268
267 267 267 266 267 266 266 266 266 266 265 265 265 264 263 263 262 261 261 260 259 258 257 256 256 255 256 255 256 258 258 258 259 260 260 260 262 264 266 266 267 267 266
264 265 264 265 265 265 265 264 263 263 263 263 263 262 262 261 260 260 259 258 257 257 254 254 254 254 254 254 255 255 255 257 258 259 259 260 261 263 264 265 265 265 266
258 262 263 262 263 263 263 263 263 263 262 262 261 261 260 260 259 258 257 256 255 256 257 256 255 254 254 254 255 255 255 258 257 258 259 261 261 261 262 263 264 264 264
256 258 260 262 263 263 263 263 262 262 261 261 260 260 260 260 259 259 258 257 256 257 256 256 254 253 254 255 255 256 257 261 262 261 263 262 262 261 262 263 263 263 263

GFSGL_sfc_thetae_102.txt.gz
Theta_e
324 326 326 325 325 325 323 320 317 306 305 300 298 296 294 294 295 294 293 293 292 291 291 291 290 290 290 290 291 290 290 289 287 289 290 290 289 289 290 290 289 289 288
320 322 321 321 318 315 314 311 306 304 301 297 295 294 292 293 293 292 290 290 290 290 290 289 288 288 288 289 289 288 289 289 287 285 288 288 288 289 289 288 287 288 287
309 317 314 312 311 311 308 304 302 299 298 293 292 291 292 292 291 291 290 290 290 290 289 288 288 288 288 288 288 288 288 287 288 286 286 288 288 289 287 287 287 287 287
308 310 311 310 310 306 304 301 298 295 294 291 292 290 291 291 290 289 289 289 289 289 289 288 288 288 288 287 287 287 287 287 287 286 286 286 287 287 287 283 283 286 285
306 305 306 304 303 301 297 297 294 292 292 289 289 289 290 289 288 288 288 288 288 287 287 287 287 286 285 287 287 286 286 286 286 285 285 285 285 284 282 283 282 282 286
304 304 303 297 293 293 291 290 288 288 287 287 287 286 288 286 289 289 288 287 287 286 286 286 286 284 285 286 286 285 286 285 285 284 284 283 283 283 283 281 281 280 279
300 294 292 292 291 290 288 286 287 286 286 286 285 286 286 287 289 288 287 286 286 286 285 285 284 284 284 285 285 286 286 286 286 285 283 284 283 285 283 281 281 280 279
295 292 290 290 288 286 286 287 284 284 284 283 285 286 286 287 289 288 286 286 286 285 285 285 284 284 284 284 284 284 284 285 285 286 286 286 285 286 284 282 281 280 281
292 291 290 289 286 285 284 283 283 283 282 283 284 284 285 286 289 288 286 285 283 283 283 283 283 283 283 284 284 283 283 284 286 286 287 288 288 285 284 282 279 278 280
290 289 289 288 287 285 284 283 283 283 283 282 282 284 285 285 288 287 285 284 283 282 282 281 281 282 282 283 284 283 281 282 284 285 285 286 287 283 282 281 281 278 278
289 287 287 287 286 286 284 282 283 282 282 282 281 281 283 285 286 287 285 283 283 282 281 280 281 281 282 283 285 285 283 284 284 284 285 286 285 283 281 281 280 280 280
286 286 285 286 285 284 283 282 282 281 280 280 279 279 280 281 284 285 285 283 283 282 281 281 281 281 283 284 284 284 284 284 285 283 282 283 283 283 283 282 280 279 280
285 285 285 285 284 284 282 281 281 281 280 279 278 278 277 278 281 283 283 283 283 281 281 281 281 283 282 282 282 282 281 281 281 280 281 282 283 283 283 281 279 278 277
285 284 283 282 282 282 282 281 281 280 280 278 278 278 277 277 277 280 280 281 281 280 280 281 280 280 280 281 278 278 279 280 279 279 280 281 282 281 280 281 279 278 276
285 283 282 283 282 281 281 281 281 282 282 280 280 280 278 276 277 279 279 279 279 280 279 278 277 277 276 276 276 275 276 277 278 278 278 278 279 280 280 281 279 279 276
282 281 282 281 281 280 279 278 280 280 281 282 283 282 279 281 281 281 281 282 281 281 277 276 275 274 273 273 273 272 273 274 275 276 276 276 277 277 278 280 279 278 277
283 282 280 280 279 278 278 278 277 279 281 281 282 281 280 280 281 282 282 281 281 279 275 274 274 272 271 270 270 270 270 271 271 272 274 274 275 275 276 277 279 278 277
281 280 280 279 279 278 278 278 277 276 276 276 280 280 280 281 281 281 280 279 274 272 272 272 271 270 269 268 268 268 268 268 269 270 270 271 271 272 273 275 277 277 277
279 279 279 279 279 278 278 277 276 276 276 275 272 276 278 279 279 279 280 274 273 272 269 268 268 267 266 266 266 266 266 266 267 266 268 269 270 271 271 273 275 275 276
278 277 278 278 277 277 277 277 276 276 276 274 272 272 272 273 274 273 272 270 269 269 268 267 266 265 265 264 265 265 265 265 266 266 266 267 268 269 269 271 272 273 274
276 276 275 277 276 277 276 276 277 277 276 275 274 272 272 270 271 271 269 267 267 267 266 266 265 264 264 264 263 264 263 265 265 264 265 265 266 265 267 269 270 272 273
274 273 274 274 273 273 274 274 273 273 272 272 270 270 274 271 270 269 268 267 266 266 265 265 264 264 264 263 263 264 263 263 264 264 264 263 264 265 266 268 269 270 271
272 272 272 271 272 271 272 272 272 271 271 270 270 269 268 271 269 268 267 266 265 264 263 263 263 262 262 261 262 262 262 263 263 263 262 262 263 264 265 266 267 268 269
270 270 270 270 270 270 270 270 269 267 268 268 268 267 267 267 266 266 265 265 263 263 262 261 261 261 261 261 262 262 261 261 262 262 261 261 262 263 264 265 265 266 267
267 268 268 268 268 268 268 268 268 267 267 267 267 266 266 265 264 264 263 263 262 261 261 261 260 260 260 260 260 260 260 260 260 261 261 262 262 262 263 264 264 265 265
264 265 266 266 267 267 267 267 267 266 266 266 266 265 265 264 264 263 263 262 261 261 261 261 261 260 260 260 260 260 259 260 261 260 262 263 263 264 264 264 264 264 264

GFSGL_sfc_thetae_108.txt.gz
Theta_e
321 324 326 327 328 328 328 328 328 325 322 319 315 310 308 305 304 300 297 296 295 293 292 290 289 289 288 288 288 288 287 286 285 285 286 286 286 285 286 286 286 285 284
315 318 320 323 323 325 326 327 324 324 318 315 310 307 304 303 301 298 296 295 293 290 290 288 287 289 287 287 287 287 287 286 286 284 285 285 285 285 285 283 285 286 284
306 311 315 317 319 321 322 320 316 312 311 309 308 304 302 301 298 297 295 293 291 290 289 288 287 286 285 285 286 286 286 287 286 284 284 284 284 283 282 282 282 282 285
303 305 309 311 314 317 318 314 310 307 306 304 305 303 302 299 297 295 293 291 290 290 288 287 286 286 285 285 285 285 285 284 284 284 283 282 281 282 280 279 278 278 278
302 302 304 308 312 311 309 306 303 301 303 302 300 299 298 296 295 293 291 290 289 288 287 286 286 286 288 287 286 284 284 283 283 283 283 279 279 279 280 280 281 281 278
301 301 302 303 301 301 298 296 295 294 294 294 292 292 292 293 293 292 290 288 287 287 286 284 284 284 288 290 290 289 287 285 283 282 282 280 280 280 279 278 280 279 277
297 294 294 292 292 293 293 292 291 291 290 290 289 288 288 288 292 292 290 287 286 286 285 284 283 283 284 284 287 288 287 288 287 284 282 280 278 280 278 275 280 279 279
292 291 290 290 289 287 288 289 288 288 288 287 287 287 287 286 292 291 289 286 286 285 285 284 283 282 283 283 283 283 283 284 284 284 282 281 283 284 282 282 281 279 280
290 290 288 288 285 287 286 286 286 286 285 285 285 285 285 287 291 290 287 285 284 284 284 284 283 282 285 286 283 282 282 283 286 287 287 287 287 287 286 281 278 277 276
289 289 288 286 286 287 286 285 283 284 284 284 284 285 285 286 290 289 287 285 284 283 282 282 283 283 286 286 282 282 280 281 282 281 281 284 285 284 288 283 279 277 277
287 285 283 283 284 286 285 283 284 284 283 283 284 285 286 287 288 289 287 284 283 281 281 280 282 285 286 286 285 282 282 283 284 281 280 281 280 283 280 282 281 280 278
281 280 279 280 282 285 285 284 283 283 283 282 283 282 283 285 287 289 288 286 285 281 280 281 281 285 285 285 284 285 286 285 282 280 280 280 279 281 283 281 281 281 282
278 276 277 278 285 285 285 283 282 283 282 281 281 281 281 282 286 288 287 286 286 282 282 282 283 285 285 285 285 285 283 280 278 277 278 279 279 281 281 281 281 281 280
277 277 277 277 277 281 283 283 283 282 282 281 280 280 280 281 283 285 284 283 284 282 283 283 283 283 283 282 281 282 280 278 278 277 277 277 279 278 278 279 279 278 277
276 276 276 277 277 277 280 282 281 282 283 282 282 282 279 279 281 284 283 282 282 281 280 279 278 278 277 278 278 278 277 276 275 275 274 275 276 276 277 277 279 278 276
276 275 275 275 275 275 275 274 283 283 285 286 285 283 281 282 284 285 285 284 284 283 277 276 277 277 277 277 276 275 275 274 273 274 273 272 272 273 273 274 276 276 276
275 274 274 275 273 272 272 273 273 278 283 284 285 284 284 283 284 285 285 285 284 283 278 278 278 277 277 276 275 274 273 272 271 270 269 269 270 269 270 269 270 272 274
272 273 272 272 271 271 271 271 272 272 272 276 282 282 283 283 284 284 284 284 280 282 280 277 276 276 275 274 273 272 271 270 268 267 267 266 264 265 264 265 267 269 271
270 269 269 269 270 271 270 270 270 270 271 273 276 279 280 283 284 284 284 281 279 279 276 275 275 274 273 272 271 270 269 268 267 265 263 263 263 263 263 265 267 269 269
268 271 270 268 268 268 268 268 268 269 269 268 270 271 274 277 279 280 281 279 276 275 274 272 271 271 270 269 268 268 267 266 265 264 264 265 264 262 264 262 261 264 265
265 266 268 267 267 266 266 267 274 268 269 268 268 270 277 273 273 273 274 272 272 272 272 271 269 268 267 267 266 266 266 266 266 266 265 264 264 264 263 263 263 263 264
264 263 264 264 265 266 264 264 264 266 267 265 264 266 278 267 269 270 271 271 270 270 270 269 268 267 267 266 266 265 265 265 265 265 265 264 264 263 263 263 263 264 264
264 264 265 263 263 263 263 262 263 262 262 262 262 263 263 266 265 266 268 268 268 267 267 267 266 266 266 266 266 266 265 265 265 265 264 263 263 263 263 262 263 262 263
261 261 261 260 259 260 261 261 262 263 264 265 265 266 265 266 266 265 265 265 264 263 264 264 265 265 264 264 264 264 264 264 264 264 264 262 262 262 262 262 262 262 263
256 257 258 258 257 256 257 257 258 258 259 260 261 262 263 263 264 263 262 262 261 261 260 261 261 262 263 262 262 263 263 265 263 263 262 262 261 261 261 261 262 262 262
256 256 255 254 254 254 255 256 255 257 258 258 258 258 258 258 256 256 257 257 258 259 259 259 260 261 261 261 261 262 263 264 263 263 261 261 260 260 260 260 261 261 262

GFSGL_sfc_thetae_111.txt.gz
Theta_e
324 326 326 326 326 325 324 325 326 323 323 321 321 320 317 314 311 311 308 303 302 296 293 293 291 290 288 287 287 287 286 286 284 284 286 286 286 286 286 285 285 284 284
317 321 321 324 324 324 325 325 324 322 323 323 320 317 314 311 309 308 304 302 300 295 292 290 290 289 287 287 287 286 286 286 286 283 284 284 284 285 286 283 284 285 283
305 311 313 316 319 322 324 325 323 322 323 320 316 314 310 308 306 306 304 300 298 296 293 291 289 288 286 286 286 286 286 286 285 283 283 284 284 284 284 282 281 281 284
299 300 303 307 311 315 316 314 313 313 312 312 313 312 309 306 305 304 302 298 296 296 293 290 289 288 287 286 285 285 285 283 283 282 282 282 283 283 282 281 277 278 279
300 300 300 302 307 308 309 308 307 306 307 306 304 303 302 302 302 300 298 296 294 291 290 289 288 287 288 288 286 284 285 282 282 282 282 281 282 282 281 280 278 279 279
299 299 299 299 299 299 299 298 298 298 298 298 297 297 298 300 297 296 295 294 290 289 288 286 286 285 288 289 290 289 287 284 283 282 282 282 283 282 281 279 277 277 276
297 294 293 293 295 294 293 294 293 293 292 292 292 291 291 292 294 294 292 291 289 289 287 286 284 285 286 287 290 289 289 289 288 284 283 283 282 282 279 274 277 278 279
292 291 290 290 289 289 291 291 290 290 290 289 289 289 289 288 293 293 290 287 287 287 286 286 285 284 285 285 285 284 284 284 285 285 284 284 283 283 281 280 279 278 280
290 290 289 289 284 288 287 288 289 288 286 286 285 286 286 286 292 292 289 286 285 285 285 285 285 284 286 287 284 283 282 282 287 287 287 287 287 287 285 282 275 274 274
289 289 288 286 283 287 287 285 284 284 285 284 284 285 285 286 291 291 288 285 285 284 284 284 284 284 286 287 283 282 280 281 282 281 282 285 287 286 288 285 282 276 275
285 284 282 282 285 286 286 283 284 284 283 284 284 284 285 286 287 290 289 285 285 284 283 282 283 286 287 287 285 282 282 282 284 282 281 281 281 281 281 283 284 282 278
279 279 278 282 285 285 286 284 284 284 284 283 283 282 283 283 287 290 289 286 286 283 282 282 283 286 287 287 286 285 286 284 282 281 280 280 280 281 283 281 281 282 283
278 276 281 279 285 285 285 284 283 284 283 281 281 281 281 282 285 289 288 287 285 282 282 282 284 286 286 286 287 286 284 283 281 280 280 280 280 281 281 281 281 281 281
275 276 275 275 275 278 283 283 284 283 282 281 281 281 280 281 283 285 285 285 284 283 284 283 284 284 285 284 282 285 283 282 281 280 279 279 279 279 279 280 279 279 278
275 275 275 274 272 273 276 280 281 281 283 282 282 282 280 280 282 285 284 283 283 283 281 281 281 281 280 280 279 279 280 279 278 278 277 276 277 277 277 277 278 278 276
275 275 274 273 272 273 271 272 282 283 285 286 286 283 282 283 285 287 287 286 285 284 279 279 278 278 278 278 278 278 277 277 277 276 275 275 276 276 276 275 276 275 275
271 271 270 272 271 270 269 269 270 275 284 285 285 284 284 283 285 286 287 286 286 285 276 277 277 277 277 278 277 277 276 275 275 274 274 274 273 273 272 273 273 273 272
268 270 269 268 268 268 268 268 267 267 268 276 282 283 283 283 284 285 285 285 281 283 280 273 276 277 277 277 275 274 274 272 272 271 271 270 270 270 269 269 270 269 270
270 269 266 266 266 267 266 266 266 266 266 269 275 277 277 282 283 284 284 281 279 279 280 277 272 274 275 274 273 272 271 270 270 269 269 268 268 267 267 268 268 268 268
267 270 267 266 266 266 266 266 266 265 264 264 265 265 266 271 278 280 281 280 278 276 272 272 272 273 273 272 271 270 268 268 267 267 266 266 266 266 266 266 266 266 266
262 263 264 264 264 261 261 263 275 270 265 263 263 265 276 267 265 265 268 269 269 269 270 271 269 269 268 268 268 267 267 267 267 266 266 266 266 264 265 266 265 265 265
261 260 260 259 259 261 260 260 260 263 267 268 268 264 277 273 266 266 266 267 268 269 266 266 266 267 266 266 266 266 266 265 266 266 266 266 265 264 264 264 264 264 264
260 259 259 258 257 259 260 258 258 258 259 259 259 260 260 261 263 263 265 265 264 264 265 264 264 261 262 262 264 265 264 264 266 266 265 264 264 264 263 263 263 263 263
256 256 256 255 255 255 255 256 256 258 258 258 260 261 262 262 262 263 262 261 260 259 259 259 260 260 260 259 261 261 261 262 262 262 263 262 262 263 262 262 262 262 262
254 254 254 254 252 253 253 253 255 254 254 255 256 256 256 256 256 255 255 256 257 256 256 256 257 259 260 260 259 258 261 265 261 262 260 260 260 259 261 261 261 262 262
253 252 252 251 251 251 251 252 252 251 252 254 254 253 253 254 254 253 253 253 255 256 257 257 257 258 258 260 260 262 263 264 263 263 261 260 258 258 260 260 260 260 261

GFSGL_sfc_thetae_114.txt.gz
Theta_e
323 324 322 321 320 320 320 320 321 323 323 322 322 322 321 321 321 319 319 317 311 312 302 303 302 292 291 288 289 288 286 285 283 282 284 285 285 285 286 285 287 286 287
317 320 321 324 323 321 320 320 321 322 323 323 322 321 320 321 320 316 316 312 309 308 303 298 296 292 289 290 289 288 287 286 286 282 283 283 283 285 285 284 285 286 285
309 312 314 315 320 322 323 322 322 322 322 320 321 320 319 319 316 314 315 311 308 308 305 298 295 293 290 289 288 287 287 287 286 282 281 282 283 284 283 283 283 283 284
297 298 301 305 309 312 314 316 318 320 321 320 320 320 318 315 312 311 310 308 305 304 302 300 298 294 294 290 287 287 286 285 284 282 281 281 282 282 282 282 280 281 282
298 297 297 298 301 304 305 307 308 309 311 311 310 309 309 307 307 307 307 305 303 300 297 296 295 292 292 290 288 286 286 284 283 282 282 281 280 281 281 281 281 281 280
297 297 297 297 297 299 299 297 297 297 298 298 296 296 298 301 299 298 299 299 296 293 291 290 288 286 290 291 289 289 288 285 284 282 282 282 281 280 281 281 280 278 276
295 293 292 292 294 293 293 293 293 293 293 293 293 293 293 293 294 295 293 292 291 290 289 287 286 286 287 288 289 290 289 289 288 285 283 282 281 282 282 279 279 278 278
291 291 290 291 290 290 292 291 289 289 290 290 291 290 290 290 293 294 291 290 288 288 287 287 286 285 286 286 286 286 285 286 286 285 284 283 283 284 283 282 281 279 279
290 289 289 288 284 287 288 289 290 288 287 287 286 287 286 287 291 293 290 286 286 285 285 286 286 286 287 288 285 285 284 283 288 288 287 288 288 287 284 281 278 276 275
287 287 287 285 283 288 287 286 284 285 285 284 285 285 285 286 290 292 289 285 285 284 284 284 285 285 288 289 285 285 282 283 282 280 282 285 286 285 287 284 282 277 275
284 283 282 283 286 286 286 284 284 284 284 285 284 284 285 285 287 291 289 285 285 283 283 283 284 287 288 288 286 284 284 283 284 281 281 281 281 282 284 285 284 282 279
280 281 283 285 285 285 286 285 285 285 284 284 284 283 283 283 286 290 289 287 287 284 283 283 284 287 287 288 286 286 286 284 282 281 281 280 280 281 282 282 283 284 284
278 281 281 283 285 285 285 284 284 284 283 282 282 282 281 282 284 289 289 287 287 283 283 284 286 287 287 287 288 286 284 282 282 281 281 281 281 282 282 281 281 281 282
275 275 275 275 274 281 283 283 284 283 282 281 282 281 281 282 283 284 285 285 285 284 284 284 285 286 286 285 284 286 284 283 282 281 281 281 280 280 280 281 280 280 279
274 274 274 273 271 272 275 277 281 282 283 283 283 283 281 281 283 285 285 284 283 283 282 282 282 282 282 282 281 282 283 282 281 281 279 278 278 279 279 279 279 277 277
274 274 273 273 271 272 271 272 282 284 285 286 286 282 276 283 285 287 287 286 285 285 277 276 278 279 279 279 279 277 279 278 279 278 277 277 277 276 276 277 277 276 275
271 271 271 272 271 269 268 268 269 275 282 285 285 285 285 285 285 286 287 287 287 286 277 277 275 273 273 272 273 274 276 277 277 277 276 275 275 274 274 274 275 275 273
267 268 267 265 266 266 266 266 264 265 266 274 279 282 283 283 283 284 284 285 282 284 280 276 270 269 270 271 272 274 276 275 274 274 273 273 272 272 271 271 272 272 271
266 266 263 264 264 265 265 265 264 264 263 272 275 274 274 282 283 283 283 280 279 278 279 279 277 272 269 271 271 273 274 273 273 271 271 270 269 269 268 269 270 270 269
263 267 264 262 264 264 265 265 266 264 263 262 262 263 265 268 275 279 279 279 279 278 278 278 274 272 271 272 271 270 270 269 269 269 269 268 268 268 267 267 267 267 267
261 262 262 263 262 260 260 262 264 262 262 261 262 263 279 275 271 264 266 268 268 268 269 269 269 268 268 267 267 267 267 268 268 268 267 267 267 266 266 267 267 266 266
259 259 259 257 258 261 258 258 258 259 263 264 264 264 274 271 270 262 262 263 265 265 264 265 266 266 266 265 265 264 265 264 265 266 266 265 265 266 265 265 265 265 264
258 258 258 256 255 257 258 256 256 255 256 256 257 260 259 257 258 258 258 259 260 260 262 263 263 263 263 264 263 264 264 263 264 263 262 263 262 262 263 263 262 262 262
256 257 258 257 257 256 255 254 255 256 255 254 253 254 255 255 255 255 256 258 258 257 258 259 259 261 260 260 261 261 261 261 261 262 263 262 261 260 260 259 259 260 260
255 255 256 254 253 251 252 251 252 250 251 252 253 253 253 253 254 253 253 252 252 254 255 255 255 258 260 261 261 261 261 265 261 262 259 259 260 260 260 260 260 260 259
254 253 253 252 251 250 249 250 251 251 251 252 252 251 251 252 254 253 252 252 254 256 256 256 257 257 258 259 260 262 262 264 262 263 260 259 258 258 257 258 259 260 259

GFSGL_sfc_thetae_117.txt.gz
Theta_e
316 317 319 319 320 321 321 320 320 320 320 319 320 320 320 320 320 320 319 320 318 317 317 315 314 312 306 298 295 294 291 290 293 284 286 285 285 285 286 285 285 286 287
318 317 316 316 316 316 317 318 318 318 318 320 320 319 320 321 321 320 319 318 317 315 314 308 309 305 302 299 296 296 294 290 288 284 284 283 283 286 285 283 285 286 285
311 313 315 316 317 319 318 317 316 317 319 320 320 320 320 320 320 320 320 318 316 315 314 309 308 302 300 299 296 295 292 290 287 285 283 284 284 283 283 283 282 284 285
297 300 305 307 309 311 314 317 318 319 319 318 319 321 320 320 319 319 317 315 314 312 311 310 307 301 301 298 294 292 289 287 286 285 283 283 283 283 283 282 281 282 282
297 296 296 296 298 299 301 302 303 306 310 311 312 311 309 309 309 310 308 307 305 304 299 298 298 295 292 294 291 288 288 286 285 284 283 282 282 281 282 282 282 281 281
297 297 297 296 295 298 298 297 297 297 298 298 297 297 299 301 298 299 299 299 297 295 294 292 291 288 291 291 291 291 290 287 285 284 283 283 283 283 282 281 280 279 277
294 292 291 291 293 293 293 293 292 293 293 293 293 293 293 294 294 296 294 294 293 292 290 288 286 286 287 288 290 290 289 290 289 286 285 284 284 284 283 280 280 279 279
290 290 290 290 289 290 291 291 291 291 290 290 289 290 291 290 293 294 292 291 290 289 289 288 287 286 286 287 287 286 286 287 287 286 286 285 286 286 285 283 281 279 278
288 288 288 287 286 288 288 290 289 287 286 286 285 285 286 286 290 292 291 287 287 286 286 286 286 285 288 289 286 285 285 285 288 289 288 288 288 288 285 281 277 278 274
286 286 286 285 286 287 287 286 285 285 284 285 286 285 285 286 289 291 288 285 285 284 284 284 285 286 289 289 286 285 284 284 284 284 284 286 287 286 287 282 280 278 276
284 284 284 285 286 286 285 284 285 285 285 285 285 285 285 285 286 291 289 285 285 284 284 283 284 288 289 289 288 285 286 285 286 284 282 281 279 280 283 285 282 281 275
282 283 284 285 285 285 286 285 285 285 285 282 283 284 284 284 287 290 289 288 287 285 284 283 284 288 289 290 287 287 287 284 282 282 279 280 280 281 282 283 284 283 284
282 281 282 284 285 285 285 285 284 284 284 282 282 283 282 283 284 289 289 288 288 284 283 283 286 288 288 288 289 287 285 283 282 281 280 281 280 282 281 279 281 280 282
276 276 275 276 280 282 283 283 284 283 283 282 282 282 281 282 283 284 285 285 284 284 284 284 285 286 287 285 284 286 284 283 280 278 274 276 280 280 280 279 280 279 279
275 274 274 273 272 273 274 278 280 281 283 281 282 282 279 280 281 285 285 283 281 282 279 278 281 282 282 281 282 282 282 282 281 281 280 275 278 279 279 279 280 279 277
273 273 273 272 271 271 271 271 282 285 286 286 286 280 272 283 286 286 287 286 285 284 280 279 279 280 279 280 280 280 281 281 281 280 279 278 278 277 277 277 278 277 276
270 270 269 270 269 268 267 269 269 272 282 283 284 283 284 283 284 285 287 287 286 284 273 272 271 271 271 271 272 278 275 273 274 278 278 277 277 276 275 275 275 275 275
265 266 265 265 265 266 267 264 264 265 267 273 278 280 282 283 284 284 284 285 282 284 279 277 277 276 274 266 266 267 267 268 272 273 275 275 274 274 272 272 273 273 273
266 264 262 263 264 265 266 266 265 264 265 272 271 273 269 280 283 283 283 280 279 278 278 278 277 277 276 275 274 273 273 271 269 269 268 269 270 270 269 270 271 271 271
261 265 262 261 263 264 264 265 265 264 262 262 262 263 264 267 269 268 275 275 277 277 277 277 269 268 269 268 267 268 267 265 266 267 267 267 267 268 268 268 268 268 268
259 260 262 262 262 260 259 260 260 261 261 259 261 265 278 273 273 269 262 263 265 263 264 263 263 262 263 263 262 263 262 263 265 267 266 265 266 265 266 267 265 266 265
259 258 259 257 258 260 258 258 258 258 257 258 258 260 271 259 259 259 257 257 259 261 261 262 260 261 261 261 261 261 261 262 263 264 263 263 265 264 264 263 262 262 262
260 259 258 258 258 258 258 255 255 254 254 253 254 257 256 254 254 255 254 254 254 256 257 257 257 257 257 258 259 262 261 260 262 262 262 262 261 262 261 261 261 260 260
259 259 258 257 257 257 254 252 252 253 252 252 251 251 253 252 251 252 252 252 253 252 251 252 253 254 254 254 254 255 256 257 258 261 262 261 260 260 259 260 259 259 259
256 257 256 256 254 253 253 254 255 252 252 251 253 251 252 253 253 253 252 252 251 251 255 253 253 255 255 254 254 254 255 261 260 259 257 258 259 259 258 259 258 259 260
256 255 254 253 253 252 251 253 253 254 253 253 253 253 252 253 253 253 253 253 254 254 255 255 255 256 255 255 255 257 258 262 261 263 260 259 259 258 258 258 259 258 257

GFSGL_sfc_thetae_120.txt.gz
Theta_e
315 318 319 320 321 321 321 321 321 319 318 317 317 318 318 318 318 319 319 319 318 317 317 316 315 317 316 315 308 306 303 303 302 286 286 286 286 286 287 286 286 287 288
312 312 315 317 317 318 319 320 318 318 317 317 317 317 317 318 319 318 318 318 317 317 317 316 315 314 313 312 305 304 301 296 295 286 285 285 285 286 287 285 285 286 285
311 312 311 311 312 314 315 315 314 315 315 315 317 317 318 318 319 319 319 319 318 317 317 316 314 312 308 307 301 299 296 291 290 288 285 285 285 285 284 284 284 284 285
298 305 307 308 310 312 314 314 314 315 316 316 317 318 318 318 318 319 318 318 317 316 313 310 309 305 303 302 296 294 291 289 288 286 284 284 284 284 285 283 282 282 283
296 295 295 296 297 298 300 302 302 304 307 309 311 310 309 309 306 307 307 306 305 304 301 299 297 293 293 296 294 290 289 288 287 286 284 283 282 282 282 283 283 282 282
295 295 295 294 295 297 297 296 296 296 297 296 296 295 296 298 295 296 297 299 297 295 294 292 292 288 292 293 293 292 291 287 286 286 285 284 284 284 284 283 283 280 279
292 290 290 291 292 292 292 292 291 292 292 291 292 292 292 292 294 295 293 294 293 293 291 289 288 287 287 288 291 292 291 293 291 288 285 285 284 285 284 282 281 280 277
289 288 288 289 289 290 291 291 291 290 289 288 287 287 287 288 292 293 291 290 290 289 289 288 288 287 287 287 287 286 286 286 287 286 286 286 286 286 285 284 282 277 276
286 286 287 288 287 289 288 288 288 287 286 286 285 285 284 285 291 292 288 286 286 285 286 287 287 286 288 289 286 285 285 285 288 289 289 289 290 289 286 282 279 278 274
286 286 287 287 288 287 287 286 285 285 284 285 285 285 285 286 291 291 287 285 285 284 284 284 285 286 288 290 286 285 284 284 285 285 285 287 288 287 288 283 280 271 268
284 285 285 285 286 286 285 285 285 285 285 285 285 285 285 285 287 290 289 284 282 282 279 280 282 288 289 290 288 285 283 284 286 284 283 283 283 280 282 280 278 276 272
283 284 285 285 285 286 286 285 285 286 285 284 285 284 284 284 288 290 290 288 287 280 280 282 284 288 289 290 286 288 288 285 284 282 281 281 282 282 282 283 283 282 282
283 284 284 285 285 285 285 285 284 285 284 282 283 282 282 283 285 290 289 288 287 283 284 285 286 288 289 288 288 288 284 282 282 281 281 280 278 278 279 278 281 282 282
277 278 280 282 282 282 283 283 284 283 283 283 282 282 282 282 283 284 285 285 284 284 284 284 286 286 286 285 282 286 283 282 281 280 280 278 275 274 275 279 280 280 279
276 276 276 275 275 276 277 280 279 280 283 282 279 279 278 276 279 284 285 283 276 280 279 279 280 282 282 281 282 282 282 281 281 280 280 279 279 278 277 279 280 276 277
275 275 274 274 273 272 273 274 285 285 285 285 285 279 274 284 286 287 287 287 285 284 273 270 278 278 278 279 279 279 280 280 280 280 279 278 278 278 272 273 275 277 275
273 272 272 272 271 270 268 270 271 274 282 283 282 283 283 283 284 286 288 287 286 283 278 277 276 276 276 276 275 277 277 276 274 279 279 279 277 275 273 271 273 275 274
269 269 269 268 269 268 268 266 266 268 272 273 277 279 282 284 284 284 284 285 283 282 279 278 277 277 276 275 274 268 267 270 274 276 276 276 274 271 268 269 271 272 272
268 267 266 266 266 267 267 267 266 269 270 271 266 272 269 279 281 281 282 279 278 278 278 278 277 277 276 276 275 271 271 269 267 265 265 266 266 267 267 269 268 270 270
264 266 264 264 265 266 266 266 264 262 263 261 261 271 274 273 268 263 268 270 272 272 272 272 270 262 263 263 262 262 261 260 261 261 261 262 265 267 267 266 266 266 266
262 262 263 263 262 261 260 262 262 259 258 257 259 264 274 261 261 262 258 258 258 259 260 260 259 258 257 257 257 258 257 258 257 258 259 260 262 263 264 265 264 263 264
262 261 261 260 259 260 260 260 260 260 257 256 257 259 269 257 256 256 256 254 254 256 257 256 256 255 256 256 256 256 256 256 256 257 257 258 259 259 259 261 261 261 261
263 262 261 261 260 261 261 260 259 258 258 254 255 257 255 253 254 255 255 254 252 254 253 252 253 254 253 253 254 255 256 255 255 255 256 256 258 260 260 258 256 257 259
261 261 261 261 260 260 259 258 257 257 257 256 254 253 255 253 253 254 254 253 252 252 250 250 251 252 251 251 250 250 251 253 254 255 259 260 260 258 259 259 259 260 259
259 259 260 259 258 258 258 258 258 256 255 253 254 255 254 251 252 252 251 251 251 251 253 253 251 251 252 253 253 253 253 259 258 256 255 257 258 256 256 258 258 258 259
259 259 259 259 258 258 256 256 256 255 255 254 253 253 253 253 253 253 253 252 253 253 253 253 253 253 254 255 255 257 258 261 258 259 259 259 258 255 257 257 257 258 257

GFSGL_sfc_thetae_123.txt.gz
Theta_e
318 319 320 321 323 324 324 324 323 323 321 320 319 319 319 319 319 319 319 319 318 317 318 317 316 317 316 316 316 314 311 309 305 291 288 288 287 287 288 289 289 290 291
315 316 318 319 320 320 321 322 320 320 320 320 319 318 318 318 319 318 318 318 317 316 317 316 315 316 315 316 314 309 308 303 300 293 285 285 286 288 288 287 287 288 288
312 311 312 314 316 318 319 320 319 319 318 318 318 317 317 317 317 318 318 318 317 317 317 316 316 315 312 312 305 301 299 295 295 289 287 287 285 286 286 286 285 286 287
303 308 309 309 311 313 314 314 314 315 316 316 316 317 317 317 317 318 317 317 317 315 312 309 306 305 304 303 300 298 293 291 290 289 286 285 285 285 286 284 283 285 285
296 296 296 296 298 300 302 303 303 304 306 307 311 310 307 304 302 305 307 306 304 303 299 299 297 295 295 298 296 293 292 289 288 287 285 284 283 283 283 284 284 284 284
296 295 295 295 297 299 298 298 297 298 298 297 296 297 297 297 295 296 299 300 298 297 295 293 292 289 293 295 295 294 294 290 287 287 287 286 285 285 285 284 283 282 282
292 290 291 292 292 293 293 292 292 293 293 292 293 293 292 293 295 294 294 296 294 295 292 291 289 289 289 291 293 293 292 293 292 290 288 287 286 286 286 284 285 285 285
290 289 289 291 290 291 291 291 290 290 290 290 289 290 290 290 293 294 291 293 292 291 291 290 290 289 289 288 289 288 287 287 288 287 288 287 287 287 287 286 285 284 283
288 288 288 289 288 289 289 290 289 289 288 287 287 286 286 287 292 292 289 288 287 286 287 288 288 288 289 290 286 285 285 285 289 289 289 290 290 289 288 285 283 282 282
287 287 288 288 288 289 288 287 285 286 285 285 285 285 285 286 291 290 287 286 285 285 286 286 286 287 288 290 286 285 285 285 286 285 286 288 289 288 288 287 286 282 280
286 286 286 286 287 287 286 286 286 286 286 285 285 285 285 286 289 290 289 286 285 284 284 284 285 289 289 290 288 286 286 286 287 285 285 285 285 285 286 285 284 283 282
284 285 285 286 286 286 286 285 286 286 286 285 285 284 285 285 288 290 290 288 287 284 284 284 285 289 290 290 287 288 289 286 285 284 284 283 284 283 284 283 283 283 284
285 285 285 285 285 285 286 285 285 285 285 284 284 283 283 284 286 289 288 287 286 285 285 286 287 289 290 289 289 289 284 285 284 283 282 282 282 283 283 283 283 284 284
283 283 283 283 283 284 284 285 285 284 284 283 283 282 282 283 283 285 285 285 284 284 285 286 287 287 287 285 285 286 284 284 282 281 280 280 281 281 281 281 281 282 281
279 279 280 281 281 281 281 283 282 283 284 282 281 282 281 281 282 286 285 283 282 282 280 281 283 283 282 282 282 282 283 283 282 281 281 280 280 280 280 281 281 281 280
276 277 277 277 277 279 282 283 286 285 285 285 284 281 283 285 287 288 287 286 285 283 276 279 279 279 278 279 279 280 281 280 281 282 281 281 279 279 279 279 280 279 278
275 275 275 275 275 275 277 279 278 280 283 283 284 284 284 284 286 287 287 287 285 283 279 279 278 278 277 277 277 276 277 278 277 279 279 279 279 279 279 278 277 277 276
272 272 272 272 273 273 272 272 272 273 274 274 276 280 284 284 284 284 285 286 283 282 280 280 279 279 278 277 277 276 275 276 277 277 277 276 276 276 275 274 275 274 274
271 270 270 270 270 270 270 269 271 272 271 271 270 275 274 280 280 280 280 279 279 279 278 278 278 277 277 277 277 275 272 273 272 272 272 271 271 272 271 272 272 271 271
268 268 268 268 268 268 268 268 268 267 266 267 268 269 269 272 271 267 266 269 271 271 270 269 269 268 268 268 269 268 269 269 269 269 269 268 269 269 269 269 269 269 269
266 266 266 266 265 265 265 265 265 265 265 264 263 266 273 264 263 263 262 262 262 263 264 264 265 264 265 265 265 266 265 266 265 265 265 266 266 266 267 268 268 267 267
265 264 264 263 264 263 263 263 263 263 263 263 262 262 268 260 260 260 260 259 259 259 260 261 263 263 263 263 263 263 263 263 263 262 263 263 263 264 264 265 265 266 266
264 264 264 263 263 263 263 262 262 261 261 261 260 260 260 260 260 260 259 259 258 259 259 258 259 260 261 258 259 260 261 261 261 261 261 262 262 263 263 263 264 263 263
262 262 262 262 262 262 261 261 261 261 260 260 259 259 259 258 257 257 256 256 256 257 256 256 256 257 258 257 257 256 256 257 258 259 260 261 261 261 262 262 262 262 262
261 261 261 260 260 260 260 260 260 260 259 259 258 257 258 256 255 255 255 255 255 254 256 255 255 255 255 256 256 255 255 258 257 256 258 260 260 260 260 261 261 261 261
261 260 260 260 260 260 259 259 258 258 258 258 257 257 256 256 256 255 255 254 254 255 254 254 255 255 255 256 256 257 257 260 259 258 259 260 260 259 258 259 259 259 260

GFSGL_sfc_thetae_126.txt.gz
Theta_e
317 321 323 324 325 326 327 329 329 330 329 327 326 325 324 324 324 322 321 321 319 319 319 317 317 318 316 317 316 315 314 312 308 296 290 290 290 289 289 291 292 293 294
315 319 321 323 324 325 325 326 328 327 327 327 326 324 324 323 324 321 319 319 318 317 317 317 316 316 316 316 315 314 314 312 308 302 287 287 287 289 290 289 289 291 291
316 318 320 321 322 323 324 325 325 326 325 325 324 323 323 323 322 322 321 319 318 318 318 317 317 316 314 314 313 308 304 298 300 295 291 288 287 288 288 288 288 288 289
314 317 317 318 319 321 322 323 323 323 323 322 322 322 322 322 321 320 319 318 318 318 317 317 314 311 310 307 303 301 298 295 293 291 288 287 287 286 287 285 283 286 285
302 306 313 310 310 311 312 313 313 313 317 319 318 317 317 316 313 315 315 315 314 308 302 301 300 296 295 300 300 298 296 291 290 290 288 287 285 284 284 285 285 284 285
302 302 301 300 301 303 304 303 302 301 302 301 301 302 302 300 296 298 302 303 301 299 297 295 294 290 295 295 295 296 299 295 289 290 289 287 287 286 285 285 285 282 282
301 298 295 298 298 299 298 295 295 297 297 295 296 296 295 296 295 295 295 301 299 298 295 294 293 291 291 294 294 294 293 294 293 291 288 288 286 286 286 285 285 285 285
298 296 293 294 295 295 295 294 293 293 293 292 293 294 293 292 294 294 292 297 295 294 293 294 293 291 291 291 291 288 288 288 289 289 288 288 288 288 288 287 286 286 285
295 294 292 293 292 293 292 293 292 291 290 289 289 289 289 290 292 292 291 291 289 288 289 290 290 290 289 290 287 286 286 286 289 290 290 290 290 290 290 288 284 285 284
292 291 291 290 290 291 291 289 288 289 286 287 287 287 286 289 291 290 290 290 287 287 287 287 287 288 290 290 287 286 285 285 286 286 287 289 289 289 289 288 288 285 285
289 289 287 289 289 291 289 288 287 287 287 286 286 286 287 288 290 290 289 288 288 287 288 287 288 289 290 289 289 287 287 286 287 286 286 286 286 287 287 286 285 285 285
287 287 287 287 287 287 286 286 286 287 286 286 286 286 286 287 288 290 289 288 288 287 286 287 288 290 290 289 288 289 288 287 286 286 285 285 285 284 285 285 284 284 286
286 286 286 286 286 286 286 286 287 287 288 287 287 286 285 286 288 288 288 287 287 286 287 287 289 290 290 289 289 287 285 285 285 284 284 283 283 283 283 284 284 284 284
285 285 285 285 285 285 286 287 287 287 287 286 286 285 284 284 286 286 286 286 285 286 287 287 287 287 286 285 285 285 285 284 283 282 281 282 282 282 282 283 282 282 281
283 282 283 283 284 283 284 285 284 284 286 286 285 285 284 284 285 286 285 284 284 284 284 285 284 283 283 283 283 284 284 284 284 283 283 282 281 281 281 282 282 282 281
280 280 281 281 282 284 283 283 286 285 285 285 285 285 285 286 287 287 286 286 284 283 283 281 281 281 280 281 281 281 281 281 282 282 282 282 281 280 280 280 280 281 280
279 278 278 280 281 281 281 281 279 282 283 284 285 285 285 286 288 287 287 285 285 284 282 281 280 280 279 279 279 279 279 280 280 280 280 280 280 280 279 279 280 279 278
275 276 278 279 279 279 279 279 279 278 277 277 279 282 284 285 285 286 287 286 283 283 282 281 281 280 280 279 279 279 279 280 280 280 280 280 279 278 278 278 278 277 277
273 273 274 274 274 275 275 276 276 276 276 276 277 278 276 279 280 279 280 281 282 281 280 280 280 279 280 280 279 279 278 278 277 277 277 276 276 276 276 276 275 273 273
269 270 271 271 272 272 273 272 272 272 272 272 271 273 273 276 275 273 272 273 274 274 273 273 273 273 273 273 274 274 274 274 274 274 274 274 274 273 273 273 272 272 272
268 268 268 268 268 268 269 268 269 269 269 268 267 270 273 269 269 268 268 268 267 268 268 269 269 270 270 270 270 271 271 271 271 270 270 271 271 270 271 271 271 271 270
267 266 266 266 266 266 266 266 266 266 266 266 265 266 269 266 266 266 266 266 265 265 265 265 266 267 267 267 268 268 268 268 269 268 268 268 268 269 268 268 268 269 268
265 265 265 265 265 265 265 265 265 265 264 264 264 264 265 265 264 264 264 264 264 264 264 263 264 264 266 265 265 265 265 266 267 266 265 266 266 267 267 267 267 266 266
264 264 264 264 263 264 264 264 264 263 263 263 263 263 263 263 263 263 262 263 262 263 263 262 262 262 262 262 264 264 263 263 264 263 263 264 264 265 265 265 265 265 265
263 262 262 262 262 262 262 262 262 262 262 262 262 262 262 262 262 262 262 262 261 260 261 261 261 261 260 260 260 261 261 261 261 262 262 262 263 263 263 263 263 264 264
261 261 261 261 261 261 261 260 260 261 261 261 261 261 260 260 260 260 260 260 259 259 259 260 260 259 259 260 260 260 259 261 260 259 261 262 262 262 262 262 262 262 262